[[{"header":{"parameterUnit":"m.s-1","parameterCategory":1,"la1":30.6,"la2":29.2853,"lo1":-89.7004,"lo2":-87.6739,"dy":0.0162,"dx":0.0183,"nx":112,"ny":82,"refTime":"2024-08-22T06:00:00:Z","depth":0,"parameterNumber":2,"parameterNumberName":"U-component_of_WINDS"},"data":[0.0,0.0,0.0,0.0,0.0,0.0,0.0,0.0,0.0,0.0,0.0,0.0,0.0,0.0,0.0,0.0,0.0,0.0,0.0,0.0,0.0,0.0,0.0,0.0,0.0,0.0,0.0,0.0,0.0,0.0,0.0,0.0,0.0,0.0,0.0,0.0,0.0,0.0,0.0,0.0,0.0,0.0,0.0,0.0,0.0,0.0,0.0,0.0,0.0,0.0,0.0,0.0,0.0,0.0,0.0,0.0,0.0,0.0,0.0,0.0,0.0,0.0,0.0,0.0,0.0,0.0,0.0,0.0,0.0,0.0,0.0,0.0,0.0,0.0,0.0,0.0,0.0,0.0,0.0,0.0,0.0,0.0,0.0,0.0,0.0,0.0,0.0,0.0,0.0,0.0,0.0,-2.6354,-2.7788,-2.8939,-2.985,-2.9343,-2.8017,-2.5694,0.0,0.0,0.0,0.0,0.0,0.0,0.0,0.0,0.0,0.0,0.0,0.0,0.0,0.0,0.0,0.0,0.0,0.0,0.0,0.0,0.0,0.0,0.0,0.0,0.0,0.0,0.0,0.0,0.0,0.0,0.0,0.0,0.0,0.0,0.0,0.0,0.0,0.0,0.0,0.0,0.0,0.0,0.0,0.0,0.0,0.0,0.0,0.0,0.0,0.0,0.0,0.0,0.0,0.0,0.0,0.0,0.0,0.0,0.0,0.0,0.0,0.0,0.0,0.0,0.0,0.0,0.0,0.0,0.0,0.0,0.0,0.0,0.0,0.0,0.0,0.0,0.0,0.0,0.0,0.0,0.0,0.0,0.0,0.0,0.0,0.0,0.0,0.0,0.0,0.0,0.0,0.0,0.0,0.0,0.0,0.0,0.0,0.0,0.0,0.0,0.0,0.0,0.0,0.0,-2.3131,-2.642,-2.7773,-2.8746,-2.9522,-2.9471,-2.8759,-2.7239,0.0,0.0,0.0,0.0,0.0,0.0,0.0,0.0,0.0,0.0,0.0,0.0,0.0,0.0,0.0,0.0,0.0,0.0,0.0,0.0,0.0,0.0,0.0,0.0,0.0,0.0,0.0,0.0,0.0,0.0,0.0,0.0,0.0,0.0,0.0,0.0,0.0,0.0,0.0,0.0,0.0,0.0,0.0,0.0,0.0,0.0,0.0,0.0,0.0,0.0,0.0,0.0,0.0,0.0,0.0,0.0,0.0,0.0,0.0,0.0,0.0,0.0,0.0,0.0,0.0,0.0,0.0,0.0,0.0,0.0,0.0,0.0,0.0,0.0,0.0,0.0,0.0,0.0,0.0,0.0,0.0,0.0,0.0,0.0,0.0,0.0,0.0,0.0,0.0,0.0,0.0,0.0,0.0,0.0,0.0,0.0,0.0,0.0,0.0,0.0,0.0,0.0,0.0,-2.3308,-2.485,-2.7398,-2.8474,-2.9127,-2.9472,-2.9506,-2.8573,-2.639,-2.4742,0.0,0.0,0.0,0.0,0.0,0.0,0.0,0.0,0.0,0.0,0.0,0.0,0.0,0.0,0.0,0.0,0.0,0.0,0.0,0.0,0.0,0.0,0.0,0.0,0.0,0.0,0.0,0.0,0.0,0.0,0.0,0.0,0.0,0.0,0.0,0.0,0.0,0.0,0.0,0.0,0.0,0.0,0.0,0.0,0.0,0.0,0.0,0.0,0.0,0.0,0.0,0.0,0.0,0.0,0.0,0.0,0.0,0.0,0.0,0.0,0.0,0.0,0.0,0.0,0.0,0.0,0.0,0.0,0.0,0.0,0.0,0.0,0.0,0.0,0.0,0.0,0.0,0.0,0.0,0.0,0.0,0.0,0.0,0.0,0.0,0.0,0.0,0.0,0.0,0.0,0.0,0.0,0.0,0.0,0.0,0.0,0.0,0.0,0.0,0.0,0.0,0.0,-2.522,-2.6736,-2.7991,-2.8954,-2.9437,-2.9265,-2.9075,-2.7899,-2.5305,-2.3991,0.0,0.0,0.0,0.0,0.0,0.0,0.0,0.0,0.0,0.0,0.0,0.0,0.0,0.0,0.0,0.0,0.0,0.0,0.0,0.0,0.0,0.0,0.0,0.0,0.0,0.0,0.0,0.0,0.0,0.0,0.0,0.0,0.0,0.0,0.0,0.0,0.0,0.0,0.0,0.0,0.0,0.0,0.0,0.0,0.0,0.0,0.0,0.0,0.0,0.0,0.0,0.0,0.0,0.0,0.0,0.0,0.0,0.0,0.0,0.0,0.0,0.0,0.0,0.0,0.0,0.0,0.0,0.0,0.0,0.0,0.0,0.0,0.0,0.0,0.0,0.0,0.0,0.0,0.0,0.0,0.0,0.0,0.0,0.0,0.0,0.0,0.0,0.0,0.0,0.0,0.0,0.0,0.0,0.0,0.0,0.0,0.0,0.0,0.0,0.0,0.0,0.0,-2.5555,-2.7725,-2.7421,-2.8661,-2.923,-2.8541,-2.7851,-2.6747,-2.5123,-2.2953,0.0,0.0,0.0,0.0,0.0,0.0,0.0,0.0,0.0,0.0,0.0,0.0,0.0,0.0,0.0,0.0,0.0,0.0,0.0,0.0,0.0,0.0,0.0,0.0,0.0,0.0,0.0,0.0,0.0,0.0,0.0,0.0,0.0,0.0,0.0,0.0,0.0,0.0,0.0,0.0,0.0,0.0,0.0,0.0,0.0,0.0,0.0,0.0,0.0,0.0,0.0,0.0,0.0,0.0,0.0,0.0,0.0,0.0,0.0,0.0,0.0,0.0,0.0,0.0,0.0,0.0,0.0,0.0,0.0,0.0,0.0,0.0,0.0,0.0,0.0,0.0,0.0,0.0,0.0,0.0,0.0,0.0,0.0,0.0,0.0,0.0,0.0,0.0,0.0,0.0,0.0,0.0,0.0,0.0,0.0,0.0,0.0,0.0,0.0,0.0,0.0,0.0,-2.5054,-2.7301,0.0,-2.9334,-2.9748,-2.8506,-2.8144,-2.6713,-2.375,0.0,0.0,0.0,0.0,0.0,0.0,0.0,0.0,0.0,0.0,0.0,0.0,0.0,0.0,0.0,0.0,0.0,0.0,0.0,0.0,0.0,0.0,0.0,0.0,0.0,0.0,0.0,0.0,0.0,0.0,0.0,0.0,0.0,0.0,0.0,0.0,0.0,0.0,0.0,0.0,0.0,0.0,0.0,0.0,0.0,0.0,0.0,0.0,0.0,0.0,0.0,0.0,0.0,0.0,0.0,0.0,0.0,0.0,0.0,0.0,0.0,0.0,0.0,0.0,0.0,0.0,0.0,0.0,0.0,0.0,0.0,0.0,0.0,0.0,0.0,0.0,0.0,0.0,0.0,0.0,0.0,0.0,0.0,0.0,0.0,0.0,0.0,0.0,0.0,0.0,0.0,0.0,0.0,0.0,0.0,0.0,0.0,0.0,0.0,0.0,0.0,0.0,-2.1707,-2.4978,-2.74,0.0,-2.9368,-2.9695,-2.8423,-2.7633,-2.593,-2.2848,0.0,0.0,0.0,0.0,0.0,0.0,0.0,0.0,0.0,0.0,0.0,0.0,0.0,0.0,0.0,0.0,0.0,0.0,0.0,0.0,0.0,0.0,0.0,0.0,0.0,0.0,0.0,0.0,0.0,0.0,0.0,0.0,0.0,0.0,0.0,0.0,0.0,0.0,0.0,0.0,0.0,0.0,0.0,0.0,0.0,0.0,0.0,0.0,0.0,0.0,0.0,0.0,0.0,0.0,0.0,0.0,0.0,0.0,0.0,0.0,0.0,0.0,0.0,0.0,0.0,0.0,0.0,0.0,0.0,0.0,0.0,0.0,0.0,0.0,0.0,0.0,0.0,0.0,0.0,0.0,0.0,0.0,0.0,0.0,0.0,0.0,0.0,0.0,0.0,0.0,0.0,0.0,0.0,0.0,0.0,0.0,0.0,0.0,0.0,0.0,0.0,0.0,-2.1197,-2.5523,-2.8312,-2.7591,-2.8521,-2.8903,-2.8152,-2.6036,-2.4106,0.0,0.0,0.0,0.0,0.0,0.0,0.0,0.0,0.0,0.0,0.0,0.0,0.0,0.0,0.0,0.0,0.0,0.0,0.0,0.0,0.0,0.0,0.0,0.0,0.0,0.0,0.0,0.0,0.0,0.0,0.0,0.0,0.0,0.0,0.0,0.0,0.0,0.0,0.0,0.0,0.0,0.0,0.0,0.0,0.0,0.0,0.0,0.0,0.0,0.0,0.0,0.0,0.0,0.0,0.0,0.0,0.0,0.0,0.0,0.0,0.0,0.0,0.0,0.0,0.0,0.0,0.0,0.0,0.0,0.0,0.0,0.0,0.0,0.0,0.0,0.0,0.0,0.0,0.0,0.0,0.0,0.0,0.0,0.0,0.0,0.0,0.0,0.0,0.0,0.0,0.0,0.0,0.0,0.0,0.0,0.0,0.0,0.0,0.0,0.0,0.0,0.0,0.0,-2.115,-2.4948,-2.7588,-2.7502,-2.8721,-2.9158,-2.8186,-2.7216,-2.5491,-2.2702,0.0,0.0,0.0,0.0,0.0,0.0,0.0,0.0,0.0,0.0,0.0,0.0,0.0,0.0,0.0,0.0,0.0,0.0,0.0,0.0,0.0,0.0,0.0,0.0,0.0,0.0,0.0,0.0,0.0,0.0,0.0,0.0,0.0,0.0,0.0,0.0,0.0,0.0,0.0,0.0,0.0,0.0,0.0,0.0,0.0,0.0,0.0,0.0,0.0,0.0,0.0,0.0,0.0,0.0,0.0,0.0,0.0,0.0,0.0,0.0,0.0,0.0,0.0,0.0,0.0,0.0,0.0,0.0,0.0,0.0,0.0,0.0,0.0,0.0,0.0,0.0,0.0,0.0,0.0,0.0,0.0,0.0,0.0,0.0,0.0,0.0,0.0,0.0,0.0,0.0,0.0,0.0,0.0,0.0,0.0,0.0,0.0,0.0,0.0,0.0,0.0,0.0,-2.0812,-2.4547,-2.7208,-2.7316,-2.8283,-2.8641,-2.8005,-2.7171,-2.5493,-2.2636,0.0,0.0,0.0,0.0,0.0,0.0,0.0,0.0,0.0,0.0,0.0,0.0,0.0,0.0,0.0,0.0,0.0,0.0,0.0,0.0,0.0,0.0,0.0,0.0,0.0,0.0,0.0,0.0,0.0,0.0,0.0,0.0,0.0,0.0,0.0,0.0,0.0,0.0,0.0,0.0,0.0,0.0,0.0,0.0,0.0,0.0,0.0,0.0,0.0,0.0,0.0,0.0,0.0,0.0,0.0,0.0,0.0,0.0,0.0,0.0,0.0,0.0,0.0,0.0,0.0,0.0,0.0,0.0,0.0,0.0,0.0,0.0,0.0,0.0,0.0,0.0,0.0,0.0,0.0,0.0,0.0,0.0,0.0,0.0,0.0,0.0,0.0,0.0,0.0,0.0,0.0,0.0,0.0,0.0,0.0,0.0,0.0,0.0,0.0,0.0,0.0,0.0,-2.0379,-2.4214,-2.6931,-2.6973,-2.7437,-2.7745,-2.7684,-2.6435,-2.4754,-2.2686,0.0,0.0,0.0,0.0,0.0,0.0,0.0,0.0,0.0,0.0,0.0,0.0,0.0,0.0,0.0,0.0,0.0,0.0,0.0,0.0,0.0,0.0,0.0,0.0,0.0,0.0,0.0,0.0,0.0,0.0,0.0,0.0,0.0,0.0,0.0,0.0,0.0,0.0,0.0,0.0,0.0,0.0,0.0,0.0,0.0,0.0,0.0,0.0,0.0,0.0,0.0,0.0,0.0,0.0,0.0,0.0,0.0,0.0,0.0,0.0,-2.4018,0.0,0.0,0.0,0.0,0.0,0.0,0.0,0.0,0.0,0.0,0.0,0.0,0.0,0.0,0.0,0.0,0.0,0.0,0.0,0.0,0.0,0.0,0.0,0.0,0.0,0.0,0.0,0.0,0.0,0.0,0.0,0.0,0.0,0.0,0.0,0.0,0.0,0.0,0.0,0.0,0.0,-2.087,-2.3666,-2.5765,-2.6131,-2.7264,-2.7945,-2.7712,-2.7008,-2.5767,-2.3861,0.0,0.0,0.0,0.0,0.0,0.0,0.0,0.0,0.0,0.0,0.0,0.0,0.0,0.0,0.0,0.0,0.0,0.0,0.0,0.0,0.0,0.0,0.0,0.0,0.0,0.0,0.0,0.0,0.0,0.0,0.0,0.0,0.0,0.0,0.0,0.0,0.0,0.0,0.0,0.0,0.0,0.0,0.0,0.0,0.0,0.0,0.0,0.0,0.0,0.0,0.0,0.0,0.0,0.0,0.0,0.0,0.0,0.0,0.0,0.0,0.0,-2.5765,0.0,0.0,0.0,0.0,0.0,0.0,0.0,0.0,0.0,0.0,0.0,0.0,0.0,0.0,0.0,0.0,0.0,0.0,0.0,0.0,0.0,0.0,0.0,0.0,0.0,0.0,0.0,0.0,0.0,0.0,0.0,0.0,0.0,0.0,0.0,0.0,0.0,0.0,0.0,0.0,-2.1063,-2.3437,-2.5326,-2.5895,-2.6627,-2.7165,-2.7366,-2.6809,-2.5768,-2.4157,-2.2852,0.0,0.0,0.0,0.0,0.0,0.0,0.0,0.0,0.0,0.0,0.0,0.0,0.0,0.0,0.0,0.0,0.0,0.0,0.0,0.0,0.0,0.0,0.0,0.0,0.0,0.0,0.0,0.0,0.0,0.0,0.0,0.0,0.0,0.0,0.0,0.0,0.0,0.0,0.0,0.0,0.0,0.0,0.0,0.0,0.0,0.0,0.0,0.0,0.0,0.0,0.0,0.0,0.0,-2.8273,-2.8829,-2.9714,-2.9176,-2.8878,-2.8742,-2.8338,-2.8234,-2.8244,0.0,0.0,0.0,0.0,0.0,0.0,0.0,0.0,0.0,0.0,0.0,0.0,0.0,0.0,0.0,0.0,0.0,0.0,0.0,0.0,0.0,0.0,0.0,0.0,0.0,-2.5448,-2.465,0.0,0.0,0.0,0.0,0.0,0.0,0.0,0.0,0.0,0.0,0.0,0.0,-2.1133,-2.32,-2.4866,-2.5447,-2.5811,-2.6221,-2.679,-2.6394,-2.5576,-2.4264,-2.3456,-2.239,0.0,0.0,0.0,0.0,0.0,0.0,0.0,0.0,0.0,0.0,0.0,0.0,0.0,0.0,0.0,0.0,0.0,0.0,0.0,0.0,0.0,0.0,0.0,0.0,0.0,0.0,0.0,0.0,0.0,0.0,0.0,0.0,-2.1224,-2.2049,0.0,0.0,0.0,0.0,0.0,0.0,0.0,0.0,0.0,0.0,0.0,0.0,0.0,0.0,-2.8979,-2.8935,-2.9024,-2.9214,-2.9794,-2.9885,-2.9541,-2.9456,-2.9409,-2.9388,-2.9327,0.0,-2.6891,-2.7244,0.0,0.0,0.0,0.0,0.0,0.0,0.0,0.0,0.0,0.0,0.0,0.0,0.0,0.0,0.0,0.0,0.0,0.0,0.0,0.0,0.0,0.0,-2.5621,-2.5779,-2.573,-2.5621,0.0,-2.3987,-2.262,-2.2154,0.0,0.0,0.0,0.0,0.0,0.0,0.0,0.0,-2.1183,-2.2476,-2.3378,-2.3466,-2.4987,-2.6039,-2.613,-2.6484,-2.6201,-2.5032,-2.4037,-2.2817,-2.1297,-2.0425,0.0,0.0,0.0,0.0,0.0,0.0,0.0,0.0,0.0,0.0,0.0,0.0,0.0,0.0,0.0,0.0,0.0,0.0,0.0,0.0,0.0,0.0,0.0,0.0,0.0,0.0,0.0,0.0,0.0,-2.0717,-2.2231,-2.2765,-2.3564,-2.3946,0.0,0.0,0.0,0.0,0.0,0.0,0.0,0.0,0.0,-2.8979,-2.8429,-2.8684,-2.9849,-2.9517,-2.9536,-2.9901,-3.019,-3.0394,-3.0493,-3.0175,-2.9798,-2.9417,-2.9086,-2.8211,-2.7015,-2.7444,-2.7242,-2.6621,0.0,0.0,0.0,0.0,0.0,-2.4716,-2.5875,-2.5771,0.0,0.0,0.0,0.0,0.0,0.0,0.0,0.0,0.0,0.0,0.0,0.0,0.0,-2.6388,-2.622,-2.5961,-2.5688,-2.4738,-2.3905,0.0,-2.2933,-2.2283,-2.2167,0.0,0.0,0.0,0.0,0.0,-2.1256,-2.2022,-2.2686,-2.3068,-2.3858,-2.465,-2.5369,-2.5354,-2.5032,-2.4525,-2.374,-2.2856,-2.1795,-2.1118,-2.0455,0.0,0.0,0.0,0.0,0.0,0.0,0.0,0.0,0.0,0.0,0.0,0.0,0.0,0.0,0.0,0.0,0.0,0.0,0.0,0.0,0.0,0.0,0.0,0.0,0.0,0.0,0.0,0.0,-2.2042,-2.3176,-2.3933,-2.4569,-2.4789,0.0,0.0,0.0,0.0,0.0,0.0,-2.7893,-2.8009,-2.8679,-3.0056,-2.9457,-2.9512,-3.0308,-2.9692,-2.9591,-3.0107,-3.0107,-3.0279,-3.0589,-3.0137,-2.9678,-2.9146,-2.8592,-2.7987,-2.7431,-2.7494,-2.7501,-2.7343,-2.6188,-2.5637,-2.554,-2.6022,-2.5848,-2.5559,-2.6587,-2.657,-2.5992,-2.5269,0.0,-2.4298,-2.2553,0.0,0.0,0.0,0.0,-2.5052,-2.6081,-2.6337,-2.6401,-2.6742,-2.6486,-2.6044,-2.555,-2.5032,-2.4632,0.0,-2.3808,-2.3027,-2.2706,0.0,0.0,0.0,0.0,-2.1249,-2.1158,-2.1606,-2.2098,-2.2606,-2.2933,-2.347,-2.4439,-2.4253,-2.3963,-2.361,-2.3284,-2.2702,-2.1793,-2.1463,-2.1016,0.0,0.0,0.0,0.0,0.0,0.0,0.0,0.0,0.0,0.0,0.0,0.0,0.0,0.0,0.0,0.0,0.0,0.0,0.0,0.0,0.0,0.0,0.0,0.0,0.0,0.0,0.0,0.0,0.0,0.0,-2.6084,-2.5665,0.0,0.0,0.0,0.0,-2.6717,-2.8124,-2.9046,-2.9363,-2.9701,-2.9764,-2.9567,-2.8967,-2.9211,-3.038,-2.9791,-2.9534,-2.9521,-2.9521,-2.9263,-2.871,-2.8685,-2.8672,-2.861,-2.8081,-2.7802,-2.7763,-2.7457,-2.719,-2.7003,-2.695,-2.6565,-2.6096,-2.6535,-2.6401,-2.614,-2.6574,-2.6455,-2.6184,-2.6696,-2.6153,-2.5211,-2.4887,-2.4556,0.0,0.0,-2.5569,-2.6171,-2.6785,-2.6939,-2.6811,-2.6345,-2.6237,-2.6044,-2.5422,-2.489,-2.4447,0.0,-2.3631,-2.3341,-2.3838,0.0,-2.2094,-2.2194,-2.1683,-2.1151,-2.0784,-2.1129,-2.1447,-2.1488,-2.2453,-2.3118,-2.3188,-2.3745,-2.3655,-2.2563,-2.2863,-2.2401,-2.085,-2.1177,-2.1084,-2.0414,-1.9723,0.0,0.0,0.0,0.0,0.0,0.0,0.0,0.0,0.0,0.0,0.0,0.0,0.0,0.0,0.0,0.0,0.0,0.0,0.0,0.0,0.0,0.0,0.0,0.0,0.0,0.0,0.0,0.0,-2.6101,-2.6614,0.0,0.0,-2.6696,-2.7024,-2.7454,-2.8304,-2.8993,-2.9481,-2.9954,-3.031,-3.0586,-3.0714,-3.0996,-3.1445,-3.0894,-3.0599,-3.0599,-3.024,-2.9958,-2.974,-2.9345,-2.9178,-2.9153,-2.8564,-2.8058,-2.7656,-2.7535,-2.7318,-2.6991,-2.6878,-2.667,-2.647,-2.6555,-2.6477,-2.6392,-2.6526,-2.6497,-2.6392,-2.6607,-2.6139,-2.5474,-2.5408,-2.527,-2.5221,-2.5411,-2.5911,-2.6405,-2.662,-2.6671,-2.6519,-2.5949,-2.5557,-2.5152,-2.4709,-2.4167,-2.3782,-2.3785,-2.3609,-2.3396,-2.3248,-2.2843,-2.2321,-2.1616,-2.1316,-2.1029,-2.0614,-2.0724,-2.0848,-2.0947,-2.1305,-2.1711,-2.2037,-2.1978,-2.1889,-2.1822,-2.1639,-2.1271,-2.06,-2.0799,-2.0743,-2.0284,-1.9784,-1.9048,0.0,0.0,0.0,0.0,0.0,0.0,0.0,0.0,0.0,0.0,0.0,0.0,0.0,0.0,0.0,0.0,0.0,0.0,0.0,0.0,0.0,0.0,0.0,0.0,0.0,0.0,-2.5052,-2.6274,-2.7045,-2.7528,-2.7669,-2.8155,-2.8615,-2.8983,-2.9413,-2.9859,-3.0393,-3.0648,-3.0916,-3.1272,-3.1601,-3.1805,-3.1805,-3.1436,-3.1196,-3.0978,-3.0648,-3.0368,-3.0177,-2.977,-2.9605,-2.9567,-2.8945,-2.8464,-2.8014,-2.7837,-2.7604,-2.7329,-2.6844,-2.6624,-2.6624,-2.6521,-2.6499,-2.6499,-2.6499,-2.6314,-2.6129,-2.6418,-2.5868,-2.5137,-2.5435,-2.5503,-2.5503,-2.5503,-2.598,-2.6499,-2.6499,-2.6348,-2.6059,-2.5473,-2.4933,-2.4381,-2.3939,-2.3566,-2.333,-2.3407,-2.3526,-2.3483,-2.3129,-2.3065,-2.2744,-2.1809,-2.1514,-2.1207,-2.0746,-2.0527,-2.0423,-2.0524,-2.0524,-2.0679,-2.103,-2.0795,-2.0768,-2.103,-2.0795,-2.0562,-2.041,-2.0342,-2.0329,-2.0296,-1.9799,-1.903,-1.7963,0.0,0.0,0.0,0.0,0.0,0.0,0.0,0.0,0.0,0.0,0.0,0.0,0.0,0.0,0.0,0.0,0.0,0.0,0.0,0.0,0.0,0.0,0.0,-2.3115,-2.3676,-2.4777,-2.6841,-2.6949,-2.7505,-2.905,-2.9605,-3.0269,-3.1311,-3.1574,-3.1842,-3.2164,-3.1877,-3.164,-3.1411,-3.1436,-3.1436,-3.1436,-3.1424,-3.116,-3.0633,-3.062,-3.0331,-2.9792,-2.9792,-2.9792,-2.9767,-2.9202,-2.8913,-2.885,-2.8348,-2.8085,-2.796,-2.6939,-2.6524,-2.649,-2.6465,-2.6465,-2.6418,-2.6418,-2.5921,-2.5382,-2.6164,-2.5358,-2.4264,-2.5052,-2.5264,-2.5264,-2.5264,-2.5804,-2.6418,-2.6418,-2.5991,-2.5394,-2.4881,-2.433,-2.3779,-2.319,-2.3047,-2.3047,-2.3047,-2.3288,-2.3539,-2.3569,-2.3586,-2.3407,-2.2872,-2.2268,0.0,-2.1128,-2.0527,-2.0169,-2.0182,-2.0195,-2.0207,-2.0207,-2.0373,-2.0411,-2.0182,-2.0334,-2.036,-2.0182,-1.9808,-1.9856,-2.0449,-1.9759,-1.8963,-1.8147,0.0,0.0,0.0,0.0,0.0,0.0,0.0,0.0,0.0,0.0,0.0,0.0,0.0,0.0,0.0,0.0,0.0,0.0,0.0,0.0,0.0,0.0,-2.2301,-2.36,-2.4426,-2.529,-2.6387,-2.7759,-2.8814,-2.9239,-3.0288,-3.1072,-3.1361,-3.1439,-3.1502,-3.1612,-3.1905,-3.203,-3.1989,-3.239,-3.2616,-3.2616,-3.2202,-3.1712,-3.1173,-3.0796,-3.0331,-2.9792,-2.9792,-2.9792,-2.9779,-2.9628,-2.9315,-2.8888,-2.8725,-2.8077,-2.7138,-2.7105,-2.6725,-2.6164,-2.5775,-2.5252,-2.4767,-2.4767,-2.4624,-2.448,-2.4707,-2.448,-2.4145,-2.4373,-2.4409,-2.4409,-2.4409,-2.4588,-2.4767,-2.4767,-2.4425,-2.4043,-2.3932,-2.3194,-2.2464,-2.2388,-2.199,-2.1659,-2.1659,-2.1721,-2.2094,-2.3078,-2.3228,-2.3069,-2.2513,-2.1886,0.0,-2.0412,-1.9721,-1.9387,-1.9603,-1.9966,-2.0176,-2.0135,-2.0202,-2.0042,0.0,-1.9209,-1.9119,-1.9328,-1.9306,-1.9513,-1.9912,-1.9277,-1.9002,0.0,0.0,0.0,0.0,0.0,0.0,0.0,0.0,0.0,0.0,0.0,0.0,0.0,0.0,0.0,0.0,0.0,0.0,0.0,0.0,0.0,0.0,-2.2522,-2.3288,-2.4335,-2.4586,-2.5003,-2.5994,-2.7673,-2.9011,-2.9556,-3.0906,-3.1838,-3.2077,-3.2102,-3.2102,-3.2102,-3.2403,-3.2579,-3.2579,-3.2905,-3.3124,-3.3124,-3.2742,-3.2177,-3.1386,-3.1085,-3.0532,-2.9792,-2.9792,-2.9792,0.0,-2.9792,-2.9398,-2.8716,-2.8716,-2.8007,0.0,0.0,0.0,0.0,0.0,-2.448,-2.4108,-2.4108,-2.3913,-2.3694,-2.4011,-2.3647,-2.3217,-2.3559,-2.3632,-2.3632,-2.3632,-2.3866,-2.4108,-2.4108,-2.3616,-2.311,-2.3181,-2.2362,-2.1585,-2.1643,-2.1365,-2.1092,-2.1092,0.0,0.0,-2.2137,-2.2261,-2.2152,-2.1838,-2.1265,-2.0688,-2.0186,-1.9587,-1.9274,-1.9428,-1.9722,-1.9884,-1.9856,-1.9929,0.0,0.0,0.0,-1.8983,-1.8924,-1.9234,0.0,0.0,0.0,0.0,0.0,0.0,0.0,0.0,-2.0245,-2.0785,0.0,0.0,0.0,0.0,0.0,0.0,0.0,0.0,0.0,0.0,0.0,0.0,0.0,0.0,0.0,0.0,-2.4053,-2.4691,-2.5199,-2.4612,-2.4525,-2.5687,-2.711,-2.8487,-2.9737,-3.1155,-3.2207,-3.2717,-3.2853,-3.2896,-3.2797,0.0,0.0,0.0,0.0,-3.2797,-3.2939,-3.2939,-3.2419,-3.1386,-3.1386,-3.0834,-2.9792,-2.9714,-2.9663,-2.9663,-2.9546,-2.9052,-2.8331,-2.8331,-2.7758,-2.6885,-2.6705,-2.5777,-2.4559,-2.4067,-2.3838,0.0,-2.3756,0.0,0.0,-2.3548,-2.2857,-2.1883,-2.259,-2.2815,-2.2815,-2.2815,-2.3265,-2.3756,-2.3756,-2.3045,-2.2321,-2.2389,-2.1583,-2.0837,-2.0933,-2.0901,-2.0837,-2.0869,-2.0869,-2.0869,-2.0869,-2.0996,-2.1092,-2.1092,-2.062,-2.025,-2.0205,-1.9716,-1.9392,-1.9395,0.0,0.0,-1.9474,-1.96,-1.957,-1.9384,-1.9481,-1.9306,-1.8787,-1.9386,-1.9582,-1.9349,-1.9944,-2.0304,-2.0467,-2.0917,-2.1145,-2.1155,-2.0743,-2.1287,0.0,0.0,0.0,0.0,0.0,0.0,0.0,0.0,0.0,0.0,0.0,0.0,0.0,0.0,0.0,-2.4214,-2.4615,-2.4968,-2.5689,-2.5606,-2.5612,-2.5863,-2.7113,-2.811,-2.8377,-2.9722,-3.065,-3.0744,-3.1436,-3.1581,-3.08,-3.1492,0.0,-3.0756,-3.0756,-3.1113,-3.1901,-3.1901,-3.1712,-3.1386,0.0,0.0,-2.9792,-2.9079,-2.8752,-2.8712,-2.7931,-2.7516,-2.7354,-2.7354,-2.6771,-2.5806,-2.5602,-2.4708,-2.3492,-2.2822,-2.2223,-2.1749,-2.1749,-2.1683,-2.1578,-2.1721,-2.1568,-2.1359,-2.1502,-2.154,0.0,-2.154,-2.1645,-2.1749,-2.1749,-2.1077,-2.0563,-2.1096,-2.0083,-1.9198,-1.9901,-1.9616,-1.9297,-1.9462,-1.9495,-1.9495,-1.9495,-2.0387,-2.1092,-2.1092,-2.0566,-2.0015,-1.9607,-1.9017,-1.8657,-1.8758,-1.9157,-1.9388,-1.9337,-1.9419,-1.9233,-1.8649,-1.8649,-1.8606,-1.849,-1.9337,-1.9767,-1.9693,-2.0132,-2.0563,-2.0943,-2.1073,-2.1311,-2.1662,-2.156,-2.1676,0.0,0.0,0.0,0.0,0.0,0.0,0.0,0.0,0.0,0.0,0.0,-2.1817,-2.3033,0.0,-2.3687,-2.5078,-2.5305,-2.5503,-2.6135,-2.63,-2.6264,-2.5937,-2.7123,-2.7992,-2.7992,-2.9331,-3.0215,-3.0215,-3.0621,-3.0666,-3.0215,-3.0621,-3.0666,-3.0215,-3.0215,-3.0441,-3.089,-3.0902,-3.0592,-3.0067,-3.0067,-2.9431,-2.8303,-2.7839,-2.7597,-2.7464,-2.7017,-2.6513,-2.6058,-2.561,-2.5126,-2.4648,-2.4546,-2.3991,-2.3161,-2.2299,-2.1797,-2.1458,-2.1286,-2.1205,-2.1205,-2.1205,-2.1205,-2.1205,-2.1205,-2.1205,-2.1205,-2.1205,-2.1205,-2.1205,-2.1205,-2.0551,-1.9985,-2.0324,-1.9426,-1.8617,-1.9065,-1.8965,-1.8841,-1.8942,-1.9042,-1.9108,-1.9108,-1.9649,-2.0096,-2.0096,-1.9813,-1.9498,-1.9297,-1.8951,-1.876,-1.8839,-1.9094,-1.9233,-1.9211,-1.9233,-1.9103,-1.8756,-1.8756,-1.8756,-1.8756,-1.943,-1.9896,-2.0089,-2.0534,-2.1,-2.1455,-2.1455,-2.158,-2.1807,-2.1807,-2.1807,0.0,0.0,0.0,0.0,0.0,0.0,0.0,0.0,-2.0791,-2.2109,-2.2646,-2.3159,-2.4112,-2.4305,-2.4653,-2.5681,-2.5859,-2.5989,-2.6446,-2.6699,-2.6584,-2.5976,-2.7034,-2.7872,-2.7872,-2.8943,-2.9624,-2.9624,-2.9806,-2.9852,-2.9669,-2.9806,-2.9806,-2.9578,-2.9578,-2.9624,-2.9738,-2.9738,-2.9386,-2.8662,-2.8603,-2.7949,-2.6866,-2.6599,-2.6389,-2.6224,-2.6069,-2.5568,-2.4798,-2.4079,-2.3797,-2.3754,-2.3754,-2.3501,-2.31,-2.229,-2.188,-2.165,-2.1301,-2.1159,-2.1089,-2.1089,-2.1089,-2.1089,-2.1089,-2.1089,-2.1089,-2.1089,-2.1089,-2.1089,-2.1089,-2.0439,-1.9779,-1.9779,-1.9099,-1.8414,-1.8448,-1.8573,-1.8707,-1.8741,-1.8875,-1.8975,-1.8975,-1.8975,-1.9008,-1.9108,-1.9108,-1.9108,-1.9108,-1.9108,-1.9108,-1.9108,-1.9108,-1.9108,-1.9108,-1.9108,-1.9108,-1.9108,-1.9108,-1.9139,-1.9233,-1.9679,-2.01,-2.0519,-2.101,-2.1435,-2.1807,-2.1807,-2.1807,-2.1807,-2.1807,-2.1807,-1.688,-1.6992,-1.726,-1.8316,-1.8637,-1.9261,0.0,0.0,-2.2588,-2.3867,-2.417,-2.4355,-2.4881,-2.4969,-2.522,-2.5942,-2.6069,-2.6186,-2.6448,-2.6554,-2.6363,-2.5859,-2.6759,-2.7369,-2.7369,-2.7505,-2.7631,-2.7631,-2.8398,-2.8491,-2.7668,-2.8398,-2.8362,-2.7309,-2.7262,-2.7563,-2.8157,-2.8147,-2.8305,-2.8634,-2.8185,-2.7691,-2.7015,-2.5814,-2.5294,-2.521,-2.4445,-2.4046,-2.396,-2.3841,-2.3667,-2.3547,-2.3547,-2.3377,-2.3095,-2.2846,-2.2142,-2.1261,-2.1222,-2.0977,-2.0683,-2.0683,-2.0683,-2.0683,-2.0683,-2.0683,-2.0683,-2.0683,-2.0683,-2.0683,-2.0683,-2.0007,-1.937,-1.937,-1.8703,-1.811,-1.8269,-1.8337,-1.8371,-1.8516,-1.8549,-1.8583,-1.8583,-1.8583,-1.8674,-1.9042,-1.9108,-1.9108,-1.9108,-1.9108,-1.9108,-1.9108,-1.9108,-1.9108,-1.9108,-1.9108,-1.9108,-1.9108,-1.9108,-1.9285,-1.9699,-2.012,-2.0565,-2.1031,-2.1487,-2.1756,-2.1807,-2.1807,-2.1807,-2.1807,-2.1807,-2.1807,-1.7324,-1.7759,-1.8046,0.0,-1.9236,-1.9817,-2.1053,-2.2035,-2.2913,-2.3721,-2.4564,-2.5244,-2.542,-2.5459,-2.5566,0.0,-2.5868,-2.5927,-2.6024,-2.5988,-2.5854,-2.5664,-2.6088,-2.6482,-2.666,-2.7049,-2.7214,-2.7081,-2.7441,-2.7394,-2.688,-2.7204,-2.7204,-2.6699,-2.6651,-2.6774,-2.7078,-2.7078,-2.7029,-2.6978,-2.6788,-2.6214,-2.5326,-2.4779,-2.4303,-2.393,-2.356,-2.3396,-2.3396,-2.3396,-2.3363,-2.3276,-2.3276,-2.3188,-2.3042,-2.2761,-2.2369,-2.1902,-2.1699,-2.1328,-2.0957,-2.0957,-2.0781,-2.0605,-2.0605,-2.0605,-2.0605,-2.0605,-2.0605,-2.0605,-2.0605,-2.0145,-1.9648,-1.9648,-1.8994,-1.8447,-1.8797,-1.8755,-1.876,-1.9073,-1.8685,-1.828,-1.828,-1.7687,-1.7285,-1.7448,-1.8216,-1.8741,-1.8741,-1.8841,-1.8975,-1.9108,-1.9008,-1.8942,-1.8942,-1.8808,-1.8741,-1.8741,-1.8741,-1.8944,-1.9437,-1.9885,-2.0297,-2.0744,-2.1202,-2.1464,-2.1464,-2.1464,-2.1464,-2.1464,-2.1464,-2.1502,-1.731,-1.7763,0.0,-1.8508,-1.911,-1.9724,-2.0145,-2.1301,-2.2409,-2.2862,-2.3816,-2.4658,-2.5024,-2.5102,-2.5237,-2.5616,-2.5693,-2.5693,-2.5693,-2.5495,-2.5409,-2.5409,-2.5597,-2.5775,-2.5999,-2.6652,-2.6976,-2.6794,-2.6805,-2.6699,-2.6496,-2.6496,-2.6448,-2.64,-2.64,-2.6352,-2.6265,-2.6265,-2.6096,-2.5777,-2.5647,-2.5096,-2.4171,-2.3935,-2.356,-2.3091,-2.3091,-2.3091,-2.3091,-2.3091,-2.3091,-2.3091,-2.3091,-2.3091,-2.3062,-2.275,-2.2607,-2.2471,-2.2168,-2.1777,-2.1356,-2.1239,-2.1016,-2.0723,-2.0644,-2.0605,-2.0605,-2.0605,-2.0605,-2.0605,-2.0605,-2.0244,-1.9837,-1.961,-1.8969,-1.8457,-1.8543,-1.8436,-1.8385,-1.8745,-1.8209,-1.7705,-1.7705,-1.6992,-1.6412,-1.6412,-1.725,-1.7944,-1.8178,-1.8317,-1.8385,-1.8341,-1.8216,-1.8114,-1.8114,-1.7978,-1.7876,-1.7876,-1.7993,-1.8211,-1.8673,-1.91,-1.9537,-1.9954,-2.0313,-2.0469,-2.0469,-2.0469,-2.0469,-2.0469,-2.0469,-2.0547,0.0,0.0,-1.6146,-1.6817,-1.765,-1.8544,-1.9286,-2.0245,-2.1057,-2.1484,-2.1618,-2.2026,-2.3428,-2.3646,-2.4131,-2.547,-2.5693,-2.5693,-2.5693,-2.5352,-2.5116,-2.5116,-2.5362,-2.5503,0.0,-2.6139,-2.6496,-2.6496,-2.6496,-2.6496,-2.6496,-2.6496,-2.64,-2.61,-2.6091,-2.6014,-2.5732,-2.5732,-2.5732,-2.5713,-2.5321,-2.4881,-2.4365,-2.3535,-2.311,-2.3091,-2.3091,-2.3091,-2.3091,-2.3091,-2.3091,-2.3091,-2.3091,-2.3091,-2.3091,-2.3081,-2.2818,-2.251,-2.25,-2.2217,-2.1797,-2.1327,-2.1181,-2.1093,-2.0742,-2.0605,-2.0605,-2.0605,-2.0605,-2.0605,-2.0605,-2.0244,-1.9686,-1.884,-1.8319,-1.7786,-1.6951,-1.6754,-1.6754,-1.68,-1.6754,-1.6745,-1.6745,-1.6699,-1.6699,-1.6699,-1.6459,-1.6553,-1.7314,-1.7438,-1.7164,-1.6472,-1.6376,-1.6376,-1.6376,-1.6376,-1.6376,-1.6376,-1.6661,-1.7033,-1.7425,-1.7778,-1.8177,-1.8656,-1.8674,-1.8674,-1.8674,-1.8674,-1.8674,-1.8674,-1.8674,-1.8674,-1.5796,0.0,-1.6638,-1.7062,-1.7559,-1.811,-1.8554,-1.9461,-2.0254,-2.0425,-2.0872,-2.1426,-2.2095,-2.2804,-2.3482,-2.417,-2.5082,-2.5693,-2.5693,-2.5352,-2.5116,-2.5116,-2.5163,0.0,0.0,0.0,0.0,-2.6245,-2.6245,-2.6159,-2.5975,-2.5975,-2.5927,-2.583,-2.582,-2.5781,-2.5693,-2.5693,-2.5693,-2.5674,-2.499,-2.456,-2.4385,-2.3481,-2.3091,-2.3091,-2.3091,-2.3091,-2.3091,-2.3091,-2.3091,-2.3091,-2.3091,-2.3091,-2.3003,-2.2413,-2.2108,-2.2083,-2.266,-2.2613,-2.2275,-2.2129,-2.1658,-2.1161,-2.1055,-2.0801,-2.0479,-1.9893,-1.9736,-1.9618,-1.9045,-1.8739,-1.8562,-1.8285,-1.7878,-1.7591,-1.7569,-1.7354,-1.7252,-1.749,-1.6907,-1.639,-1.639,-1.5747,-1.5227,-1.5227,-1.5785,-1.6273,-1.6447,-1.6454,-1.6428,-1.6298,-1.6193,-1.6114,-1.6114,-1.6182,-1.623,-1.623,-1.6555,-1.6934,-1.7372,-1.7519,-1.7761,-1.8172,-1.8189,-1.8189,-1.8189,-1.8189,-1.8189,-1.8189,-1.8189,-1.8261,-1.6104,-1.655,-1.6976,-1.7252,-1.7439,-1.7699,-1.7904,-1.8472,-1.8954,-1.883,-1.923,-1.9782,-2.034,-2.1003,-2.1881,-2.3218,-2.4202,-2.4832,-2.508,-2.5092,-2.5022,-2.4775,-2.4966,-2.5174,0.0,0.0,0.0,-2.5965,-2.5965,-2.5868,-2.5684,-2.5693,-2.5693,-2.5693,-2.5693,-2.5693,-2.5693,-2.5693,-2.5693,-2.5674,-2.5,-2.457,-2.4394,-2.3647,-2.3061,-2.2599,-2.2599,-2.2413,-2.205,-2.205,-2.205,-2.205,-2.205,-2.205,-2.2006,-2.1373,-2.115,-2.1239,-2.1863,-2.1882,-2.164,-2.15,-2.1099,-2.0573,-2.0326,-2.0037,-1.9715,-1.9011,-1.8856,-1.8727,-1.8158,-1.7997,-1.7917,-1.7594,-1.7338,-1.715,-1.7066,-1.6863,-1.6766,-1.7033,-1.6443,-1.589,-1.589,-1.5295,-1.4772,-1.4655,-1.525,-1.5689,-1.5507,-1.5705,-1.5814,-1.5685,-1.5531,-1.545,-1.545,-1.5531,-1.5595,-1.5595,-1.5896,-1.6186,-1.6499,-1.6628,-1.6806,-1.7074,-1.7074,-1.7074,-1.7074,-1.7074,-1.7074,-1.7074,-1.7074,-1.7155,-1.6815,-1.691,-1.6998,-1.7252,-1.7279,-1.7279,-1.7279,-1.7271,-1.7216,-1.6961,-1.6873,-1.7168,-1.8187,0.0,-1.9509,-2.2452,-2.298,-2.3283,-2.3938,-2.4581,-2.4785,0.0,0.0,0.0,0.0,0.0,0.0,-2.5723,0.0,-2.5693,-2.5693,-2.5693,-2.5693,-2.5693,-2.5693,-2.5693,-2.5693,-2.5693,-2.5693,-2.5684,-2.5235,-2.4787,-2.4302,-2.3839,-2.291,-2.1606,-2.1606,-2.1105,-2.0187,-2.0187,-2.0187,-2.0187,-2.0187,-2.0187,-2.0187,-2.0141,-2.0141,-2.0096,-2.0051,-2.0096,-2.0127,-1.9732,-1.9613,-1.9468,-1.8752,-1.8513,-1.8411,-1.8044,-1.7934,-1.7917,-1.7876,-1.7876,-1.7674,-1.6821,-1.6617,-1.6419,-1.559,-1.5389,-1.5389,-1.5389,-1.5389,-1.5389,-1.5389,-1.5389,-1.5279,-1.4973,-1.4929,-1.4805,-1.4555,-1.5103,-1.5289,-1.4582,-1.4511,-1.4511,-1.4511,-1.4526,-1.4533,-1.4533,-1.4794,-1.4929,-1.4929,-1.5221,-1.5389,-1.5389,-1.5389,-1.5389,-1.5389,-1.5389,-1.5389,-1.5389,-1.5389,-1.5389,-1.6815,-1.7026,-1.7223,-1.7264,-1.7279,-1.7279,-1.7279,-1.715,-1.6998,-1.6917,-1.6484,-1.6308,-1.6839,0.0,0.0,-2.0193,-2.1653,0.0,-2.2859,-2.3252,0.0,-2.4505,0.0,-2.5556,-2.6569,-2.6689,0.0,0.0,-2.5918,-2.5693,-2.5693,-2.5693,-2.5693,-2.5693,-2.5693,-2.5693,-2.5693,-2.5693,-2.5693,-2.5684,-2.4496,-2.3719,-2.3308,-2.2049,-2.1151,-2.0593,-2.0593,-2.0458,-2.0187,-2.0187,-2.0187,-2.0187,-2.0187,-2.0187,-2.0096,-1.9422,-1.9155,-1.9063,-1.828,-1.901,-2.0169,-2.0075,-1.9817,-1.9562,-1.9366,-1.8922,-1.8337,-1.7613,-1.7228,-1.6862,-1.6229,-1.6072,-1.5989,-1.579,-1.5748,-1.5665,-1.5465,-1.5389,-1.5389,-1.5389,-1.5389,-1.5389,-1.5389,-1.5389,-1.536,-1.5272,-1.5265,-1.5101,-1.4577,-1.4652,-1.4691,-1.4511,-1.4511,-1.4511,-1.4511,-1.4684,-1.4783,-1.4783,-1.5082,-1.5265,-1.5265,-1.5345,-1.5389,-1.5389,-1.5389,-1.5389,-1.5389,-1.5389,-1.5389,-1.5389,-1.5389,-1.5389,-1.6974,-1.7194,-1.7279,-1.7279,-1.7279,-1.7296,-1.715,-1.7027,-1.6822,-1.6499,-1.6162,0.0,-1.595,0.0,0.0,0.0,0.0,0.0,-2.1959,-2.2704,-2.3306,0.0,-2.407,0.0,-2.542,-2.5481,-2.538,0.0,-2.5643,-2.5937,-2.5703,-2.5274,-2.502,-2.502,-2.452,-2.4313,-2.4313,-2.4313,-2.4313,-2.4313,-2.3475,-2.277,-2.2265,-2.1384,-2.0475,-1.9604,0.0,-1.933,-1.8918,-1.8918,-1.8918,-1.8918,-1.8918,-1.8918,-1.8872,-1.8334,-1.8149,-1.8056,-1.7512,-1.801,-1.8918,-1.8918,-1.8782,-1.856,-1.8454,-1.8133,-1.766,-1.7036,-1.6622,-1.6244,-1.5762,-1.5491,-1.5389,-1.5389,-1.5389,-1.5389,-1.5389,-1.5389,-1.5389,-1.5389,-1.5389,-1.5389,-1.5389,-1.5389,-1.5389,-1.5389,-1.5389,-1.5299,-1.494,-1.4889,-1.4889,-1.4889,-1.4889,-1.4889,-1.4889,-1.5017,-1.5119,-1.5119,-1.5287,-1.5389,-1.5389,-1.5389,-1.5389,-1.5389,-1.5389,-1.5389,-1.5389,-1.5389,-1.5389,-1.5389,-1.5389,-1.5389,-1.7252,-1.7279,-1.7279,-1.7279,-1.7279,-1.7245,-1.6969,-1.6866,-1.6668,-1.6038,0.0,-1.5725,-1.544,-1.5731,-1.6572,-1.8446,0.0,-2.0053,-2.1058,-2.2286,-2.279,-2.1989,-2.2782,-2.351,-2.3662,-2.3662,-2.3644,-2.3593,-2.5084,-2.5822,-2.539,-2.443,-2.389,-2.389,-2.2994,-2.2484,-2.2484,-2.2484,-2.2484,-2.2484,-2.2341,-2.1926,-2.1247,-2.1061,-2.0136,-1.8674,0.0,0.0,-1.7279,-1.7279,-1.7279,-1.7279,-1.7279,-1.7279,-1.7279,-1.7279,-1.7279,-1.7279,-1.7279,-1.7279,-1.7279,-1.7279,-1.7279,-1.7274,-1.7004,-1.6932,-1.6837,-1.6558,-1.6213,-1.5965,-1.5928,-1.5659,-1.544,-1.5396,-1.5389,-1.5389,-1.5389,-1.5389,-1.5389,-1.5389,-1.5389,-1.5389,-1.5389,-1.5389,-1.5389,-1.5389,-1.5389,-1.5389,-1.5389,-1.5389,-1.5389,-1.5389,-1.5389,-1.5389,-1.5389,-1.5389,-1.5389,-1.5389,-1.5389,-1.5389,-1.5389,-1.5389,-1.5389,-1.5389,-1.5389,-1.5389,-1.5389,-1.5389,-1.5389,-1.5389,-1.5389,-1.5389,-1.7311,-1.7279,-1.7279,-1.7279,-1.7279,-1.7245,-1.6969,-1.669,0.0,0.0,-1.5701,-1.5455,-1.5396,-1.5899,-1.6603,-1.744,0.0,0.0,0.0,0.0,-2.1185,0.0,0.0,0.0,0.0,0.0,0.0,0.0,0.0,0.0,-2.3493,-2.3018,-2.2785,-2.2785,-2.2584,-2.2484,-2.2484,-2.2484,-2.2484,-2.2492,-2.1582,-2.0966,-2.0547,-1.939,-1.8525,-1.7945,0.0,0.0,-1.7279,-1.7279,-1.7279,-1.7279,-1.7279,-1.7279,-1.7279,-1.7279,-1.7279,-1.7279,-1.7279,-1.7279,-1.7279,-1.7279,-1.7279,-1.7271,-1.726,-1.7062,-1.6888,-1.6829,-1.658,-1.6235,-1.5979,-1.5877,-1.5717,-1.5455,-1.5389,-1.5389,-1.5389,-1.5389,-1.5389,-1.5389,-1.5389,-1.5389,-1.5389,-1.5389,-1.5389,-1.5389,-1.5389,-1.5389,-1.5389,-1.5389,-1.5389,-1.5389,-1.5389,-1.5389,-1.5389,-1.5389,-1.5389,-1.5389,-1.5389,-1.5389,-1.5389,-1.5389,-1.5389,-1.5389,-1.5389,-1.5389,-1.5389,-1.5389,-1.5389,-1.5389,-1.5389,-1.5389,-1.7279,-1.7279,-1.7279,-1.7279,-1.7279,-1.7201,-1.6756,0.0,0.0,0.0,-1.5498,-1.5389,-1.5389,0.0,0.0,0.0,0.0,0.0,0.0,0.0,0.0,0.0,0.0,0.0,0.0,0.0,0.0,0.0,0.0,0.0,-2.298,-2.2138,-2.1438,-2.0834,-2.0834,-2.0834,-2.0834,-2.0834,-2.0834,-2.0834,-2.0328,-1.9903,-1.9517,-1.8872,-1.8284,-1.7808,-1.7647,0.0,-1.7279,-1.7279,-1.7279,-1.7279,-1.7279,-1.7239,-1.7153,-1.7153,-1.7059,-1.6958,-1.6958,-1.6958,-1.6958,-1.6958,-1.7099,-1.7279,-1.7279,-1.7223,-1.7106,-1.6975,-1.6697,-1.6414,-1.627,-1.6066,-1.5901,-1.5717,-1.5513,-1.5298,-1.495,-1.4873,-1.479,-1.4412,-1.437,-1.437,-1.437,-1.437,-1.437,-1.437,-1.437,-1.437,-1.437,-1.4657,-1.4999,-1.5347,-1.5389,-1.5389,-1.5389,-1.5389,-1.5389,-1.5389,-1.5389,-1.5389,-1.5389,-1.5389,-1.5389,-1.5389,-1.5389,-1.5389,-1.5389,-1.5389,-1.5389,-1.5389,-1.5389,-1.5389,-1.7286,-1.7279,-1.7279,-1.7279,-1.7279,-1.7157,-1.6558,-1.6411,0.0,0.0,-1.5389,-1.5389,-1.5389,0.0,-1.5935,0.0,0.0,0.0,0.0,0.0,0.0,0.0,0.0,0.0,0.0,0.0,0.0,0.0,0.0,0.0,-2.227,-2.1179,-2.0181,-1.9331,-1.9279,-1.9279,-1.9279,-1.9279,-1.9279,-1.9279,-1.9279,-1.914,-1.884,-1.8775,-1.8411,-1.7826,-1.7753,0.0,0.0,-1.724,-1.7203,-1.7138,-1.7138,-1.7059,-1.6925,-1.6925,-1.6777,-1.6588,-1.6588,-1.6588,-1.6588,-1.6588,-1.6864,-1.7138,-1.7138,-1.7138,-1.7099,-1.6972,-1.67,-1.6494,-1.643,-1.6042,-1.5589,-1.5283,-1.4976,-1.4625,-1.4107,-1.3979,-1.3831,-1.3273,-1.3175,-1.3156,-1.31,-1.3082,-1.3082,-1.3082,-1.3173,-1.3258,-1.3258,-1.3808,-1.4405,-1.4922,-1.509,-1.5131,-1.4964,-1.4964,-1.4964,-1.4964,-1.4964,-1.5048,-1.5173,-1.5173,-1.5257,-1.5389,-1.5389,-1.5389,-1.5389,-1.5389,-1.534,-1.5173,-1.5173,-1.5125,-1.7138,-1.7279,-1.7279,-1.7279,-1.7279,-1.7157,-1.6558,0.0,0.0,-1.5562,-1.5389,-1.5389,-1.5389,-1.5411,-1.5672,-1.6316,0.0,-1.7504,0.0,0.0,0.0,0.0,0.0,0.0,0.0,0.0,0.0,0.0,0.0,0.0,0.0,-1.9657,-1.9376,-1.9279,-1.9279,-1.9279,-1.9279,-1.9279,-1.9279,-1.9279,-1.9279,-1.916,-1.8871,-1.8577,-1.8252,-1.7971,0.0,0.0,0.0,-1.7043,-1.6881,-1.6676,-1.6676,-1.6629,-1.6636,-1.6636,-1.6629,-1.6588,-1.6588,-1.6588,-1.6588,-1.6588,-1.6636,-1.6676,-1.6676,-1.6676,-1.6676,-1.6636,-1.6615,-1.6523,-1.6243,-1.5449,-1.4419,-1.3121,-1.2767,-1.275,-1.2705,-1.266,-1.2597,-1.243,-1.2384,-1.2353,-1.216,-1.2114,-1.2114,-1.2114,-1.2504,-1.276,-1.276,-1.3209,-1.3525,-1.3568,-1.4153,-1.423,-1.3646,-1.3568,-1.3568,-1.3568,-1.3568,-1.3857,-1.4482,-1.4482,-1.4783,-1.5389,-1.5389,-1.5389,-1.5389,-1.5389,-1.5082,-1.4482,-1.4482,-1.4244,-1.6378,-1.6615,-1.6756,-1.7185,-1.7186,-1.6923,-1.6514,0.0,-1.5972,-1.5484,-1.5389,-1.5389,-1.5389,-1.5389,-1.5469,-1.576,-1.5913,-1.6491,-1.7904,0.0,0.0,0.0,0.0,0.0,0.0,0.0,0.0,0.0,0.0,0.0,0.0,-1.9366,-1.9108,-1.875,-1.8743,-1.8743,-1.8743,-1.8743,-1.8743,-1.8743,-1.8743,-1.8691,-1.8586,-1.8459,-1.8245,-1.8011,0.0,0.0,0.0,-1.7065,-1.6918,-1.684,-1.6658,-1.6494,-1.6359,-1.6359,-1.6265,-1.6109,-1.6109,-1.6109,-1.6109,-1.6109,-1.6109,-1.6163,-1.6494,-1.6588,-1.6588,-1.6407,-1.592,-1.5453,-1.5289,-1.4459,-1.3508,-1.2933,-1.2654,-1.241,-1.197,-1.1879,-1.1761,-1.1313,-1.1207,-1.1136,-1.0962,-1.0921,-1.0875,-1.0824,-1.0977,-1.1058,-1.1058,-1.158,-1.1886,-1.1714,-1.2954,-1.3688,-1.3434,-1.3398,-1.3398,-1.3398,-1.3398,-1.3519,-1.3773,-1.3815,-1.3942,-1.4201,-1.4201,-1.4201,-1.4201,-1.4201,-1.4113,-1.3972,-1.3972,-1.3954,-1.5484,-1.5792,-1.6048,-1.681,-1.6761,-1.6536,0.0,-1.6133,-1.5783,-1.5455,-1.5389,-1.5389,-1.5389,-1.5389,-1.5389,-1.5389,-1.5584,-1.6118,-1.7257,0.0,0.0,0.0,0.0,0.0,0.0,0.0,0.0,0.0,0.0,0.0,0.0,-1.9212,-1.8956,-1.8436,-1.8422,-1.8422,-1.8422,-1.8422,-1.8422,-1.8422,-1.8422,-1.837,-1.8272,-1.8272,-1.8154,-1.7894,0.0,0.0,0.0,-1.7153,-1.696,-1.6773,-1.6614,-1.634,-1.6076,-1.6076,-1.5784,-1.535,-1.535,-1.5153,-1.486,-1.486,-1.486,-1.4956,-1.533,-1.5669,-1.5818,-1.5296,-1.4663,-1.4034,-1.374,-1.307,-1.2368,-1.2088,-1.1822,-1.1522,-1.1027,-1.0933,-1.0773,-1.0253,-1.0193,-1.0134,-0.9894,-0.9863,-0.9858,-0.9758,-0.9869,-0.9935,-0.9874,-1.0387,-1.0668,-1.0429,-1.1628,-1.2491,-1.2753,-1.2802,-1.2802,-1.2802,-1.2668,-1.2747,-1.3094,-1.2966,-1.3052,-1.3392,-1.3474,-1.347,-1.347,-1.3552,-1.3561,-1.3522,-1.3522,-1.3536,-1.4505,-1.4895,-1.5289,-1.6048,-1.5958,-1.5839,0.0,-1.6133,-1.5783,-1.5455,-1.5389,-1.5389,-1.5389,-1.5389,-1.5389,-1.5389,-1.595,-1.6696,-1.7677,0.0,0.0,0.0,0.0,0.0,0.0,0.0,0.0,0.0,0.0,0.0,0.0,-1.8913,-1.8741,-1.8391,-1.8422,-1.8422,-1.8422,-1.8422,-1.8422,-1.8422,-1.8422,-1.8272,-1.8016,-1.8016,-1.7852,0.0,0.0,0.0,0.0,-1.7192,-1.6844,-1.6321,-1.6321,-1.6086,-1.5784,-1.5784,-1.5159,-1.4346,-1.4346,-1.3613,-1.2727,-1.2727,-1.2727,-1.2727,-1.2732,-1.3463,-1.41,-1.3022,-1.2727,-1.2484,-1.1512,-1.1219,-1.0925,-0.9867,-0.9624,-0.962,-0.9624,-0.9624,-0.9567,-0.9437,-0.94,-0.9347,-0.9125,-0.9092,-0.9092,-0.9092,-0.9507,-0.9708,-0.9511,-0.9899,-1.0138,-1.0018,-1.0038,-1.0386,-1.1262,-1.1305,-1.1305,-1.1305,-1.0901,-1.1154,-1.2363,-1.1972,-1.2235,-1.3398,-1.3615,-1.3705,-1.3705,-1.3976,-1.3761,-1.3093,-1.3093,-1.2871,-1.334,-1.3722,-1.3967,-1.4741,-1.5028,-1.5191,-1.532,-1.5462,-1.5513,-1.5411,-1.5389,-1.5389,-1.5389,-1.5571,-1.5906,-1.633,-1.6755,-1.7289,0.0,0.0,0.0,0.0,0.0,0.0,0.0,0.0,0.0,0.0,0.0,0.0,0.0,-1.8406,-1.8158,-1.7859,-1.7845,-1.7845,-1.7845,-1.7845,-1.7845,-1.7845,-1.7845,-1.7793,-1.7747,-1.7747,0.0,0.0,0.0,0.0,0.0,-1.5222,-1.459,-1.4279,-1.4105,-1.388,-1.3698,-1.3698,-1.3457,-1.3216,-1.3216,-1.2974,-1.2678,-1.2678,-1.2678,-1.2581,-1.1901,-1.2393,-1.2974,-1.195,-1.1658,-1.1419,-1.04,-1.0109,-1.0015,-0.9673,-0.9579,-0.9579,-0.9579,-0.9579,-0.9612,-0.9551,-0.9543,-0.9486,-0.9351,-0.9322,-0.9282,-0.9116,-0.9236,-0.9304,-0.9246,-0.938,-0.9539,-0.9839,-0.9876,-0.9993,-1.0372,-1.0391,-1.0391,-1.0391,-1.0348,-1.0519,-1.0873,-1.088,-1.1046,-1.1401,-1.1474,-1.1505,-1.1505,-1.1949,-1.2354,-1.2629,-1.2794,-1.282,-1.2018,-1.2558,-1.2899,-1.3477,-1.3723,-1.3836,-1.396,-1.4347,-1.4685,-1.4761,-1.5085,-1.5347,-1.5461,-1.5648,-1.5907,-1.6332,-1.6863,0.0,0.0,0.0,0.0,0.0,0.0,0.0,0.0,0.0,0.0,0.0,0.0,0.0,0.0,0.0,-1.6578,-1.6293,-1.7147,-1.7582,-1.7582,-1.7582,-1.7582,-1.7582,-1.7153,-1.6935,-1.6935,-1.6505,0.0,0.0,0.0,0.0,0.0,-1.4241,-1.3729,-1.3504,-1.3308,-1.3057,-1.2818,-1.2818,-1.2515,-1.2145,-1.2145,-1.1853,-1.1521,-1.1521,-1.1521,-1.1419,-1.0788,-1.1033,-1.1419,-1.0788,-1.0596,-1.0449,-0.9772,-0.9579,-0.9579,-0.9579,-0.9575,-0.9543,-0.9612,-0.9571,-0.9547,-0.9567,-0.9579,-0.9592,-0.9478,-0.9458,-0.9421,-0.9315,-0.9295,-0.9271,-0.9206,-0.9194,-0.9306,-0.952,-0.9558,-0.9556,-0.9674,-1.0009,-1.0182,-1.0182,-1.0084,-1.0113,-1.029,-1.0274,-1.0339,-1.0519,-1.0552,-1.0594,-1.0594,-1.1051,-1.149,-1.197,-1.2308,-1.2372,0.0,-1.1382,-1.1995,-1.2252,-1.212,-1.1999,-1.234,-1.2856,0.0,-1.3629,-1.4402,-1.5076,-1.5356,-1.5411,-1.5476,-1.559,0.0,0.0,0.0,0.0,0.0,0.0,0.0,0.0,0.0,0.0,0.0,0.0,0.0,0.0,0.0,0.0,-1.4418,-1.4083,-1.6234,-1.7364,-1.7364,-1.7364,-1.7364,-1.7364,-1.6293,-1.5755,-1.5755,-1.462,0.0,0.0,0.0,0.0,0.0,-1.3863,-1.3677,-1.3472,-1.3472,-1.3204,-1.282,-1.2804,-1.2058,-1.1096,-1.1082,-1.0449,-0.9579,-0.9579,-0.9579,-0.9579,-0.9579,-0.9579,-0.9579,-0.9579,-0.9579,-0.9575,-0.9612,-0.9608,-0.9604,-0.9546,-0.9458,-0.9433,-0.9555,-0.9458,-0.9433,-0.9555,-0.9538,-0.9546,-0.9608,-0.9608,-0.9612,-0.9575,-0.9579,-0.9567,-0.9445,-0.942,-0.9363,-0.9153,-0.9137,-0.9137,-0.9137,-0.9892,-1.0385,-1.0385,-0.9981,-0.999,-1.0403,-1.0003,-1.0012,-1.0427,-1.0622,-1.0719,-1.0767,-1.1007,-1.114,-1.117,-1.1712,-1.154,-0.9622,0.0,-1.0494,-1.0578,-1.0927,-1.1277,0.0,-1.1866,-1.2404,-1.263,-1.2815,-1.309,-1.3407,-1.3536,-1.406,-1.5515,0.0,0.0,0.0,0.0,0.0,0.0,0.0,0.0,0.0,0.0,0.0,0.0,0.0,0.0,0.0,0.0,-1.4191,-1.4083,-1.462,-1.4936,-1.4936,-1.4936,-1.4936,-1.4942,-1.4669,-1.4508,-1.4513,-1.4239,0.0,0.0,0.0,0.0,-1.2738,-1.1878,-1.1391,-1.1167,-1.1167,-1.1024,-1.0849,-1.0696,-1.0457,-1.0201,-1.0016,-0.9821,-0.9579,-0.9579,-0.9579,-0.9579,-0.9579,-0.9579,-0.9579,-0.9579,-0.9579,-0.9596,-0.9453,-0.9469,-0.9384,-0.9254,-0.919,-0.9169,-0.9214,-0.919,-0.9169,-0.9214,-0.9222,-0.9263,-0.9397,-0.9469,-0.9466,-0.9608,-0.9579,-0.9612,-0.9567,-0.9563,-0.9547,-0.9506,-0.9502,-0.9502,-0.9502,-0.944,-0.9418,-0.9418,-0.9454,-0.9529,-0.9672,-0.9667,-0.9693,-0.979,-0.9836,-1.0102,-1.0489,-1.0538,-1.0724,-1.0948,-1.1092,-1.1029,-0.8999,-0.9606,-1.019,-0.9966,-1.0265,-1.0488,-1.0213,-1.0676,-1.1198,-1.1379,0.0,-1.2253,-1.2582,-1.2835,0.0,0.0,0.0,0.0,0.0,0.0,0.0,0.0,0.0,0.0,0.0,0.0,0.0,0.0,0.0,0.0,0.0,0.0,-1.2521,-1.2521,-1.2521,-1.3058,-1.4078,-1.4078,-1.4078,-1.4078,-1.3545,-1.3329,-1.3275,-1.2792,0.0,0.0,0.0,0.0,-1.1555,-1.0962,-1.0635,-1.0554,-1.0554,-1.0444,-1.0274,-1.0176,-1.0083,-0.9998,-0.9904,-0.9819,-0.9734,-0.9652,-0.9579,-0.9579,-0.9579,-0.9579,-0.9579,-0.9579,-0.9579,-0.9604,-0.9506,-0.9465,-0.938,-0.9286,-0.9088,-0.8995,-0.908,-0.9031,-0.8995,-0.908,-0.9096,-0.9129,-0.9265,-0.9286,-0.9271,-0.9368,-0.9453,-0.9502,-0.9502,-0.9575,-0.9579,-0.9579,-0.9551,-0.9502,-0.9502,-0.9254,-0.9169,-0.9332,-0.9429,-0.9482,-0.9482,-0.9494,-0.9466,-0.9384,-0.9384,-0.9529,-0.9813,-0.9813,-0.9901,-1.0081,-1.0317,-1.0208,-0.8677,-0.9516,-1.0304,-0.9769,-0.9819,-0.9841,-0.923,0.0,0.0,0.0,0.0,0.0,0.0,-1.2382,0.0,0.0,0.0,0.0,0.0,0.0,0.0,0.0,0.0,0.0,0.0,0.0,0.0,0.0,0.0,0.0,0.0,0.0,0.0,-1.0692,-1.0692,-1.161,-1.3545,-1.3599,-1.3599,-1.3545,-1.2575,-1.2146,-1.2096,-1.1122,-1.0692,0.0,0.0,0.0,-1.0692,-1.0692,-1.0692,-1.0692,-1.0692,-1.0603,-1.0419,-1.0391,-1.0335,-1.0253,-1.0224,-1.011,-0.9904,-0.9754,-0.9709,-0.9709,-0.9709,-0.9689,-0.9665,-0.9665,-0.9648,-0.9571,-0.9596,-0.947,-0.9396,-0.9371,-0.9064,-0.8865,-0.9019,-0.8909,-0.8828,-0.8986,-0.9019,-0.9027,-0.9051,-0.9056,-0.9064,-0.9092,-0.9222,-0.9371,-0.94,-0.949,-0.9596,-0.9575,-0.949,-0.9445,-0.9445,-0.9263,-0.9307,-0.9558,-0.9604,-0.96,-0.9575,-0.9478,-0.9328,-0.9181,-0.9177,-0.9177,-0.9177,-0.9177,-0.9165,-0.9137,-0.9601,-0.9469,-0.8934,-0.9477,-0.9813,-0.915,-0.9253,-0.9455,-0.9184,-0.9165,0.0,0.0,0.0,0.0,0.0,-1.0595,0.0,0.0,0.0,0.0,0.0,0.0,0.0,0.0,0.0,0.0,0.0,0.0,0.0,0.0,0.0,0.0,0.0,0.0,0.0,-1.0692,-1.0692,-1.0852,-1.1232,-1.1232,-1.1232,-1.1232,-1.1017,-1.0962,-1.0962,-1.0802,-1.0692,0.0,0.0,-1.0692,-1.0692,-1.0692,-1.0692,-1.0692,-1.0692,-1.0676,-1.0635,-1.0435,-1.0366,-1.0371,-1.0217,-1.0196,-1.0167,-1.0143,-1.0131,-1.0131,-1.0131,-0.9969,-0.9847,-0.9847,-0.9742,-0.9592,-0.9437,-0.9424,-0.9367,-0.9173,-0.8974,-0.8828,-0.8857,-0.8727,-0.8657,-0.869,-0.8694,-0.8694,-0.8836,-0.8865,-0.8917,-0.9076,-0.912,-0.919,-0.9384,-0.9429,-0.9453,-0.9612,-0.9604,-0.9587,-0.9587,-0.9563,-0.9522,-0.9575,-0.9482,-0.9466,-0.9571,-0.96,-0.9571,-0.9547,-0.9547,-0.9547,-0.9547,-0.9547,-0.9466,-0.9363,-0.9459,-0.9395,-0.8767,-0.9245,-0.9543,-0.9315,-0.9746,-1.0156,-0.9884,-0.9742,-0.9665,0.0,0.0,0.0,0.0,0.0,0.0,0.0,0.0,0.0,0.0,0.0,0.0,0.0,0.0,0.0,0.0,0.0,0.0,0.0,0.0,0.0,0.0,0.0,0.0,0.0,-1.0692,-1.0692,-1.0692,-1.0692,-1.0692,-1.0692,-1.0692,-1.0692,-1.0692,-1.0692,-1.0692,-1.0692,0.0,-1.0692,-1.0692,-1.0692,-1.0692,-1.0692,-1.0692,-1.0692,-1.0684,-1.0603,-1.0574,-1.055,-1.0371,-1.031,-1.0294,-1.0245,-1.0212,-1.0212,-1.0212,-1.0155,-1.0086,-1.0086,-0.9835,-0.9608,-0.9527,-0.9502,-0.9482,-0.9405,-0.9319,-0.9207,-0.9207,-0.9194,-0.9112,-0.9057,-0.9041,-0.9033,-0.897,-0.897,-0.8999,-0.9084,-0.9177,-0.931,-0.9392,-0.9441,-0.9535,-0.9571,-0.9539,-0.9482,-0.9482,-0.9397,-0.9425,-0.9567,-0.9547,-0.9494,-0.9482,-0.9482,-0.9437,-0.9344,-0.934,-0.934,-0.934,-0.934,-0.9348,-0.9404,-0.9404,-0.9457,-0.8714,-0.9094,-0.9462,-0.9644,-1.0205,-1.0676,-1.053,-1.0322,-1.0196,0.0,0.0,0.0,0.0,0.0,0.0,0.0,0.0,0.0,0.0,0.0,0.0,0.0,0.0,0.0,0.0,0.0,0.0,0.0,0.0,0.0,0.0,0.0,0.0,0.0,-1.0692,-1.0692,-1.0692,-1.0692,-1.0692,-1.0692,-1.0692,-1.0692,-1.0692,-1.0692,-1.0692,-1.0692,-1.0692,-1.0692,-1.0692,-1.0692,-1.0692,-1.0692,-1.0692,-1.0692,-1.0692,-1.0692,-1.0692,-1.0672,-1.0542,-1.0493,-1.0473,-1.0331,-1.0339,-1.0339,-1.0339,-1.0257,-1.0225,-1.0225,-0.9998,-0.9754,-0.9754,-0.9754,-0.9754,-0.9754,-0.9721,-0.9689,-0.9689,-0.9657,-0.9587,-0.9445,-0.9465,-0.9328,-0.8958,-0.8934,-0.8824,-0.8592,-0.8691,-0.882,-0.882,-0.8938,-0.8985,-0.9027,-0.8961,-0.8881,-0.8881,-0.8756,-0.8813,-0.9069,-0.9361,-0.9518,-0.9469,-0.9465,-0.9376,-0.9283,-0.9092,-0.9017,-0.9008,-0.8812,-0.8829,-0.8947,-0.8947,-0.9042,-0.897,-0.9328,-0.9648,-0.9823,-0.9912,-1.0087,-1.0566,-1.0408,0.0,-1.057,0.0,0.0,0.0,0.0,0.0,0.0,0.0,0.0,0.0,0.0,0.0,0.0,0.0,0.0,0.0,0.0,0.0,0.0,0.0,0.0,0.0,0.0,0.0,0.0,0.0,-1.0692,-1.0692,-1.0692,-1.0692,-1.0692,-1.0692,-1.0692,-1.0692,-1.0692,-1.0692,-1.0692,-1.0692,-1.0692,-1.0692,-1.0692,-1.0692,-1.0692,-1.0692,-1.0692,-1.0692,-1.0692,-1.0692,-1.0688,-1.0676,-1.0672,-1.0672,-1.066,-1.0655,-1.0655,-1.0655,-1.0542,-1.0416,-1.0416,-1.0274,-1.0175,-1.0175,-1.0175,-1.0175,-1.0175,-0.9989,-0.9864,-0.9864,-0.9742,-0.9575,-0.9612,-0.9608,-0.9304,-0.8495,-0.8347,-0.8048,-0.713,-0.6973,-0.7027,-0.7176,-0.7185,-0.7241,-0.7372,-0.7378,-0.7372,-0.7372,-0.7475,-0.7547,-0.7565,-0.8712,-0.9445,-0.9604,-0.9608,-0.9677,-0.9823,-0.9022,-0.8688,-0.8827,-0.7991,-0.7629,-0.7639,-0.7639,-0.7768,-0.8775,-0.919,-0.9644,-0.9709,-0.9977,0.0,0.0,-1.0816,-1.0765,-1.1122,-1.1049,0.0,0.0,0.0,0.0,0.0,0.0,0.0,0.0,0.0,0.0,0.0,0.0,0.0,0.0,0.0,0.0,0.0,0.0,0.0,0.0,0.0,0.0,0.0,0.0,-1.0692,-1.0692,-1.0692,-1.0692,-1.0692,-1.0692,-1.0692,-1.0692,-1.0692,-1.0692,-1.0692,-1.0692,-1.0692,-1.0692,-1.0692,-1.0692,-1.0692,-1.0692,-1.0692,-1.0692,-1.0692,-1.0692,-1.0692,-1.0692,-1.0692,-1.0692,-1.0692,-1.0692,-1.0692,-1.0692,-1.0261,-0.977,-0.977,-0.9341,-0.8921,-0.9264,-0.9448,-0.9367,-0.8831,-0.8695,-0.8716,-0.8716,-0.8671,-0.8554,-0.8518,-0.8501,-0.8314,-0.7856,-0.7788,-0.7667,-0.731,-0.725,-0.725,-0.7301,-0.7301,-0.7322,-0.7373,-0.7379,-0.7379,-0.7379,-0.7422,-0.7449,-0.7449,-0.792,-0.8245,-0.8303,-0.8306,-0.8333,-0.8384,-0.8079,-0.7949,-0.7997,-0.7685,-0.7569,-0.7707,-0.7707,-0.7777,-0.8649,-0.9084,-0.9567,-0.9681,0.0,0.0,-1.0944,-1.1009,-1.1086,-1.15,-1.139,0.0,0.0,0.0,0.0,0.0,0.0,0.0,0.0,0.0,0.0,0.0,0.0,0.0,0.0,0.0,0.0,0.0,0.0,0.0,0.0,0.0,0.0,0.0,0.0,-1.0692,-1.0692,-1.0692,-1.0692,-1.0692,-1.0692,-1.0692,-1.0692,-1.0692,-1.0692,-1.0692,-1.0692,-1.0692,-1.0692,-1.0692,-1.0692,-1.0692,-1.0692,-1.0692,-1.0692,-1.0692,-1.0692,-1.0692,-1.0692,-1.0692,-1.0637,-1.0135,-1.0021,-0.9911,-0.9412,-0.8858,-0.8416,-0.8416,-0.7916,-0.7433,-0.7532,-0.8151,-0.8608,-0.801,-0.791,-0.7974,-0.7974,-0.7974,-0.795,-0.7862,-0.7844,-0.7708,-0.7296,-0.7226,-0.7158,-0.6799,-0.6794,-0.6781,-0.6743,-0.6737,-0.6737,-0.6737,-0.6737,-0.6737,-0.6737,-0.6772,-0.6794,-0.6794,-0.6829,-0.7029,-0.7478,-0.7527,-0.7545,-0.759,-0.7325,-0.7186,-0.7226,-0.6961,-0.6894,-0.7032,-0.7032,-0.7073,-0.882,-0.908,-0.949,-0.9795,0.0,0.0,-1.1062,-1.109,-1.1122,-1.1663,0.0,-1.1171,0.0,0.0,0.0,0.0,0.0,0.0,0.0,0.0,0.0,0.0,0.0,0.0,0.0,0.0,0.0,0.0,0.0,0.0,0.0,0.0,0.0,0.0,0.0,0.0,-1.0692,-1.0692,-1.0692,-1.0692,-1.0692,-1.0692,-1.0692,-1.0692,-1.0692,-1.0692,-1.0692,-1.0692,-1.0692,-1.0692,-1.0692,-1.0692,-1.0692,-1.0692,-1.0692,-1.0692,-1.0692,-1.0692,-1.0692,-1.0692,-1.0414,-0.8968,-0.8468,-0.8189,-0.6637,-0.6193,-0.6193,-0.6193,-0.6193,-0.5973,-0.5087,-0.642,-0.7974,-0.7974,-0.7974,-0.7974,-0.7974,-0.7974,-0.7974,-0.7974,-0.7974,-0.77,-0.6824,-0.6657,-0.6345,-0.5314,-0.519,-0.5158,-0.5122,-0.511,-0.511,-0.511,-0.511,-0.511,-0.511,-0.514,-0.519,-0.519,-0.5331,-0.601,-0.7434,-0.7478,-0.7593,-0.7783,-0.6867,-0.6491,-0.6715,-0.5826,-0.5382,-0.5382,-0.5382,-0.5382,-0.8629,-0.9084,0.0,-0.9677,0.0,0.0,0.0,-1.1183,0.0,0.0,0.0,0.0,0.0,0.0,0.0,0.0,0.0,0.0,0.0,0.0,0.0,0.0,0.0,0.0,0.0,0.0,0.0,0.0,0.0,0.0,0.0,0.0,0.0,0.0,0.0,0.0,-1.0692,-1.0692,-1.0692,-1.0692,-1.0692,-1.0692,-1.0692,-1.0692,-1.0692,-1.0692,-1.0692,-1.0692,-1.0692,-1.0692,-1.0582,-1.0421,-1.0421,-1.0257,-1.0088,-1.0088,-1.0088,-0.9923,-0.9085,-0.8806,-0.8582,-0.7304,-0.6858,-0.6803,-0.6359,-0.575,-0.5308,-0.5308,-0.4866,-0.4309,-0.4032,-0.4421,-0.4921,-0.4921,-0.4921,-0.4921,-0.4921,-0.4921,-0.4921,-0.4921,-0.4921,-0.4812,-0.4592,-0.4536,-0.4418,-0.412,-0.4448,-0.4829,-0.5249,-0.53,-0.53,-0.53,-0.53,-0.53,-0.53,-0.5326,-0.5341,-0.5341,-0.5367,-0.5577,-0.6012,-0.601,-0.6026,-0.6111,-0.5837,-0.5742,-0.577,-0.5549,-0.5382,-0.5382,-0.5382,-0.5382,-0.8609,-0.9016,0.0,-0.988,-1.0407,-1.0863,-1.1219,0.0,0.0,0.0,0.0,0.0,0.0,0.0,0.0,0.0,0.0,0.0,0.0,0.0,0.0,0.0,0.0,0.0,0.0,0.0,0.0,0.0,0.0,0.0,0.0,0.0,0.0,0.0,0.0,0.0,-1.0692,-1.0692,-1.0637,-1.0527,-1.0527,-1.0472,-1.0363,-1.0582,-1.0637,-1.0527,-1.0417,-1.0363,-1.0363,-1.0363,-1.0253,-1.0091,-1.0091,-0.9702,-0.9089,-0.9089,-0.8809,-0.8254,-0.7529,-0.7307,-0.7083,-0.5748,-0.5301,-0.519,-0.4637,-0.4083,-0.3694,-0.3694,-0.3305,-0.2859,-0.2859,-0.2859,-0.3027,-0.3475,-0.3587,-0.3587,-0.3587,-0.3587,-0.3587,-0.3587,-0.3587,-0.3587,-0.3587,-0.3587,-0.3587,-0.3587,-0.3923,-0.4258,-0.4651,-0.4707,-0.4707,-0.4707,-0.4707,-0.4707,-0.4707,-0.4707,-0.4763,-0.5043,-0.5043,-0.5156,-0.5382,-0.5382,-0.5382,-0.5382,-0.5382,-0.5382,-0.5382,-0.5382,-0.5382,-0.5382,-0.5382,-0.5382,-0.8367,-0.8628,-0.8965,-0.9857,-1.0104,0.0,-1.1028,0.0,0.0,0.0,0.0,0.0,0.0,0.0,0.0,0.0,0.0,0.0,0.0,0.0,0.0,0.0,0.0,0.0,0.0,0.0,0.0,0.0,0.0,0.0,0.0,0.0,0.0,0.0,0.0,0.0,-1.0637,-1.0637,-1.0472,0.0,-1.0257,-1.0091,-0.9816,-1.0363,-1.0472,-1.0257,-0.9926,-0.9816,-0.9816,-0.9816,-0.9761,-0.9761,-0.9647,-0.8923,-0.7919,-0.7808,-0.7083,-0.6137,-0.6026,-0.5971,-0.5748,-0.4244,-0.3799,-0.3522,-0.2185,-0.1795,-0.1795,-0.1795,-0.1795,-0.1795,-0.1795,-0.1795,-0.2075,-0.3195,-0.3419,-0.3419,-0.3419,-0.3419,-0.3419,-0.3419,-0.3419,-0.3419,-0.3419,-0.3419,-0.3475,-0.3531,-0.3531,-0.3531,-0.3587,-0.3587,-0.3587,-0.3587,-0.3587,-0.3587,-0.3587,-0.3587,-0.381,-0.4369,-0.4424,-0.465,-0.5214,-0.5326,-0.5382,-0.5382,-0.5382,-0.5382,-0.5382,-0.5382,-0.5382,-0.5382,-0.5382,-0.5382,-0.5847,-0.6023,0.0,0.0,-0.7303,-0.7849,-0.8781,-0.9,0.0,0.0,0.0,0.0,0.0,0.0,0.0,0.0,0.0,0.0,0.0,0.0,0.0,0.0,0.0,0.0,0.0,0.0,0.0,0.0,0.0,0.0,0.0,0.0,0.0,0.0,0.0,-1.0366,-1.0366,-1.0147,-0.9978,0.0,-0.9926,-0.9871,-0.9816,-0.9926,-0.9978,-0.9926,-0.9816,-0.9816,-0.9816,-0.9816,-0.9651,-0.9375,-0.8426,-0.7762,-0.7204,-0.6308,-0.5804,-0.5415,-0.447,-0.4137,-0.397,-0.2688,-0.2297,-0.2241,-0.1907,-0.1795,-0.1795,-0.1795,-0.1795,-0.1795,-0.1795,-0.1795,-0.1851,-0.2131,-0.2187,-0.2187,-0.2187,-0.2187,-0.2187,-0.2187,-0.2187,-0.2187,-0.2187,-0.2187,-0.2355,-0.2806,-0.2918,-0.3085,-0.3531,-0.3587,-0.3587,-0.3587,-0.3587,-0.3587,-0.3587,-0.3587,-0.3643,-0.3811,-0.3811,-0.3867,-0.3979,-0.4877,-0.5382,-0.5382,-0.5382,-0.5382,-0.5382,-0.5382,-0.5382,-0.5382,-0.5382,-0.5382,-0.4988,0.0,0.0,-0.5891,0.0,-0.6708,-0.7282,0.0,0.0,0.0,0.0,0.0,0.0,0.0,0.0,0.0,0.0,0.0,0.0,0.0,0.0,0.0,0.0,0.0,0.0,0.0,0.0,0.0,0.0,0.0,0.0,0.0,0.0,0.0,-1.0147,-1.0036,-1.0036,-0.9871,-0.9761,-0.9596,-0.9596,-0.9206,-0.854,-0.9261,-0.9596,-0.9596,-0.943,-0.904,-0.8484,-0.8484,-0.8091,-0.7423,-0.6811,-0.6089,-0.5365,-0.4751,-0.4193,-0.358,-0.2967,-0.2744,-0.2633,-0.2019,-0.1795,-0.1795,-0.1795,-0.1795,-0.1795,-0.1795,-0.1795,-0.1795,-0.1795,-0.1795,-0.1795,-0.1795,-0.1795,-0.1795,-0.1795,-0.1795,-0.1795,-0.1795,-0.1795,-0.1795,-0.1795,-0.1795,-0.1907,-0.2244,-0.2244,-0.2356,-0.2691,-0.2747,-0.2747,-0.2747,-0.2747,-0.2747,-0.2747,-0.2747,-0.2859,-0.3141,-0.3197,-0.3309,-0.3587,-0.4204,-0.454,-0.454,-0.454,-0.454,-0.454,-0.454,-0.454,-0.454,-0.454,-0.454,-0.4324,0.0,-0.4643,-0.5222,-0.5412,0.0,-0.5939,0.0,0.0,0.0,0.0,0.0,0.0,0.0,0.0,0.0,0.0,0.0,0.0,0.0,0.0,0.0,0.0,0.0,0.0,0.0,0.0,0.0,0.0,0.0,0.0,0.0,-0.9816,-0.9816,-0.9761,-0.9651,-0.9427,-0.9372,-0.9151,-0.8706,-0.8706,-0.8039,-0.6871,-0.8149,-0.8706,-0.8706,-0.8432,-0.7706,-0.6816,-0.6816,-0.6255,-0.5361,-0.5194,-0.447,-0.358,-0.3358,-0.2632,-0.1795,-0.1795,-0.1795,-0.1795,-0.1795,-0.1795,-0.1795,-0.1795,-0.1795,-0.1795,-0.1795,-0.1795,-0.1795,-0.1795,-0.1795,-0.1795,-0.1795,-0.1795,-0.1795,-0.1795,-0.1795,-0.1795,-0.1795,-0.1795,-0.1795,-0.1795,-0.1795,-0.1795,-0.1795,-0.1795,-0.1795,-0.1795,-0.1795,-0.1795,-0.1795,-0.1795,-0.1795,-0.1795,-0.1795,-0.202,-0.2525,-0.2525,-0.2748,-0.3251,-0.3307,-0.3307,-0.3307,-0.3475,-0.3587,-0.3587,-0.3587,-0.3587,-0.3587,-0.3587,-0.3587,-0.1956,0.0,-0.2195,0.0,-0.2365,-0.2706,0.0,0.0,0.0,0.0,0.0,0.0,0.0,0.0,0.0,0.0,0.0,0.0,0.0,0.0,0.0,0.0,0.0,0.0,0.0,0.0,0.0,0.0,0.0,0.0,0.0,-0.9816,-0.9816,-0.9816,-0.9599,-0.893,-0.7925,-0.7595,-0.6924,-0.5917,-0.5917,-0.5806,-0.5641,-0.5862,-0.5917,-0.5917,-0.5864,-0.575,-0.5641,-0.5641,-0.5528,-0.5306,-0.4249,-0.3747,-0.3469,-0.2409,-0.1963,-0.1795,-0.1795,-0.1795,-0.1795,-0.1795,-0.1795,-0.1795,-0.1795,-0.1795,-0.1795,-0.1795,-0.1795,-0.1795,-0.1795,-0.1795,-0.1795,-0.1795,-0.1795,-0.1795,-0.1795,-0.1795,-0.1795,-0.1795,-0.1795,-0.1795,-0.1795,-0.1795,-0.1795,-0.1795,-0.1795,-0.1795,-0.1795,-0.1795,-0.1795,-0.1795,-0.1795,-0.1795,-0.1795,-0.1795,-0.1851,-0.1908,-0.1908,-0.1964,-0.2019,-0.2019,-0.2019,-0.2019,-0.3083,-0.3587,-0.3587,-0.3587,-0.3587,-0.3587,-0.3587,-0.3587,-0.1529,-0.1602,-0.1674,0.0,-0.1825,-0.194,0.0,0.0,0.0,0.0,0.0,0.0,0.0,0.0,0.0,0.0,0.0,0.0,0.0,0.0,0.0,0.0,0.0,0.0,0.0,0.0,0.0,0.0,0.0,0.0,-0.7362,-0.7362,-0.7362,-0.7362,-0.7199,-0.6893,-0.6336,-0.6172,-0.5843,-0.5345,-0.5345,-0.4983,-0.4414,-0.4414,-0.4749,-0.5417,-0.5417,-0.5027,-0.4414,-0.4414,-0.397,-0.3358,-0.28,-0.2576,-0.2521,-0.2019,-0.1795,-0.1795,-0.1795,-0.1795,-0.1795,-0.1795,-0.1795,-0.1795,-0.1795,-0.1795,-0.1795,-0.1795,-0.1795,-0.1795,-0.1795,-0.1795,-0.1795,-0.1795,-0.1795,-0.1795,-0.1795,-0.1795,-0.1795,-0.1795,-0.1795,-0.1795,-0.1795,-0.1795,-0.1795,-0.1795,-0.1795,-0.1795,-0.1795,-0.1795,-0.1795,-0.1795,-0.1795,-0.1795,-0.1795,-0.1795,-0.1795,-0.1795,-0.1795,-0.1795,-0.1795,-0.1795,-0.1795,-0.1795,-0.2299,-0.2579,-0.2579,-0.2579,-0.2579,-0.2579,-0.2579,-0.2579,0.0,0.0,-0.1613,-0.1695,-0.178,-0.1801,0.0,0.0,0.0,0.0,0.0,0.0,0.0,0.0,0.0,0.0,0.0,0.0,0.0,0.0,0.0,0.0,0.0,0.0,0.0,0.0,0.0,0.0,0.0,0.0,-0.5417,-0.5417,-0.5417,-0.5417,-0.5396,-0.5188,-0.4852,-0.4561,-0.439,-0.439,-0.439,-0.3928,-0.3095,-0.3108,-0.3613,-0.4498,-0.4463,-0.397,-0.3135,-0.3135,-0.2632,-0.1795,-0.1795,-0.1795,-0.1795,-0.1795,-0.1795,-0.1795,-0.1795,-0.1795,-0.1795,-0.1795,-0.1795,-0.1795,-0.1795,-0.1795,-0.1795,-0.1795,-0.1795,-0.1795,-0.1795,-0.1795,-0.1795,-0.1795,-0.1795,-0.1795,-0.1795,-0.1795,-0.1795,-0.1795,-0.1795,-0.1795,-0.1795,-0.1795,-0.1795,-0.1795,-0.1795,-0.1795,-0.1795,-0.1795,-0.1795,-0.1795,-0.1795,-0.1795,-0.1795,-0.1795,-0.1795,-0.1795,-0.1795,-0.1795,-0.1795,-0.1795,-0.1795,-0.1795,-0.1795,-0.1795,-0.1795,-0.1795,-0.1795,-0.1795,-0.1795,-0.1795,0.0,-0.1508,0.0,-0.1608,-0.1665,0.0,0.0,0.0,0.0,0.0,0.0,0.0,0.0,0.0,0.0,0.0,0.0,0.0,0.0,0.0,0.0,0.0,0.0,0.0,0.0,0.0,0.0,0.0,0.0,0.0,-0.5417,-0.5417,-0.5417,-0.5417,-0.5338,-0.4747,-0.3598,-0.2471,-0.1866,-0.1866,-0.1866,-0.1867,-0.1816,-0.1847,-0.1916,-0.1972,-0.2004,-0.1963,-0.1907,-0.1907,-0.1851,-0.1795,-0.1795,-0.1795,-0.1795,-0.1795,-0.1795,-0.1795,-0.1795,-0.1795,-0.1795,-0.1795,-0.1795,-0.1795,-0.1795,-0.1795,-0.1795,-0.1795,-0.1795,-0.1795,-0.1795,-0.1795,-0.1795,-0.1795,-0.1795,-0.1795,-0.1795,-0.1795,-0.1795,-0.1795,-0.1795,-0.1795,-0.1795,-0.1795,-0.1795,-0.1795,-0.1795,-0.1795,-0.1795,-0.1795,-0.1795,-0.1795,-0.1795,-0.1795,-0.1795,-0.1795,-0.1795,-0.1795,-0.1795,-0.1795,-0.1795,-0.1795,-0.1795,-0.1795,-0.1795,-0.1795,-0.1795,-0.1795,-0.1795,-0.1795,-0.1795,-0.1795,0.0,0.0,0.0,-0.1573,-0.1618,0.0,0.0,0.0,0.0,0.0,0.0,0.0,0.0,0.0,0.0,0.0,0.0,0.0,0.0,0.0,0.0,0.0,0.0,0.0,0.0,0.0,0.0,0.0,0.0,0.0,-0.3079,-0.3079,-0.3079,-0.3079,-0.3062,-0.2801,-0.2363,-0.188,-0.1658,-0.1677,-0.1677,-0.1686,-0.1705,-0.179,-0.1804,-0.1806,-0.1782,-0.1795,-0.1795,-0.1795,-0.1795,-0.1795,-0.1795,-0.1795,-0.1795,-0.1795,-0.1795,-0.1795,-0.1795,-0.1795,-0.1795,-0.1795,-0.1795,-0.1795,-0.1795,-0.1795,-0.1795,-0.1795,-0.1795,-0.1795,-0.1795,-0.1795,-0.1795,-0.1795,-0.1795,-0.1795,-0.1795,-0.1795,-0.1795,-0.1795,-0.1795,-0.1795,-0.1795,-0.1795,-0.1795,-0.1795,-0.1795,-0.1795,-0.1795,-0.1795,-0.1795,-0.1795,-0.1795,-0.1795,-0.1795,-0.1795,-0.1795,-0.1795,-0.1795,-0.1795,-0.1795,-0.1795,-0.1795,-0.1795,-0.1795,-0.1795,-0.1795,-0.1795,-0.1795,-0.1795,-0.1795,-0.1795,-0.1363,0.0,0.0,0.0,0.0,0.0,0.0,0.0,0.0,0.0,0.0,0.0,0.0,0.0,0.0,0.0,0.0,0.0,0.0,0.0,0.0,0.0,0.0,0.0,0.0,0.0,0.0,0.0,0.0,0.0,-0.1795,-0.1795,-0.1791,-0.178,-0.177,-0.174,-0.169,-0.1641,-0.1627,-0.1647,-0.1647,-0.1662,-0.1691,-0.1721,-0.1794,-0.1806,-0.1782,-0.1795,-0.1795,-0.1795,-0.1795,-0.1795,-0.1795,-0.1795,-0.1795,-0.1795,-0.1795,-0.1795,-0.1795,-0.1795,-0.1795,-0.1795,-0.1795,-0.1795,-0.1795,-0.1795,-0.1795,-0.1795,-0.1795,-0.1795,-0.1795,-0.1795,-0.1795,-0.1795,-0.1795,-0.1795,-0.1795,-0.1795,-0.1795,-0.1795,-0.1795,-0.1795,-0.1795,-0.1795,-0.1795,-0.1795,-0.1795,-0.1795,-0.1795,-0.1795,-0.1795,-0.1795,-0.1795,-0.1795,-0.1795,-0.1795,-0.1795,-0.1795,-0.1795,-0.1795,-0.1795,-0.1795,-0.1795,-0.1795,-0.1795,-0.1627,-0.1346,-0.1627,-0.1795,-0.1795,-0.1795,-0.1458,0.0,0.0,0.0,0.0,0.0,0.0,0.0,0.0,0.0,0.0,0.0,0.0,0.0,0.0,0.0,0.0,0.0,0.0,0.0,0.0,0.0,0.0,0.0,0.0,0.0,0.0,0.0,0.0,0.0,-0.1795,-0.1795,-0.1795,-0.1781,-0.1807,-0.1721,-0.1692,-0.1716,-0.1633,-0.1618,-0.1617,-0.1617,-0.1633,-0.1715,-0.1691,-0.1721,-0.1806,-0.1782,-0.1795,-0.1795,-0.1795,-0.1795,-0.1795,-0.1795,-0.1795,-0.1795,-0.1795,-0.1795,-0.1795,-0.1795,-0.1795,-0.1795,-0.1795,-0.1795,-0.1795,-0.1795,-0.1795,-0.1795,-0.1795,-0.1795,-0.1795,-0.1795,-0.1795,-0.1795,-0.1795,-0.1795,-0.1795,-0.1795,-0.1795,-0.1795,-0.1795,-0.1795,-0.1795,-0.1795,-0.1795,-0.1795,-0.1795,-0.1795,-0.1795,-0.1795,-0.1795,-0.1795,-0.1795,-0.1795,-0.1795,-0.1795,-0.1795,-0.1795,-0.1739,-0.1739,-0.1739,-0.1739,-0.1739,-0.1739,-0.1739,-0.1739,-0.129,-0.0336,-0.129,-0.1739,-0.1739,-0.1739,-0.0785,-0.1321,0.0,0.0,0.0,0.0,0.0,0.0,0.0,0.0,0.0,0.0,0.0,0.0,0.0,0.0,0.0,0.0,0.0,0.0,0.0,0.0,0.0,0.0,0.0,0.0,0.0,0.0,0.0,-0.1795,-0.1795,-0.1795,-0.1795,-0.1791,-0.1782,-0.1807,-0.1722,-0.1693,-0.1664,-0.1639,-0.1617,-0.1617,-0.1633,-0.1715,-0.1691,-0.1721,-0.1806,-0.1782,-0.1795,-0.1795,-0.1795,-0.1795,-0.1795,-0.1795,-0.1795,-0.1795,-0.1795,-0.1795,-0.1795,-0.1795,-0.1795,-0.1795,-0.1795,-0.1795,-0.1795,-0.1795,-0.1795,-0.1795,-0.1795,-0.1795,-0.1795,-0.1795,-0.1795,-0.1795,-0.1795,-0.1795,-0.1795,-0.1795,-0.1795,-0.1795,-0.1795,-0.1795,-0.1795,-0.1795,-0.1795,-0.1795,-0.1795,-0.1795,-0.1795,-0.1795,-0.1795,-0.1795,-0.1795,-0.1795,-0.1795,-0.1795,-0.1795,-0.1514,-0.0841,-0.0785,-0.0505,0.0112,0.0168,0.0168,0.0168,0.0168,0.028,0.0561,-0.0336,-0.0449,0.0168,0.0168,0.0784,0.0,0.0,0.0,0.0,0.0,0.0,0.0,0.0,0.0,0.0,0.0,0.0,0.0,0.0,0.0,0.0,0.0,0.0,0.0,0.0,0.0,0.0,0.0,0.0,0.0,0.0,0.0,0.0,-0.1795,-0.1795,-0.1795,-0.1795,-0.1795,-0.1795,-0.1821,-0.1789,-0.1705,-0.1676,-0.1647,-0.1617,-0.163,-0.1651,-0.1681,-0.171,-0.174,-0.1825,-0.1787,-0.1795,-0.1795,-0.1795,-0.1795,-0.1795,-0.1795,-0.1795,-0.1795,-0.1795,-0.1795,-0.1795,-0.1795,-0.1795,-0.1795,-0.1795,-0.1795,-0.1795,-0.1795,-0.1795,-0.1795,-0.1795,-0.1514,-0.1234,-0.1234,-0.1234,-0.1234,-0.1234,-0.1234,-0.1121,-0.0729,-0.0673,-0.0897,-0.1627,-0.1458,-0.1234,-0.1234,-0.1234,-0.1065,-0.0729,-0.1009,-0.1065,-0.0729,-0.0673,-0.0673,-0.0673,-0.0673,-0.0673,-0.0673,-0.0673,-0.0449,0.0112,0.0168,0.0393,0.0897,0.0897,0.0897,0.0897,0.0897,0.1065,0.1457,0.0561,0.0393,0.0897,0.0897,0.1345,0.0,-0.0221,0.0,0.0,0.0,0.0,-0.1081,-0.1264,0.0,0.0,0.0,0.0,0.0,0.0,0.0,0.0,0.0,0.0,0.0,0.0,0.0,0.0,0.0,0.0,0.0,0.0,-0.1795,-0.1795,-0.1795,-0.1795,-0.1795,-0.1795,-0.1795,-0.1795,-0.1824,-0.1792,-0.1705,-0.168,-0.165,-0.1617,-0.1647,-0.1677,-0.1705,-0.179,-0.1821,-0.1795,-0.1795,-0.1795,-0.1795,-0.1795,-0.1795,-0.1795,-0.1795,-0.1795,-0.1795,-0.1795,-0.1795,-0.1795,-0.1795,-0.1795,-0.1795,-0.1795,-0.1795,-0.1795,-0.1683,-0.1627,-0.1627,-0.1514,-0.0897,-0.028,-0.028,-0.028,-0.028,-0.028,-0.028,-0.0056,0.0729,0.0897,0.0449,-0.1177,-0.0841,-0.028,-0.028,-0.028,0.0,0.0785,0.0224,0.0,0.0785,0.0897,0.0897,0.0897,0.0897,0.0897,0.0897,0.0897,0.0953,0.1065,0.1065,0.1065,0.1177,0.1177,0.1177,0.1177,0.1177,0.1569,0.2352,0.1569,0.1177,0.1177,0.1177,0.1625,0.0394,0.0581,0.055,0.0,0.0,0.0,0.0,0.0321,0.0,0.0,0.0,0.0,0.0,0.0,0.0,0.0,0.0,0.0,0.0,0.0,0.0,0.0,0.0,0.0,0.0,0.0,-0.1795,-0.1795,-0.1795,-0.1795,-0.1795,-0.1795,-0.1795,-0.1795,-0.1789,-0.176,-0.1705,-0.1699,-0.1669,-0.1617,-0.1647,-0.1677,-0.1705,-0.179,-0.1821,-0.1795,-0.1795,-0.1795,-0.1795,-0.1795,-0.1795,-0.1795,-0.1795,-0.1795,-0.1795,-0.1795,-0.1795,-0.1795,-0.1795,-0.1795,-0.1795,-0.1795,-0.1795,-0.1683,-0.0897,-0.0673,-0.0505,0.0168,0.0505,0.0673,0.0673,0.0673,0.0673,0.0673,0.0673,0.0673,0.0841,0.0897,0.0785,0.0449,0.0505,0.0673,0.0673,0.0673,0.0729,0.0897,0.0729,0.0729,0.0897,0.0897,0.0897,0.0897,0.0897,0.0897,0.0897,0.0897,0.1177,0.1904,0.196,0.2297,0.3026,0.3082,0.3082,0.3082,0.3082,0.3138,0.3306,0.3138,0.3082,0.3082,0.3082,0.3138,0.0,0.0,0.1321,0.1321,0.0,0.0,0.0,0.0,0.0,0.0,0.0,0.0,0.0,0.0,0.0,0.0,0.0,0.0,0.0,0.0,0.0,0.0,0.0,0.0,0.0,0.0,-0.1795,-0.1795,-0.1795,-0.1795,-0.1795,-0.1795,-0.1795,-0.1795,-0.1795,-0.1773,-0.1727,-0.1727,-0.1705,-0.1661,-0.1744,-0.1766,-0.1728,-0.1759,-0.178,-0.1795,-0.1795,-0.1795,-0.1795,-0.1795,-0.1795,-0.1795,-0.1795,-0.1795,-0.1795,-0.1795,-0.1795,-0.1795,-0.1795,-0.1795,-0.1795,-0.1795,-0.1458,-0.1009,-0.0561,-0.0112,0.0448,0.1289,0.1569,0.1625,0.1904,0.2016,0.2072,0.2352,0.2464,0.2575,0.3023,0.3135,0.3135,0.3135,0.3135,0.2799,0.1737,0.1569,0.1681,0.2185,0.1849,0.1737,0.2186,0.2242,0.2242,0.2242,0.2242,0.2242,0.2242,0.2242,0.241,0.2857,0.2913,0.3081,0.3587,0.3587,0.3587,0.3587,0.3587,0.3587,0.3587,0.3587,0.3587,0.3587,0.3587,0.3587,0.0,0.0,0.0,0.0,0.0,0.1921,0.0,0.0,0.0,0.1192,0.0,0.0,0.0,0.0,0.0,0.0,0.0,0.0,0.0,0.0,0.0,0.0,0.0,0.0,0.0,0.0,-0.1776,-0.1793,-0.1784,-0.1782,-0.1794,-0.1795,-0.1795,-0.1795,-0.1795,-0.178,-0.1804,-0.1804,-0.1788,-0.1705,-0.1789,-0.1804,-0.1805,-0.1781,-0.1795,-0.1795,-0.1795,-0.1795,-0.1795,-0.1795,-0.1795,-0.1795,-0.1795,-0.1795,-0.1795,-0.1795,-0.1795,-0.1795,-0.1795,-0.1683,-0.1514,-0.1514,-0.0729,0.028,0.028,0.0953,0.1905,0.2631,0.2798,0.291,0.3412,0.3523,0.3691,0.414,0.4254,0.4477,0.526,0.5427,0.5427,0.5427,0.5427,0.4868,0.3134,0.2798,0.3079,0.381,0.3304,0.3079,0.3866,0.3921,0.3921,0.3921,0.3866,0.3755,0.3755,0.3643,0.3587,0.3587,0.3587,0.3587,0.3587,0.3587,0.3587,0.3587,0.3587,0.3587,0.3587,0.3587,0.3587,0.3587,0.3587,0.3587,0.0,0.0,0.0,0.0,0.2892,0.0,0.0,0.0,0.2706,0.2667,0.0,0.0,0.0,0.0,0.0,0.0,0.0,0.0,0.0,0.0,0.0,0.0,0.0,0.0,0.0,0.0,0.0,-0.1789,-0.1745,-0.1738,-0.1792,-0.1795,-0.1795,-0.1795,-0.1795,-0.178,-0.1804,-0.1804,-0.1788,-0.1705,-0.1789,-0.1804,-0.1805,-0.1781,-0.1795,-0.1795,-0.1795,-0.1795,-0.1795,-0.1795,-0.1795,-0.1795,-0.1795,-0.1795,-0.1795,-0.1795,-0.1795,-0.1795,-0.1795,-0.1234,-0.0561,-0.0561,0.0896,0.2684,0.2684,0.3747,0.4923,0.5035,0.5035,0.5035,0.5146,0.5146,0.5146,0.5202,0.526,0.526,0.5371,0.5427,0.5427,0.5427,0.5427,0.5314,0.5091,0.5035,0.5091,0.5204,0.5091,0.5091,0.5204,0.5204,0.5204,0.5204,0.4704,0.4424,0.4424,0.3923,0.3587,0.3587,0.3587,0.3587,0.3587,0.3587,0.3587,0.3587,0.3587,0.3587,0.3587,0.3587,0.3587,0.3587,0.3587,0.3587,0.0,0.0,0.0,0.0,0.0,0.0,0.0,0.0,0.2957,0.0,0.0,0.0,0.0,0.0,0.0,0.0,0.0,0.0,0.0,0.0,0.0,0.0,0.0,0.0,0.0,0.0,0.0,0.0,0.0,-0.1723,-0.1821,-0.1785,-0.1795,-0.1795,-0.1795,-0.1789,-0.1776,-0.1776,-0.177,-0.1757,-0.177,-0.1776,-0.1776,-0.1789,-0.1795,-0.1795,-0.1795,-0.1795,-0.1795,-0.1795,-0.1795,-0.1795,-0.157,-0.1627,-0.1795,-0.1795,-0.1683,-0.1402,-0.0728,-0.0112,0.056,0.1735,0.2798,0.3748,0.425,0.4866,0.5427,0.5427,0.5427,0.5483,0.5817,0.5929,0.5984,0.6374,0.6429,0.6429,0.6429,0.6429,0.6429,0.6429,0.6429,0.6429,0.6429,0.5873,0.5427,0.5427,0.5427,0.5427,0.5427,0.5427,0.5427,0.5427,0.5148,0.5037,0.5037,0.4814,0.4646,0.4646,0.4646,0.4646,0.4646,0.4646,0.4646,0.4646,0.4646,0.4646,0.4646,0.4646,0.4646,0.4648,0.3921,0.3587,0.311,0.0,0.0,0.0,0.0,0.0,0.0,0.0,0.0,0.0,0.0,0.0,0.0,0.0,0.0,0.0,0.0,0.0,0.0,0.0,0.0,0.0,0.0,0.0,0.0,0.0,0.0,0.0,0.0,0.0,-0.1802,-0.1825,-0.1787,-0.1795,-0.1795,-0.1795,-0.1795,-0.1795,-0.1795,-0.1795,-0.1795,-0.1795,-0.1795,-0.1795,-0.1795,-0.1795,-0.1795,-0.1739,-0.1683,-0.1683,-0.1627,-0.1514,-0.129,-0.1121,-0.1065,-0.1065,-0.0897,-0.0504,0.0616,0.1343,0.2014,0.3804,0.4475,0.4756,0.5427,0.5761,0.5873,0.5873,0.5873,0.5984,0.6429,0.6541,0.6652,0.7099,0.721,0.721,0.721,0.721,0.721,0.721,0.721,0.721,0.721,0.6485,0.5873,0.5873,0.5873,0.5873,0.5873,0.5873,0.5873,0.5873,0.5761,0.565,0.565,0.5483,0.5427,0.5427,0.5427,0.5427,0.5427,0.5427,0.5427,0.5427,0.5427,0.5427,0.5427,0.5427,0.5427,0.5371,0.448,0.4089,0.0,0.0,0.0,0.0,0.0,0.0,0.0,0.0,0.2986,0.0,0.0,0.0,0.0,0.0,0.0,0.0,0.0,0.0,0.0,0.0,0.0,0.0,0.0,0.0,0.0,0.0,0.0,0.0,0.0,0.0,-0.1798,-0.1805,-0.182,-0.1794,-0.1795,-0.1795,-0.1795,-0.1795,-0.1795,-0.1795,-0.1795,-0.1795,-0.1795,-0.1795,-0.1795,-0.1795,-0.1795,-0.1627,-0.129,-0.129,-0.1177,-0.0953,-0.0897,-0.0224,0.0839,0.0839,0.0839,0.1007,0.218,0.3188,0.4085,0.5037,0.5761,0.6207,0.6262,0.6652,0.7154,0.7154,0.7154,0.7154,0.7154,0.7154,0.7154,0.721,0.721,0.721,0.721,0.721,0.721,0.721,0.721,0.721,0.721,0.7154,0.7154,0.7154,0.7154,0.7154,0.7154,0.7154,0.7154,0.7154,0.6596,0.6262,0.6262,0.5761,0.5427,0.5427,0.5427,0.5427,0.5427,0.5427,0.5427,0.5427,0.5427,0.5427,0.5427,0.5427,0.5427,0.5371,0.5371,0.5316,0.0,0.0,0.3609,0.3227,0.0,0.0,0.0,0.0,0.0,0.0,0.0,0.0,0.0,0.0,0.0,0.0,0.0,0.0,0.0,0.0,0.0,0.0,0.0,0.0,0.0,0.0,0.0,0.0,0.0,0.0,0.0,-0.1757,-0.1785,-0.1795,-0.1795,-0.1795,-0.1795,-0.1795,-0.1795,-0.1795,-0.1795,-0.1795,-0.1795,-0.1795,-0.1683,-0.1458,-0.1458,-0.129,-0.0953,-0.0168,0.0224,0.0392,0.1343,0.2014,0.2237,0.1287,0.151,0.2573,0.397,0.52,0.6149,0.6485,0.6707,0.6874,0.6874,0.7043,0.721,0.721,0.721,0.721,0.721,0.721,0.721,0.721,0.721,0.721,0.721,0.721,0.721,0.721,0.721,0.721,0.721,0.721,0.721,0.721,0.721,0.721,0.721,0.721,0.721,0.721,0.7043,0.6874,0.6874,0.6707,0.6596,0.6596,0.6596,0.6596,0.6596,0.6596,0.6596,0.6596,0.6596,0.6596,0.6596,0.6596,0.6596,0.6596,0.6596,0.6151,0.318,0.3432,0.0,0.0,0.3641,0.0,0.0,0.0,0.0,0.0,0.0,0.0,0.0,0.0,0.0,0.0,0.0,0.0,0.0,0.0,0.0,0.0,0.0,0.0,0.0,0.0,-0.1447,-0.1566,0.0,0.0,0.0,0.0,-0.1773,-0.1794,-0.1795,-0.1795,-0.1795,-0.1795,-0.1739,-0.1627,-0.1627,-0.157,-0.1458,-0.1458,-0.1346,-0.1177,-0.1177,-0.1009,-0.0617,0.056,0.1119,0.1343,0.2741,0.3523,0.3802,0.2852,0.3354,0.4695,0.5701,0.6541,0.721,0.721,0.721,0.721,0.721,0.721,0.721,0.721,0.721,0.721,0.721,0.721,0.721,0.721,0.721,0.721,0.721,0.721,0.721,0.721,0.721,0.721,0.721,0.721,0.721,0.721,0.721,0.721,0.721,0.721,0.721,0.721,0.721,0.721,0.721,0.721,0.721,0.721,0.721,0.721,0.721,0.721,0.721,0.721,0.721,0.721,0.721,0.721,0.721,0.721,0.721,0.6765]},{"header":{"parameterUnit":"m.s-1","parameterCategory":1,"la1":30.6,"la2":29.2853,"lo1":-89.7004,"lo2":-87.6739,"dy":0.0162,"dx":0.0183,"nx":112,"ny":82,"refTime":"2024-08-22T06:00:00:Z","depth":0,"parameterNumber":3,"parameterNumberName":"V-component_of_WINDS"},"data":[0.0,0.0,0.0,0.0,0.0,0.0,0.0,0.0,0.0,0.0,0.0,0.0,0.0,0.0,0.0,0.0,0.0,0.0,0.0,0.0,0.0,0.0,0.0,0.0,0.0,0.0,0.0,0.0,0.0,0.0,0.0,0.0,0.0,0.0,0.0,0.0,0.0,0.0,0.0,0.0,0.0,0.0,0.0,0.0,0.0,0.0,0.0,0.0,0.0,0.0,0.0,0.0,0.0,0.0,0.0,0.0,0.0,0.0,0.0,0.0,0.0,0.0,0.0,0.0,0.0,0.0,0.0,0.0,0.0,0.0,0.0,0.0,0.0,0.0,0.0,0.0,0.0,0.0,0.0,0.0,0.0,0.0,0.0,0.0,0.0,0.0,0.0,0.0,0.0,0.0,0.0,1.5446,1.5009,1.4705,1.4761,1.451,1.3931,1.2986,0.0,0.0,0.0,0.0,0.0,0.0,0.0,0.0,0.0,0.0,0.0,0.0,0.0,0.0,0.0,0.0,0.0,0.0,0.0,0.0,0.0,0.0,0.0,0.0,0.0,0.0,0.0,0.0,0.0,0.0,0.0,0.0,0.0,0.0,0.0,0.0,0.0,0.0,0.0,0.0,0.0,0.0,0.0,0.0,0.0,0.0,0.0,0.0,0.0,0.0,0.0,0.0,0.0,0.0,0.0,0.0,0.0,0.0,0.0,0.0,0.0,0.0,0.0,0.0,0.0,0.0,0.0,0.0,0.0,0.0,0.0,0.0,0.0,0.0,0.0,0.0,0.0,0.0,0.0,0.0,0.0,0.0,0.0,0.0,0.0,0.0,0.0,0.0,0.0,0.0,0.0,0.0,0.0,0.0,0.0,0.0,0.0,0.0,0.0,0.0,0.0,0.0,0.0,0.0,1.4175,1.5177,1.5119,1.5164,1.5491,1.5505,1.5011,1.3954,0.0,0.0,0.0,0.0,0.0,0.0,0.0,0.0,0.0,0.0,0.0,0.0,0.0,0.0,0.0,0.0,0.0,0.0,0.0,0.0,0.0,0.0,0.0,0.0,0.0,0.0,0.0,0.0,0.0,0.0,0.0,0.0,0.0,0.0,0.0,0.0,0.0,0.0,0.0,0.0,0.0,0.0,0.0,0.0,0.0,0.0,0.0,0.0,0.0,0.0,0.0,0.0,0.0,0.0,0.0,0.0,0.0,0.0,0.0,0.0,0.0,0.0,0.0,0.0,0.0,0.0,0.0,0.0,0.0,0.0,0.0,0.0,0.0,0.0,0.0,0.0,0.0,0.0,0.0,0.0,0.0,0.0,0.0,0.0,0.0,0.0,0.0,0.0,0.0,0.0,0.0,0.0,0.0,0.0,0.0,0.0,0.0,0.0,0.0,0.0,0.0,0.0,0.0,1.4109,1.4419,1.507,1.53,1.5487,1.567,1.5689,1.5073,1.3555,1.2914,0.0,0.0,0.0,0.0,0.0,0.0,0.0,0.0,0.0,0.0,0.0,0.0,0.0,0.0,0.0,0.0,0.0,0.0,0.0,0.0,0.0,0.0,0.0,0.0,0.0,0.0,0.0,0.0,0.0,0.0,0.0,0.0,0.0,0.0,0.0,0.0,0.0,0.0,0.0,0.0,0.0,0.0,0.0,0.0,0.0,0.0,0.0,0.0,0.0,0.0,0.0,0.0,0.0,0.0,0.0,0.0,0.0,0.0,0.0,0.0,0.0,0.0,0.0,0.0,0.0,0.0,0.0,0.0,0.0,0.0,0.0,0.0,0.0,0.0,0.0,0.0,0.0,0.0,0.0,0.0,0.0,0.0,0.0,0.0,0.0,0.0,0.0,0.0,0.0,0.0,0.0,0.0,0.0,0.0,0.0,0.0,0.0,0.0,0.0,0.0,0.0,0.0,1.4561,1.4896,1.4961,1.5395,1.5652,1.556,1.546,1.4717,1.3103,1.2622,0.0,0.0,0.0,0.0,0.0,0.0,0.0,0.0,0.0,0.0,0.0,0.0,0.0,0.0,0.0,0.0,0.0,0.0,0.0,0.0,0.0,0.0,0.0,0.0,0.0,0.0,0.0,0.0,0.0,0.0,0.0,0.0,0.0,0.0,0.0,0.0,0.0,0.0,0.0,0.0,0.0,0.0,0.0,0.0,0.0,0.0,0.0,0.0,0.0,0.0,0.0,0.0,0.0,0.0,0.0,0.0,0.0,0.0,0.0,0.0,0.0,0.0,0.0,0.0,0.0,0.0,0.0,0.0,0.0,0.0,0.0,0.0,0.0,0.0,0.0,0.0,0.0,0.0,0.0,0.0,0.0,0.0,0.0,0.0,0.0,0.0,0.0,0.0,0.0,0.0,0.0,0.0,0.0,0.0,0.0,0.0,0.0,0.0,0.0,0.0,0.0,0.0,1.4643,1.5408,1.4618,1.5239,1.5542,1.5175,1.4808,1.4222,1.3323,1.2204,0.0,0.0,0.0,0.0,0.0,0.0,0.0,0.0,0.0,0.0,0.0,0.0,0.0,0.0,0.0,0.0,0.0,0.0,0.0,0.0,0.0,0.0,0.0,0.0,0.0,0.0,0.0,0.0,0.0,0.0,0.0,0.0,0.0,0.0,0.0,0.0,0.0,0.0,0.0,0.0,0.0,0.0,0.0,0.0,0.0,0.0,0.0,0.0,0.0,0.0,0.0,0.0,0.0,0.0,0.0,0.0,0.0,0.0,0.0,0.0,0.0,0.0,0.0,0.0,0.0,0.0,0.0,0.0,0.0,0.0,0.0,0.0,0.0,0.0,0.0,0.0,0.0,0.0,0.0,0.0,0.0,0.0,0.0,0.0,0.0,0.0,0.0,0.0,0.0,0.0,0.0,0.0,0.0,0.0,0.0,0.0,0.0,0.0,0.0,0.0,0.0,0.0,1.4574,1.5485,0.0,1.5597,1.5817,1.5157,1.4964,1.4203,1.2661,0.0,0.0,0.0,0.0,0.0,0.0,0.0,0.0,0.0,0.0,0.0,0.0,0.0,0.0,0.0,0.0,0.0,0.0,0.0,0.0,0.0,0.0,0.0,0.0,0.0,0.0,0.0,0.0,0.0,0.0,0.0,0.0,0.0,0.0,0.0,0.0,0.0,0.0,0.0,0.0,0.0,0.0,0.0,0.0,0.0,0.0,0.0,0.0,0.0,0.0,0.0,0.0,0.0,0.0,0.0,0.0,0.0,0.0,0.0,0.0,0.0,0.0,0.0,0.0,0.0,0.0,0.0,0.0,0.0,0.0,0.0,0.0,0.0,0.0,0.0,0.0,0.0,0.0,0.0,0.0,0.0,0.0,0.0,0.0,0.0,0.0,0.0,0.0,0.0,0.0,0.0,0.0,0.0,0.0,0.0,0.0,0.0,0.0,0.0,0.0,0.0,0.0,1.3433,1.4971,1.5939,0.0,1.5987,1.5998,1.5312,1.4925,1.3969,1.2277,0.0,0.0,0.0,0.0,0.0,0.0,0.0,0.0,0.0,0.0,0.0,0.0,0.0,0.0,0.0,0.0,0.0,0.0,0.0,0.0,0.0,0.0,0.0,0.0,0.0,0.0,0.0,0.0,0.0,0.0,0.0,0.0,0.0,0.0,0.0,0.0,0.0,0.0,0.0,0.0,0.0,0.0,0.0,0.0,0.0,0.0,0.0,0.0,0.0,0.0,0.0,0.0,0.0,0.0,0.0,0.0,0.0,0.0,0.0,0.0,0.0,0.0,0.0,0.0,0.0,0.0,0.0,0.0,0.0,0.0,0.0,0.0,0.0,0.0,0.0,0.0,0.0,0.0,0.0,0.0,0.0,0.0,0.0,0.0,0.0,0.0,0.0,0.0,0.0,0.0,0.0,0.0,0.0,0.0,0.0,0.0,0.0,0.0,0.0,0.0,0.0,0.0,1.4399,1.5987,1.6969,1.6538,1.6342,1.6062,1.5645,1.4506,1.3396,0.0,0.0,0.0,0.0,0.0,0.0,0.0,0.0,0.0,0.0,0.0,0.0,0.0,0.0,0.0,0.0,0.0,0.0,0.0,0.0,0.0,0.0,0.0,0.0,0.0,0.0,0.0,0.0,0.0,0.0,0.0,0.0,0.0,0.0,0.0,0.0,0.0,0.0,0.0,0.0,0.0,0.0,0.0,0.0,0.0,0.0,0.0,0.0,0.0,0.0,0.0,0.0,0.0,0.0,0.0,0.0,0.0,0.0,0.0,0.0,0.0,0.0,0.0,0.0,0.0,0.0,0.0,0.0,0.0,0.0,0.0,0.0,0.0,0.0,0.0,0.0,0.0,0.0,0.0,0.0,0.0,0.0,0.0,0.0,0.0,0.0,0.0,0.0,0.0,0.0,0.0,0.0,0.0,0.0,0.0,0.0,0.0,0.0,0.0,0.0,0.0,0.0,0.0,1.4468,1.6907,1.8087,1.6648,1.7045,1.6919,1.5704,1.5673,1.4754,1.2584,0.0,0.0,0.0,0.0,0.0,0.0,0.0,0.0,0.0,0.0,0.0,0.0,0.0,0.0,0.0,0.0,0.0,0.0,0.0,0.0,0.0,0.0,0.0,0.0,0.0,0.0,0.0,0.0,0.0,0.0,0.0,0.0,0.0,0.0,0.0,0.0,0.0,0.0,0.0,0.0,0.0,0.0,0.0,0.0,0.0,0.0,0.0,0.0,0.0,0.0,0.0,0.0,0.0,0.0,0.0,0.0,0.0,0.0,0.0,0.0,0.0,0.0,0.0,0.0,0.0,0.0,0.0,0.0,0.0,0.0,0.0,0.0,0.0,0.0,0.0,0.0,0.0,0.0,0.0,0.0,0.0,0.0,0.0,0.0,0.0,0.0,0.0,0.0,0.0,0.0,0.0,0.0,0.0,0.0,0.0,0.0,0.0,0.0,0.0,0.0,0.0,0.0,1.5017,1.755,1.8963,1.7824,1.8018,1.7854,1.691,1.6814,1.5852,1.3635,0.0,0.0,0.0,0.0,0.0,0.0,0.0,0.0,0.0,0.0,0.0,0.0,0.0,0.0,0.0,0.0,0.0,0.0,0.0,0.0,0.0,0.0,0.0,0.0,0.0,0.0,0.0,0.0,0.0,0.0,0.0,0.0,0.0,0.0,0.0,0.0,0.0,0.0,0.0,0.0,0.0,0.0,0.0,0.0,0.0,0.0,0.0,0.0,0.0,0.0,0.0,0.0,0.0,0.0,0.0,0.0,0.0,0.0,0.0,0.0,0.0,0.0,0.0,0.0,0.0,0.0,0.0,0.0,0.0,0.0,0.0,0.0,0.0,0.0,0.0,0.0,0.0,0.0,0.0,0.0,0.0,0.0,0.0,0.0,0.0,0.0,0.0,0.0,0.0,0.0,0.0,0.0,0.0,0.0,0.0,0.0,0.0,0.0,0.0,0.0,0.0,0.0,1.5886,1.804,1.9521,1.9463,1.9078,1.8802,1.8717,1.7915,1.6775,1.5266,0.0,0.0,0.0,0.0,0.0,0.0,0.0,0.0,0.0,0.0,0.0,0.0,0.0,0.0,0.0,0.0,0.0,0.0,0.0,0.0,0.0,0.0,0.0,0.0,0.0,0.0,0.0,0.0,0.0,0.0,0.0,0.0,0.0,0.0,0.0,0.0,0.0,0.0,0.0,0.0,0.0,0.0,0.0,0.0,0.0,0.0,0.0,0.0,0.0,0.0,0.0,0.0,0.0,0.0,0.0,0.0,0.0,0.0,0.0,0.0,1.9624,0.0,0.0,0.0,0.0,0.0,0.0,0.0,0.0,0.0,0.0,0.0,0.0,0.0,0.0,0.0,0.0,0.0,0.0,0.0,0.0,0.0,0.0,0.0,0.0,0.0,0.0,0.0,0.0,0.0,0.0,0.0,0.0,0.0,0.0,0.0,0.0,0.0,0.0,0.0,0.0,0.0,1.6526,1.8532,1.9681,1.916,1.9627,1.9613,1.878,1.9043,1.8464,1.6592,0.0,0.0,0.0,0.0,0.0,0.0,0.0,0.0,0.0,0.0,0.0,0.0,0.0,0.0,0.0,0.0,0.0,0.0,0.0,0.0,0.0,0.0,0.0,0.0,0.0,0.0,0.0,0.0,0.0,0.0,0.0,0.0,0.0,0.0,0.0,0.0,0.0,0.0,0.0,0.0,0.0,0.0,0.0,0.0,0.0,0.0,0.0,0.0,0.0,0.0,0.0,0.0,0.0,0.0,0.0,0.0,0.0,0.0,0.0,0.0,0.0,2.1098,0.0,0.0,0.0,0.0,0.0,0.0,0.0,0.0,0.0,0.0,0.0,0.0,0.0,0.0,0.0,0.0,0.0,0.0,0.0,0.0,0.0,0.0,0.0,0.0,0.0,0.0,0.0,0.0,0.0,0.0,0.0,0.0,0.0,0.0,0.0,0.0,0.0,0.0,0.0,0.0,1.6754,1.8727,2.0055,1.996,2.0386,2.0517,2.0249,2.034,1.9773,1.8245,1.7734,0.0,0.0,0.0,0.0,0.0,0.0,0.0,0.0,0.0,0.0,0.0,0.0,0.0,0.0,0.0,0.0,0.0,0.0,0.0,0.0,0.0,0.0,0.0,0.0,0.0,0.0,0.0,0.0,0.0,0.0,0.0,0.0,0.0,0.0,0.0,0.0,0.0,0.0,0.0,0.0,0.0,0.0,0.0,0.0,0.0,0.0,0.0,0.0,0.0,0.0,0.0,0.0,0.0,2.5401,2.5394,2.5266,2.4754,2.5159,2.6164,2.4471,2.3901,2.407,0.0,0.0,0.0,0.0,0.0,0.0,0.0,0.0,0.0,0.0,0.0,0.0,0.0,0.0,0.0,0.0,0.0,0.0,0.0,0.0,0.0,0.0,0.0,0.0,0.0,2.5953,2.5693,0.0,0.0,0.0,0.0,0.0,0.0,0.0,0.0,0.0,0.0,0.0,0.0,1.7382,1.9082,2.0407,2.0838,2.0948,2.1186,2.1694,2.1469,2.0897,2.0002,1.9293,1.8498,0.0,0.0,0.0,0.0,0.0,0.0,0.0,0.0,0.0,0.0,0.0,0.0,0.0,0.0,0.0,0.0,0.0,0.0,0.0,0.0,0.0,0.0,0.0,0.0,0.0,0.0,0.0,0.0,0.0,0.0,0.0,0.0,2.3572,2.4327,0.0,0.0,0.0,0.0,0.0,0.0,0.0,0.0,0.0,0.0,0.0,0.0,0.0,0.0,2.8107,2.8125,2.8089,2.8089,2.8584,2.8546,2.7972,2.7892,2.797,2.8133,2.783,0.0,2.5743,2.6024,0.0,0.0,0.0,0.0,0.0,0.0,0.0,0.0,0.0,0.0,0.0,0.0,0.0,0.0,0.0,0.0,0.0,0.0,0.0,0.0,0.0,0.0,2.8206,2.8194,2.8265,2.8206,0.0,2.4731,2.1844,2.1116,0.0,0.0,0.0,0.0,0.0,0.0,0.0,0.0,1.9754,2.0193,2.0412,2.0489,2.0782,2.1039,2.1113,2.1638,2.1888,2.1665,2.0394,1.9747,1.9947,1.8472,0.0,0.0,0.0,0.0,0.0,0.0,0.0,0.0,0.0,0.0,0.0,0.0,0.0,0.0,0.0,0.0,0.0,0.0,0.0,0.0,0.0,0.0,0.0,0.0,0.0,0.0,0.0,0.0,0.0,2.3161,2.4636,2.5338,2.5269,2.5015,0.0,0.0,0.0,0.0,0.0,0.0,0.0,0.0,0.0,2.8415,2.8553,2.9126,3.0308,3.0632,3.0586,3.0229,3.0521,3.0262,2.9576,2.9203,2.9282,2.961,2.9277,2.896,2.8592,2.7384,2.6307,2.5318,0.0,0.0,0.0,0.0,0.0,2.5819,2.7089,2.7697,0.0,0.0,0.0,0.0,0.0,0.0,0.0,0.0,0.0,0.0,0.0,0.0,0.0,2.9957,2.9767,2.9344,2.8907,2.7056,2.5135,0.0,2.3084,2.1993,2.0761,0.0,0.0,0.0,0.0,0.0,2.0303,2.0716,2.1063,2.137,2.1577,2.1952,2.2643,2.263,2.2638,2.2671,2.1706,2.1081,2.0955,1.9909,1.9075,0.0,0.0,0.0,0.0,0.0,0.0,0.0,0.0,0.0,0.0,0.0,0.0,0.0,0.0,0.0,0.0,0.0,0.0,0.0,0.0,0.0,0.0,0.0,0.0,0.0,0.0,0.0,0.0,2.4805,2.5966,2.6756,2.6813,2.6583,0.0,0.0,0.0,0.0,0.0,0.0,2.826,2.8255,2.8993,3.0652,3.1041,3.1579,3.2359,3.2688,3.2648,3.2145,3.2145,3.1768,3.106,3.0601,3.0666,3.1119,3.0461,3.0542,3.0938,2.8783,2.7742,2.7403,2.6649,2.626,2.6218,2.6947,2.7598,2.8262,2.9334,2.99,2.9966,2.9197,0.0,2.8075,2.6174,0.0,0.0,0.0,0.0,2.8946,3.0069,3.0364,3.0438,3.0763,3.0468,2.9895,2.9134,2.8418,2.7598,0.0,2.5254,2.4002,2.2509,0.0,0.0,0.0,0.0,2.0927,2.102,2.1372,2.1763,2.2166,2.2194,2.2566,2.3446,2.3217,2.304,2.3151,2.2534,2.2067,2.1793,2.1184,2.0607,0.0,0.0,0.0,0.0,0.0,0.0,0.0,0.0,0.0,0.0,0.0,0.0,0.0,0.0,0.0,0.0,0.0,0.0,0.0,0.0,0.0,0.0,0.0,0.0,0.0,0.0,0.0,0.0,0.0,0.0,2.9548,2.9266,0.0,0.0,0.0,0.0,2.903,2.9962,3.0945,3.1904,3.1643,3.2198,3.3715,3.3176,3.3456,3.4718,3.4195,3.39,3.3885,3.3885,3.3515,3.2882,3.2853,3.2838,3.284,3.2161,3.1912,3.1868,3.0967,3.0,2.9085,2.9027,2.8612,2.8168,2.8958,2.958,3.007,3.0909,3.0702,3.0187,3.0778,3.0085,2.9066,2.9139,2.8625,0.0,0.0,2.9479,3.0173,3.0881,3.1058,3.091,3.0306,3.0115,2.9895,2.9245,2.8569,2.7815,0.0,2.6187,2.5528,2.4902,0.0,2.3029,2.2933,2.2503,2.2337,2.2731,2.2411,2.2161,2.2203,2.221,2.2227,2.2295,2.2731,2.2993,2.301,2.2517,2.2401,2.2803,2.2365,2.1833,2.1231,2.0648,0.0,0.0,0.0,0.0,0.0,0.0,0.0,0.0,0.0,0.0,0.0,0.0,0.0,0.0,0.0,0.0,0.0,0.0,0.0,0.0,0.0,0.0,0.0,0.0,0.0,0.0,0.0,0.0,3.0026,3.0616,0.0,0.0,3.0778,3.1087,3.11,3.1782,3.2555,3.3323,3.3634,3.4259,3.5185,3.541,3.5735,3.6173,3.5539,3.52,3.52,3.4787,3.4463,3.4212,3.3832,3.364,3.361,3.2932,3.2491,3.2167,3.1885,3.1219,3.0441,3.0514,3.0411,3.0249,3.0615,3.0863,3.1038,3.1334,3.1231,3.1038,3.1291,3.0741,3.0024,3.008,2.9916,2.9727,2.995,3.0473,3.1053,3.1306,3.1366,3.1187,3.0517,3.0056,2.958,2.8803,2.8109,2.7539,2.7122,2.6861,2.6502,2.5876,2.5425,2.4844,2.4007,2.3725,2.3458,2.3096,2.2865,2.2752,2.2661,2.2648,2.2828,2.3273,2.3059,2.3117,2.3555,2.3003,2.276,2.3029,2.2797,2.2637,2.2578,2.1924,2.0878,0.0,0.0,0.0,0.0,0.0,0.0,0.0,0.0,0.0,0.0,0.0,0.0,0.0,0.0,0.0,0.0,0.0,0.0,0.0,0.0,0.0,0.0,0.0,0.0,0.0,0.0,3.1707,3.1521,3.2302,3.2661,3.2182,3.282,3.343,3.386,3.4211,3.473,3.5429,3.5648,3.5959,3.6373,3.6837,3.7075,3.7075,3.6645,3.6285,3.6111,3.5648,3.5322,3.51,3.4703,3.451,3.4466,3.3815,3.3327,3.3018,3.2809,3.2392,3.1857,3.15,3.138,3.138,3.1467,3.1511,3.1511,3.1511,3.164,3.1768,3.1553,3.1451,3.139,3.12,3.1144,3.1144,3.1144,3.1308,3.1511,3.1511,3.1331,3.0987,3.0357,2.9714,2.9056,2.8278,2.7776,2.7437,2.7346,2.7244,2.7074,2.6606,2.6533,2.6164,2.5088,2.4749,2.4343,2.3604,2.3303,2.3135,2.3045,2.3045,2.322,2.3666,2.3248,2.3167,2.3666,2.3248,2.3037,2.3171,2.2841,2.2826,2.3246,2.2927,2.2429,2.1743,0.0,0.0,0.0,0.0,0.0,0.0,0.0,0.0,0.0,0.0,0.0,0.0,0.0,0.0,0.0,0.0,0.0,0.0,0.0,0.0,0.0,0.0,0.0,3.2406,3.2964,3.3637,3.4201,3.4415,3.4424,3.4316,3.5049,3.6073,3.7315,3.7297,3.7531,3.8332,3.7655,3.7292,3.7434,3.7464,3.7464,3.7464,3.7449,3.7135,3.6507,3.6492,3.6148,3.5504,3.5504,3.5504,3.5474,3.4801,3.4533,3.4459,3.3784,3.3545,3.3395,3.2034,3.154,3.1569,3.1539,3.1539,3.1553,3.1553,3.1938,3.2342,3.1739,3.2312,3.3093,3.2574,3.241,3.241,3.241,3.2007,3.1553,3.1553,3.1044,3.0398,2.9783,2.9124,2.8464,2.776,2.765,2.765,2.765,2.7448,2.7258,2.7233,2.7192,2.6986,2.6312,2.5673,0.0,2.4412,2.377,2.3356,2.3319,2.3334,2.3349,2.3349,2.3231,2.3223,2.3371,2.3238,2.3216,2.3371,2.2687,2.2592,2.3215,2.3704,2.4271,2.4863,0.0,0.0,0.0,0.0,0.0,0.0,0.0,0.0,0.0,0.0,0.0,0.0,0.0,0.0,0.0,0.0,0.0,0.0,0.0,0.0,0.0,0.0,3.4096,3.3163,3.4803,3.6034,3.5823,3.6258,3.6551,3.6513,3.6743,3.703,3.7375,3.7385,3.746,3.7674,3.7938,3.8088,3.8123,3.8601,3.8871,3.8871,3.8377,3.7793,3.715,3.6701,3.6148,3.5504,3.5504,3.5504,3.5489,3.531,3.4936,3.4503,3.4309,3.4212,3.4041,3.2735,3.2492,3.282,3.2331,3.2394,3.2718,3.2718,3.2826,3.2933,3.2788,3.2933,3.3156,3.3013,3.2986,3.2986,3.2986,3.2853,3.2718,3.2718,3.2193,3.1404,3.0426,2.9888,2.9341,2.8336,2.84,2.8677,2.8677,2.863,2.8343,2.7625,2.7499,2.725,2.6594,2.6609,0.0,2.5039,2.5017,2.4758,2.3833,2.4167,2.4475,2.4534,2.4453,2.4585,0.0,2.4476,2.4471,2.5076,2.4821,2.5031,2.5834,2.5581,2.5738,0.0,0.0,0.0,0.0,0.0,0.0,0.0,0.0,0.0,0.0,0.0,0.0,0.0,0.0,0.0,0.0,0.0,0.0,0.0,0.0,0.0,0.0,3.6042,3.6644,3.6334,3.7058,3.7508,3.721,3.7568,3.7808,3.7831,3.7827,3.7943,3.8227,3.8257,3.8257,3.8257,3.8616,3.8826,3.8826,3.9215,3.9388,3.9388,3.902,3.8347,3.7404,3.7045,3.6387,3.5504,3.5504,3.5504,0.0,3.5504,3.5426,3.5304,3.5304,3.5447,0.0,0.0,0.0,0.0,0.0,3.2933,3.3182,3.3182,3.3371,3.3527,3.3277,3.3537,3.386,3.3646,3.3594,3.3594,3.3594,3.3381,3.3182,3.3182,3.243,3.1517,3.0832,3.0152,2.9438,2.8787,2.8873,2.9097,2.9097,0.0,0.0,2.8334,2.8238,2.81,2.7701,2.7651,2.733,2.6485,2.635,2.6047,2.5319,2.5586,2.5855,2.5877,2.5796,0.0,0.0,0.0,2.5654,2.5868,2.6052,0.0,0.0,0.0,0.0,0.0,0.0,0.0,0.0,2.8646,2.874,0.0,0.0,0.0,0.0,0.0,0.0,0.0,0.0,0.0,0.0,0.0,0.0,0.0,0.0,0.0,0.0,3.8586,3.9707,4.0426,3.9388,3.8589,3.8625,3.8718,3.8763,3.8753,3.8732,3.8983,3.96,3.9589,3.9553,3.961,0.0,0.0,0.0,0.0,3.961,3.9517,3.9517,3.8807,3.7404,3.7404,3.6746,3.5504,3.5569,3.5587,3.5587,3.5683,3.6037,3.6508,3.6508,3.692,3.7345,3.5439,3.4598,3.435,3.3741,3.3497,0.0,3.3459,0.0,0.0,3.363,3.4127,3.4851,3.4374,3.4226,3.4226,3.4226,3.385,3.3459,3.3459,3.2383,3.1292,3.1244,3.0259,2.928,2.9212,2.9234,2.928,2.9257,2.9257,2.9257,2.9257,2.9166,2.9097,2.9097,2.8643,2.8259,2.8196,2.7705,2.7312,2.719,0.0,0.0,2.7301,2.7163,2.7184,2.7365,2.7248,2.6941,2.64,2.7052,2.7966,2.9095,2.9708,3.0969,3.2834,3.3475,3.3839,3.3856,3.0393,2.9775,0.0,0.0,0.0,0.0,0.0,0.0,0.0,0.0,0.0,0.0,0.0,0.0,0.0,0.0,0.0,3.9611,4.0167,4.0546,4.111,4.0978,4.079,4.0793,4.0867,4.09,4.0906,4.0909,4.0953,4.1078,4.06,4.0512,4.106,4.0581,0.0,4.1093,4.1093,4.0823,4.0285,4.0285,3.9336,3.7404,0.0,0.0,3.5504,3.599,3.6227,3.6258,3.6814,3.7101,3.7221,3.7221,3.7618,3.8169,3.7078,3.6034,3.5159,3.5481,3.5307,3.489,3.489,3.4954,3.5041,3.493,3.5024,3.5198,3.5088,3.5065,0.0,3.5065,3.4977,3.489,3.489,3.3812,3.259,3.2177,3.1298,3.0426,2.9924,3.0135,3.0363,3.0258,3.0236,3.0236,3.0236,2.9595,2.9097,2.9097,2.9304,2.9258,2.8662,2.88,2.8592,2.768,2.807,2.8409,2.8467,2.8388,2.8514,2.8923,2.8923,2.8858,2.8746,2.999,3.0805,3.1061,3.1753,3.259,3.3597,3.3723,3.4104,3.4667,3.3924,3.378,0.0,0.0,0.0,0.0,0.0,0.0,0.0,0.0,0.0,0.0,0.0,3.7131,3.8908,0.0,3.9815,4.1531,4.1805,4.2028,4.2649,4.2708,4.2339,4.1508,4.1468,4.15,4.15,4.1502,4.1492,4.1492,4.1194,4.116,4.1492,4.1194,4.116,4.1492,4.1492,4.1327,4.0992,4.1008,4.014,3.8398,3.8398,3.7755,3.6554,3.686,3.7041,3.7115,3.7442,3.7777,3.8092,3.8418,3.8783,3.9065,3.8622,3.784,3.6886,3.6478,3.6097,3.58,3.5425,3.5291,3.5291,3.5291,3.5291,3.5291,3.5291,3.5291,3.5291,3.5291,3.5291,3.5291,3.5291,3.4203,3.3016,3.2763,3.1779,3.0831,3.051,3.0572,3.0671,3.0609,3.0547,3.0506,3.0506,3.0113,2.9793,2.9793,3.0006,3.0025,2.9644,2.9819,2.9733,2.9149,2.9403,2.9615,2.9653,2.9615,2.9699,2.9943,2.9943,2.9943,2.9943,3.1019,3.1763,3.215,3.2862,3.3607,3.4336,3.4336,3.4535,3.4899,3.4899,3.4899,0.0,0.0,0.0,0.0,0.0,0.0,0.0,0.0,3.6011,3.8294,3.9225,4.0011,4.1242,4.1468,4.1853,4.306,4.325,4.3468,4.4013,4.3998,4.3381,4.1875,4.1829,4.191,4.191,4.1916,4.1917,4.1917,4.1787,4.1754,4.1884,4.1787,4.1787,4.1949,4.1949,4.1917,4.1788,4.1788,4.1103,3.9723,3.9549,3.8913,3.7839,3.7812,3.7863,3.7978,3.8108,3.8446,3.8924,3.9487,3.9703,3.9729,3.9729,3.9403,3.8732,3.7373,3.6685,3.639,3.5803,3.5478,3.536,3.536,3.536,3.536,3.536,3.536,3.536,3.536,3.536,3.536,3.536,3.427,3.3163,3.3163,3.2022,3.0952,3.0932,3.0834,3.0753,3.0733,3.0651,3.0589,3.0589,3.0589,3.0568,3.0506,3.0506,3.0506,3.0506,3.0506,3.0506,3.0506,3.0506,3.0506,3.0506,3.0506,3.0506,3.0506,3.0506,3.0555,3.0704,3.1416,3.2166,3.2917,3.3624,3.4303,3.4899,3.4899,3.4899,3.4899,3.4899,3.4899,3.4706,3.4456,3.4999,3.6939,3.6186,3.6035,0.0,0.0,3.9123,4.1339,4.1863,4.2185,4.2987,4.3139,4.3354,4.4041,4.4147,4.4123,4.4126,4.4085,4.3767,4.2931,4.3136,4.3376,4.3376,4.3383,4.3372,4.3372,4.2803,4.2741,4.3325,4.2803,4.2851,4.3598,4.3628,4.3369,4.2845,4.2829,4.2161,4.0798,4.0159,3.9455,3.8761,3.8634,3.858,3.8635,3.9216,3.953,3.9582,3.9677,3.9781,3.9875,3.9875,3.9885,3.98,3.8882,3.7778,3.6732,3.6664,3.6151,3.5554,3.5554,3.5554,3.5554,3.5554,3.5554,3.5554,3.5554,3.5554,3.5554,3.5554,3.4479,3.3381,3.3381,3.2232,3.1131,3.1015,3.0975,3.0955,3.0892,3.0871,3.0851,3.0851,3.0851,3.0773,3.0547,3.0506,3.0506,3.0506,3.0506,3.0506,3.0506,3.0506,3.0506,3.0506,3.0506,3.0506,3.0506,3.0506,3.0787,3.1449,3.2199,3.2911,3.3657,3.4386,3.4816,3.4899,3.4899,3.4899,3.4899,3.4899,3.4899,3.5815,3.6211,3.6898,0.0,3.8793,3.953,4.1881,4.1881,4.1764,4.3125,4.3528,4.3724,4.4028,4.4096,4.417,0.0,4.4468,4.4457,4.44,4.39,4.3457,4.3138,4.3203,4.3215,4.3082,4.3393,4.3658,4.3763,4.3492,4.3522,4.3864,4.3641,4.3641,4.3998,4.4027,4.3906,4.3651,4.3651,4.3151,4.2144,4.1848,4.1148,4.0139,4.0043,3.9854,3.9532,3.9799,3.9918,3.9918,3.9918,3.9961,4.0011,4.0011,4.0062,4.0011,3.9226,3.855,3.8031,3.7584,3.6941,3.6299,3.6299,3.5994,3.56,3.56,3.56,3.56,3.56,3.56,3.56,3.56,3.4805,3.4032,3.4032,3.2899,3.1952,3.2313,3.1999,3.1769,3.2219,3.2039,3.1822,3.1822,3.1664,3.1507,3.1395,3.1001,3.0733,3.0733,3.0671,3.0589,3.0506,3.0568,3.0609,3.0609,3.0692,3.0733,3.0733,3.0733,3.1066,3.1795,3.2529,3.3284,3.4018,3.4768,3.5111,3.5111,3.5111,3.5111,3.5111,3.5111,3.5088,3.7227,3.7877,0.0,3.9578,4.0633,4.1703,4.2714,4.2958,4.3162,4.3917,4.4208,4.437,4.4456,4.448,4.4493,4.4592,4.4615,4.4615,4.4615,4.3827,4.3244,4.3244,4.3132,4.3004,4.2846,4.3386,4.3805,4.3939,4.3956,4.3998,4.4097,4.4097,4.4126,4.4155,4.4155,4.4184,4.4258,4.4258,4.3972,4.3435,4.3216,4.2499,4.1343,4.0939,4.0501,4.0096,4.0096,4.0096,4.0096,4.0096,4.0096,4.0096,4.0096,4.0096,4.0045,3.9503,3.9157,3.892,3.8396,3.7719,3.7083,3.688,3.64,3.5893,3.5667,3.56,3.56,3.56,3.56,3.56,3.56,3.5064,3.4532,3.4661,3.37,3.2957,3.3624,3.3259,3.2997,3.3557,3.3362,3.3124,3.3124,3.2903,3.2738,3.2738,3.2104,3.1475,3.1092,3.0942,3.0902,3.0905,3.1001,3.1061,3.1061,3.114,3.1198,3.1198,3.1402,3.1862,3.2588,3.3334,3.4096,3.4825,3.5362,3.5633,3.5633,3.5633,3.5633,3.5633,3.5633,3.5588,0.0,0.0,3.9714,4.1234,4.133,4.1408,4.2938,4.2926,4.2817,4.3565,4.3716,4.3818,4.4061,4.4122,4.4214,4.4563,4.4615,4.4615,4.4615,4.391,4.3392,4.3392,4.3271,4.3188,0.0,4.3719,4.4097,4.4097,4.4097,4.4097,4.4097,4.4097,4.4155,4.431,4.4293,4.4384,4.457,4.457,4.457,4.4536,4.3747,4.2987,4.2202,4.0764,4.013,4.0096,4.0096,4.0096,4.0096,4.0096,4.0096,4.0096,4.0096,4.0096,4.0096,4.0079,3.9622,3.8988,3.8971,3.8481,3.7753,3.7032,3.6778,3.6626,3.5836,3.56,3.56,3.56,3.56,3.56,3.56,3.5064,3.4618,3.5063,3.4545,3.4075,3.4563,3.4637,3.4637,3.4637,3.4637,3.462,3.462,3.4621,3.4621,3.4621,3.3934,3.2929,3.1559,3.1378,3.1529,3.1896,3.1967,3.1967,3.1967,3.1967,3.1967,3.1967,3.2699,3.343,3.4107,3.4892,3.5675,3.6417,3.6452,3.6452,3.6452,3.6452,3.6452,3.6452,3.6452,3.6452,3.9097,0.0,4.118,4.223,4.2787,4.332,4.4383,4.4228,4.3935,4.4179,4.3515,4.3092,4.3718,4.3573,4.3589,4.4171,4.4446,4.4615,4.4615,4.391,4.3392,4.3392,4.3365,0.0,0.0,0.0,0.0,4.4224,4.4224,4.4298,4.4429,4.4429,4.4457,4.4514,4.4497,4.4542,4.4615,4.4615,4.4615,4.4581,4.3284,4.254,4.2236,4.0773,4.0096,4.0096,4.0096,4.0096,4.0096,4.0096,4.0096,4.0096,4.0096,4.0096,4.0146,4.0434,4.0401,4.0148,3.9848,3.9266,3.8582,3.8328,3.7608,3.6745,3.6468,3.6028,3.565,3.598,3.6067,3.6131,3.6392,3.6287,3.6137,3.6277,3.576,3.538,3.6022,3.5779,3.5568,3.606,3.5949,3.5758,3.5758,3.5577,3.5442,3.5442,3.4339,3.309,3.2019,3.1862,3.1897,3.1986,3.2039,3.2057,3.2057,3.2634,3.3002,3.3002,3.3756,3.4528,3.5227,3.5524,3.6015,3.6748,3.6783,3.6783,3.6783,3.6783,3.6783,3.6783,3.6783,3.6726,3.9858,4.0963,4.1886,4.2701,4.33,4.3806,4.4313,4.4185,4.3852,4.3566,4.2813,4.2302,4.2644,4.2473,4.2599,4.3553,4.3886,4.4228,4.4783,4.4014,4.3559,4.4014,4.3681,4.3494,0.0,0.0,0.0,4.4412,4.4412,4.4468,4.4598,4.4615,4.4615,4.4615,4.4615,4.4615,4.4615,4.4615,4.4615,4.4581,4.3301,4.2557,4.2252,4.106,4.0451,4.0353,4.0353,4.0434,4.0611,4.0611,4.0611,4.0611,4.0611,4.0611,4.0635,4.0949,4.1065,4.1019,4.0689,4.0302,3.9856,3.9598,3.886,3.799,3.7435,3.6903,3.65,3.652,3.6512,3.6557,3.6821,3.69,3.6939,3.7094,3.6761,3.6569,3.7232,3.7003,3.6789,3.7268,3.7149,3.6985,3.6985,3.6812,3.6562,3.6272,3.5389,3.4426,3.3542,3.3299,3.3247,3.3351,3.3402,3.3418,3.3418,3.3982,3.4318,3.4318,3.5082,3.5723,3.6203,3.6487,3.6878,3.7357,3.7357,3.7357,3.7357,3.7357,3.7357,3.7357,3.7357,3.732,4.1488,4.1723,4.194,4.2701,4.2901,4.2901,4.2901,4.2883,4.2611,4.185,4.1632,4.1448,4.0969,0.0,4.1481,4.2787,4.3105,4.3674,4.5139,4.4346,4.4031,0.0,0.0,0.0,0.0,0.0,0.0,4.4666,0.0,4.4615,4.4615,4.4615,4.4615,4.4615,4.4615,4.4615,4.4615,4.4615,4.4615,4.4598,4.3819,4.3041,4.2306,4.1603,4.1119,4.0849,4.0849,4.1088,4.1503,4.1503,4.1503,4.1503,4.1503,4.1503,4.1503,4.1525,4.1525,4.1547,4.1569,4.1547,4.138,4.0682,4.0436,4.0137,3.8661,3.8169,3.7958,3.7202,3.6974,3.6939,3.6958,3.6958,3.7055,3.745,3.7542,3.765,3.8106,3.8209,3.8209,3.8209,3.8209,3.8209,3.8209,3.8209,3.7937,3.7176,3.7067,3.6759,3.5912,3.5473,3.5372,3.5754,3.5804,3.5804,3.5804,3.584,3.5858,3.5858,3.6616,3.7067,3.7067,3.7792,3.8209,3.8209,3.8209,3.8209,3.8209,3.8209,3.8209,3.8209,3.8209,3.8209,4.1488,4.214,4.2629,4.2865,4.2901,4.2901,4.2901,4.2448,4.194,4.1741,4.08,4.0112,4.0528,0.0,0.0,4.3059,4.4395,0.0,4.5848,4.6131,0.0,4.6209,0.0,4.6463,4.6252,4.6227,0.0,0.0,4.4891,4.4615,4.4615,4.4615,4.4615,4.4615,4.4615,4.4615,4.4615,4.4615,4.4615,4.4598,4.4192,4.3572,4.2817,4.2469,4.1963,4.1303,4.1303,4.137,4.1503,4.1503,4.1503,4.1503,4.1503,4.1503,4.1547,4.1888,4.2032,4.2074,4.242,4.2077,4.1468,4.1275,4.0858,4.033,3.9926,3.9012,3.8124,3.8206,3.7802,3.7432,3.7774,3.7863,3.7898,3.8003,3.802,3.8054,3.8157,3.8209,3.8209,3.8209,3.8209,3.8209,3.8209,3.8209,3.8136,3.7919,3.7901,3.7377,3.5967,3.5704,3.5688,3.5804,3.5804,3.5804,3.5804,3.6345,3.6705,3.6705,3.7448,3.7901,3.7901,3.81,3.8209,3.8209,3.8209,3.8209,3.8209,3.8209,3.8209,3.8209,3.8209,3.8209,4.2013,4.2556,4.2901,4.2901,4.2901,4.281,4.2448,4.2012,4.1506,4.0836,4.0003,0.0,3.9478,0.0,0.0,0.0,0.0,0.0,4.6825,4.7467,4.7783,0.0,4.7884,0.0,4.7558,4.7548,4.7358,0.0,4.5789,4.4925,4.4632,4.4786,4.4906,4.4906,4.5159,4.5249,4.5249,4.5249,4.5249,4.5249,4.5095,4.4448,4.3346,4.3244,4.2687,4.1803,0.0,4.1931,4.2118,4.2118,4.2118,4.2118,4.2118,4.2118,4.2139,4.2418,4.2498,4.2537,4.2806,4.2557,4.2118,4.2118,4.1815,4.1444,4.1085,4.0372,3.9664,3.9532,3.8923,3.8384,3.8648,3.8462,3.8209,3.8209,3.8209,3.8209,3.8209,3.8209,3.8209,3.8209,3.8209,3.8209,3.8209,3.8209,3.8209,3.8209,3.8209,3.7866,3.6979,3.6852,3.6852,3.6852,3.6852,3.6852,3.6852,3.7285,3.7538,3.7538,3.7955,3.8209,3.8209,3.8209,3.8209,3.8209,3.8209,3.8209,3.8209,3.8209,3.8209,3.8209,3.8209,3.8209,4.2701,4.2901,4.2901,4.2901,4.2901,4.2683,4.1868,4.1614,4.1126,3.9695,0.0,3.9042,3.8336,3.8934,4.0131,4.1922,0.0,4.544,4.7857,4.8482,4.8873,4.9388,4.9135,4.8878,4.8783,4.8783,4.8748,4.8643,4.7052,4.5756,4.499,4.523,4.5407,4.5407,4.5868,4.6098,4.6098,4.6098,4.6098,4.6098,4.6189,4.5457,4.405,4.4031,4.343,4.244,0.0,0.0,4.2901,4.2901,4.2901,4.2901,4.2901,4.2901,4.2901,4.2901,4.2901,4.2901,4.2901,4.2901,4.2901,4.2901,4.2901,4.2755,4.2085,4.1777,4.1542,4.0854,4.013,3.9514,3.9423,3.8879,3.8336,3.8227,3.8209,3.8209,3.8209,3.8209,3.8209,3.8209,3.8209,3.8209,3.8209,3.8209,3.8209,3.8209,3.8209,3.8209,3.8209,3.8209,3.8209,3.8209,3.8209,3.8209,3.8209,3.8209,3.8209,3.8209,3.8209,3.8209,3.8209,3.8209,3.8209,3.8209,3.8209,3.8209,3.8209,3.8209,3.8209,3.8209,3.8209,3.8209,4.2846,4.2901,4.2901,4.2901,4.2901,4.2683,4.1868,4.118,0.0,0.0,3.8862,3.8372,3.8227,3.9351,4.0836,4.2498,0.0,0.0,0.0,0.0,4.9909,0.0,0.0,0.0,0.0,0.0,0.0,0.0,0.0,0.0,4.6863,4.6292,4.595,4.595,4.6049,4.6098,4.6098,4.6098,4.6098,4.6116,4.6548,4.6272,4.5347,4.5132,4.4586,4.3727,0.0,0.0,4.2901,4.2901,4.2901,4.2901,4.2901,4.2901,4.2901,4.2901,4.2901,4.2901,4.2901,4.2901,4.2901,4.2901,4.2901,4.2883,4.2719,4.223,4.1669,4.1524,4.0908,4.0184,3.955,3.9297,3.9024,3.8372,3.8209,3.8209,3.8209,3.8209,3.8209,3.8209,3.8209,3.8209,3.8209,3.8209,3.8209,3.8209,3.8209,3.8209,3.8209,3.8209,3.8209,3.8209,3.8209,3.8209,3.8209,3.8209,3.8209,3.8209,3.8209,3.8209,3.8209,3.8209,3.8209,3.8209,3.8209,3.8209,3.8209,3.8209,3.8209,3.8209,3.8209,3.8209,4.2901,4.2901,4.2901,4.2901,4.2901,4.2574,4.1343,0.0,0.0,0.0,3.848,3.8209,3.8209,0.0,0.0,0.0,0.0,0.0,0.0,0.0,0.0,0.0,0.0,0.0,0.0,0.0,0.0,0.0,0.0,0.0,4.7377,4.6806,4.6637,4.6931,4.6931,4.6931,4.6931,4.6931,4.6931,4.6931,4.7173,4.6888,4.6118,4.5985,4.5254,4.4077,4.3679,0.0,4.2901,4.2901,4.2901,4.2901,4.2901,4.2938,4.2994,4.2994,4.3031,4.305,4.305,4.305,4.305,4.305,4.2994,4.2901,4.2901,4.2629,4.2339,4.2413,4.1851,4.1143,4.078,4.0399,3.9855,3.9024,3.8517,3.8224,3.832,3.837,3.8403,3.8546,3.8562,3.8562,3.8562,3.8562,3.8562,3.8562,3.8562,3.8562,3.8562,3.8433,3.8322,3.8225,3.8209,3.8209,3.8209,3.8209,3.8209,3.8209,3.8209,3.8209,3.8209,3.8209,3.8209,3.8209,3.8209,3.8209,3.8209,3.8209,3.8209,3.8209,3.8209,3.8209,4.2919,4.2901,4.2901,4.2901,4.2901,4.2466,4.0854,4.0492,0.0,0.0,3.8209,3.8209,3.8209,0.0,3.9441,0.0,0.0,0.0,0.0,0.0,0.0,0.0,0.0,0.0,0.0,0.0,0.0,0.0,0.0,0.0,4.7758,4.729,4.7258,4.7696,4.7717,4.7717,4.7717,4.7717,4.7717,4.7717,4.7717,4.7373,4.6778,4.6615,4.5856,4.4681,4.4499,0.0,0.0,4.3211,4.3121,4.2957,4.2957,4.3031,4.3105,4.3105,4.3142,4.3214,4.3214,4.3214,4.3214,4.3214,4.3087,4.2957,4.2957,4.2957,4.2994,4.3086,4.2668,4.2141,4.1977,4.152,4.0878,4.0075,3.9398,3.8988,3.9157,3.9203,3.9194,3.9242,3.9234,3.9178,3.9011,3.8956,3.8956,3.8956,3.8946,3.8917,3.8917,3.8725,3.8528,3.8372,3.8307,3.829,3.8356,3.8356,3.8356,3.8356,3.8356,3.8323,3.8274,3.8274,3.8241,3.8209,3.8209,3.8209,3.8209,3.8209,3.8207,3.8274,3.8274,3.8398,4.2957,4.2901,4.2901,4.2901,4.2901,4.2466,4.0854,0.0,0.0,3.8518,3.8209,3.8209,3.8209,3.8263,3.879,4.0257,0.0,4.3189,0.0,0.0,0.0,0.0,0.0,0.0,0.0,0.0,0.0,0.0,0.0,0.0,0.0,4.8048,4.7657,4.7717,4.7717,4.7717,4.7717,4.7717,4.7717,4.7717,4.7717,4.7723,4.7754,4.7009,4.6633,4.6512,0.0,0.0,0.0,4.4253,4.3834,4.316,4.316,4.3178,4.3196,4.3196,4.3178,4.3214,4.3214,4.3214,4.3214,4.3214,4.3196,4.316,4.316,4.316,4.316,4.3196,4.3142,4.2905,4.2176,4.2161,4.2174,4.1613,4.1437,4.1381,4.1395,4.1409,4.1203,4.0499,4.0349,4.0093,3.9315,3.9165,3.9165,3.9165,3.9063,3.898,3.898,3.8913,3.8866,3.8851,3.8621,3.8572,3.8803,3.8851,3.8851,3.8851,3.8851,3.8728,3.8478,3.8478,3.8385,3.8209,3.8209,3.8209,3.8209,3.8209,3.8289,3.8478,3.8478,3.9004,4.3086,4.3142,4.3087,4.2939,4.2538,4.1886,4.0745,0.0,3.9532,3.8444,3.8209,3.8209,3.8209,3.8209,3.8408,3.9007,3.9387,4.0818,4.4313,0.0,0.0,0.0,0.0,0.0,0.0,0.0,0.0,0.0,0.0,0.0,0.0,4.9007,4.8354,4.7907,4.7888,4.7888,4.7888,4.7888,4.7888,4.7888,4.7888,4.7909,4.7949,4.7622,4.7223,4.6769,0.0,0.0,0.0,4.4601,4.4218,4.3871,4.3397,4.3251,4.3323,4.3323,4.3358,4.3375,4.3375,4.3375,4.3375,4.3375,4.3375,4.3375,4.3251,4.3214,4.3214,4.3305,4.3444,4.3488,4.3174,4.2902,4.2679,4.2469,4.2043,4.1729,4.1918,4.1944,4.1876,4.1675,4.1643,4.1379,4.0556,4.0405,4.0236,3.9703,3.958,3.9537,3.9537,3.9408,3.9337,3.9389,3.8998,3.8788,3.8877,3.891,3.891,3.891,3.891,3.8848,3.8758,3.8743,3.8698,3.8624,3.8624,3.8624,3.8624,3.8624,3.8906,3.9455,3.9455,3.9958,4.2979,4.3242,4.3355,4.3087,4.2414,4.1579,0.0,3.993,3.9187,3.8372,3.8209,3.8209,3.8209,3.8209,3.8209,3.8209,3.8572,3.9894,4.2847,0.0,0.0,0.0,0.0,0.0,0.0,0.0,0.0,0.0,0.0,0.0,0.0,4.9885,4.9063,4.8028,4.7992,4.7992,4.7992,4.7992,4.7992,4.7992,4.7992,4.8012,4.807,4.807,4.776,4.7232,0.0,0.0,0.0,4.5424,4.4912,4.4419,4.3853,4.3559,4.3429,4.3429,4.3515,4.3649,4.3649,4.3697,4.3777,4.3777,4.3777,4.3744,4.3594,4.3494,4.3461,4.3647,4.3823,4.4008,4.408,4.3774,4.349,4.3589,4.3176,4.2813,4.3023,4.3047,4.3007,4.2913,4.2867,4.262,4.1814,4.1681,4.1461,4.0843,4.0715,4.0599,4.0352,4.0163,3.9988,3.9789,3.9414,3.917,3.9106,3.911,3.911,3.911,3.9133,3.9087,3.8993,3.9036,3.9007,3.8892,3.9132,3.9257,3.9257,3.9497,3.9949,4.0559,4.0559,4.1048,4.2577,4.3104,4.3629,4.3355,4.2681,4.1807,0.0,3.993,3.9187,3.8372,3.8209,3.8209,3.8209,3.8209,3.8209,3.8209,3.9478,4.1325,4.3751,0.0,0.0,0.0,0.0,0.0,0.0,0.0,0.0,0.0,0.0,0.0,0.0,5.0584,4.9793,4.8067,4.7992,4.7992,4.7992,4.7992,4.7992,4.7992,4.7992,4.807,4.8187,4.8187,4.8228,0.0,0.0,0.0,0.0,4.7076,4.6122,4.4691,4.4691,4.4195,4.3515,4.3515,4.3716,4.3989,4.3989,4.4181,4.4383,4.4383,4.4383,4.4383,4.4402,4.4206,4.4048,4.4318,4.4383,4.4452,4.4714,4.4788,4.4861,4.5205,4.5277,4.5258,4.5277,4.5277,4.501,4.4159,4.3987,4.3739,4.2928,4.2775,4.2775,4.2775,4.2664,4.2259,4.1402,4.1231,4.0851,3.9995,3.9889,3.98,3.9602,3.9589,3.9589,3.9589,3.9642,3.9551,3.921,3.9311,3.9251,3.891,3.9682,4.0085,4.0085,4.088,4.1427,4.1683,4.1683,4.2263,4.1831,4.2077,4.2202,4.1917,4.115,4.0361,4.004,3.9252,3.8517,3.8263,3.8209,3.8209,3.8209,3.8662,3.9369,4.0419,4.147,4.2792,0.0,0.0,0.0,0.0,0.0,0.0,0.0,0.0,0.0,0.0,0.0,0.0,0.0,5.023,4.9385,4.8246,4.8209,4.8209,4.8209,4.8209,4.8209,4.8209,4.8209,4.8229,4.8267,4.8267,0.0,0.0,0.0,0.0,0.0,4.7913,4.717,4.6162,4.5603,4.4875,4.4114,4.4114,4.4188,4.426,4.426,4.4332,4.4397,4.4397,4.4397,4.4425,4.4612,4.4498,4.4332,4.4599,4.4676,4.4758,4.5045,4.5132,4.5173,4.5267,4.5307,4.5307,4.5307,4.5307,4.522,4.4934,4.4895,4.4628,4.3758,4.3624,4.3433,4.2889,4.2764,4.2629,4.2362,4.2312,4.2157,4.1787,4.1738,4.1228,3.9925,3.9819,3.9819,3.9819,4.0375,4.0673,4.058,4.1144,4.1403,4.1287,4.155,4.1663,4.1663,4.1843,4.2214,4.2805,4.3367,4.3807,4.1233,4.1562,4.1703,4.1479,4.0718,4.004,3.9976,3.9153,3.8506,3.8832,3.8791,3.8835,3.9126,3.9598,4.0252,4.1197,4.2268,0.0,0.0,0.0,0.0,0.0,0.0,0.0,0.0,0.0,0.0,0.0,0.0,0.0,0.0,0.0,4.9546,4.8694,4.8421,4.8306,4.8306,4.8306,4.8306,4.8306,4.8439,4.8495,4.8495,4.8623,0.0,0.0,0.0,0.0,0.0,4.8662,4.8078,4.7289,4.6797,4.5914,4.4885,4.4885,4.4748,4.4546,4.4546,4.4624,4.4752,4.4752,4.4752,4.4758,4.4934,4.4875,4.4758,4.4934,4.5,4.5034,4.5246,4.5307,4.5307,4.5307,4.5048,4.4895,4.522,4.5029,4.4914,4.525,4.5307,4.5125,4.459,4.4494,4.4322,4.3825,4.373,4.3615,4.331,4.3252,4.3088,4.2722,4.2673,4.2233,4.1083,4.0903,4.084,4.084,4.1407,4.1721,4.1658,4.2185,4.2451,4.2386,4.272,4.289,4.289,4.3118,4.3448,4.3905,4.438,4.4423,0.0,4.1393,4.183,4.1694,4.1081,4.0506,4.0363,3.9565,0.0,3.9863,3.984,3.9924,4.08,4.0946,4.0984,4.115,0.0,0.0,0.0,0.0,0.0,0.0,0.0,0.0,0.0,0.0,0.0,0.0,0.0,0.0,0.0,0.0,5.0075,4.9317,4.8693,4.8364,4.8364,4.8364,4.8364,4.8364,4.8694,4.885,4.885,4.9161,0.0,0.0,0.0,0.0,0.0,4.936,4.8905,4.8171,4.8171,4.7212,4.5839,4.5782,4.5398,4.4919,4.4862,4.5034,4.5307,4.5307,4.5307,4.5307,4.5307,4.5307,4.5307,4.5307,4.5307,4.5288,4.522,4.5201,4.5182,4.5154,4.4494,4.414,4.4953,4.4494,4.414,4.4953,4.5116,4.5154,4.5201,4.5201,4.522,4.5288,4.5307,4.501,4.4197,4.4083,4.3815,4.3061,4.2985,4.2985,4.2985,4.2637,4.2439,4.2439,4.2596,4.2634,4.2515,4.2691,4.2729,4.261,4.3407,4.3805,4.3793,4.4559,4.4888,4.48,4.4682,4.4222,4.0273,0.0,4.0397,4.0355,4.008,3.982,0.0,3.9425,3.9341,4.0211,4.0337,4.0741,4.2199,4.2445,4.2953,4.4584,0.0,0.0,0.0,0.0,0.0,0.0,0.0,0.0,0.0,0.0,0.0,0.0,0.0,0.0,0.0,0.0,4.949,4.9317,4.9161,4.9046,4.9046,4.9046,4.9046,4.9064,4.9126,4.9174,4.9193,4.9252,0.0,0.0,0.0,0.0,4.9702,4.9955,4.9587,4.8857,4.8857,4.8229,4.7227,4.6561,4.6214,4.6012,4.5412,4.5235,4.5307,4.5307,4.5307,4.5307,4.5307,4.5307,4.5307,4.5307,4.5307,4.5144,4.4475,4.4312,4.415,4.3539,4.3233,4.3138,4.3348,4.3233,4.3138,4.3348,4.3386,4.3577,4.4208,4.4312,4.4532,4.5201,4.5307,4.522,4.501,4.4991,4.4914,4.4723,4.4704,4.4704,4.4704,4.3479,4.2704,4.2704,4.3316,4.366,4.3628,4.4289,4.4643,4.4622,4.4832,4.4873,4.4764,4.4973,4.4668,4.391,4.3874,4.3426,4.0176,4.0598,4.1059,4.1114,4.1362,4.1488,4.1154,4.0552,4.0208,4.0685,0.0,4.1531,4.2819,4.3681,0.0,0.0,0.0,0.0,0.0,0.0,0.0,0.0,0.0,0.0,0.0,0.0,0.0,0.0,0.0,0.0,0.0,0.0,4.9757,4.9757,4.9757,4.9599,4.9299,4.9299,4.9299,4.9299,4.9468,4.9527,4.9541,4.9688,0.0,0.0,0.0,0.0,5.0051,5.0224,5.0034,4.9652,4.9652,4.9137,4.8334,4.7876,4.7436,4.7035,4.6596,4.6194,4.5793,4.5411,4.5307,4.5307,4.5307,4.5307,4.5307,4.5307,4.5307,4.5182,4.4723,4.4293,4.3892,4.3452,4.2756,4.2316,4.2717,4.2488,4.2316,4.2717,4.2794,4.2947,4.3357,4.3452,4.3615,4.4074,4.4475,4.4704,4.4704,4.5048,4.5307,4.5307,4.4934,4.4704,4.4704,4.3539,4.3138,4.3902,4.436,4.4609,4.4609,4.4666,4.4532,4.415,4.415,4.4119,4.4037,4.4037,4.3757,4.3235,4.3179,4.2723,4.0607,4.1842,4.2921,4.2525,4.3175,4.3711,4.2965,0.0,0.0,0.0,0.0,0.0,0.0,4.5028,0.0,0.0,0.0,0.0,0.0,0.0,0.0,0.0,0.0,0.0,0.0,0.0,0.0,0.0,0.0,0.0,0.0,0.0,0.0,5.0302,5.0302,5.0038,4.9468,4.9453,4.9453,4.9468,4.9744,4.987,4.9903,5.0169,5.0302,0.0,0.0,0.0,5.0302,5.0302,5.0302,5.0302,5.0302,4.9882,4.9282,4.9148,4.8621,4.7979,4.7845,4.7311,4.6596,4.5889,4.5679,4.5679,4.5679,4.5583,4.5468,4.5468,4.5392,4.5269,4.5144,4.4551,4.3968,4.3854,4.2641,4.1705,4.2431,4.1915,4.1533,4.2278,4.2431,4.2469,4.2584,4.2603,4.2641,4.2775,4.3386,4.3854,4.3987,4.4647,4.5144,4.5288,4.4647,4.4197,4.4197,4.3577,4.3787,4.5211,4.5182,4.5163,4.5288,4.459,4.3883,4.3195,4.3176,4.3176,4.3176,4.3176,4.3119,4.2985,4.2864,4.2493,4.203,4.4111,4.5197,4.2363,4.284,4.3776,4.2975,4.2659,0.0,0.0,0.0,0.0,0.0,4.7304,0.0,0.0,0.0,0.0,0.0,0.0,0.0,0.0,0.0,0.0,0.0,0.0,0.0,0.0,0.0,0.0,0.0,0.0,0.0,5.0302,5.0302,5.0248,5.0144,5.0144,5.0144,5.0144,5.0212,5.0224,5.0224,5.0278,5.0302,0.0,0.0,5.0302,5.0302,5.0302,5.0302,5.0302,5.0302,5.0225,5.0034,4.9358,4.9033,4.8793,4.8067,4.7712,4.7578,4.7463,4.7406,4.7406,4.7406,4.6901,4.6328,4.6328,4.5831,4.5125,4.4399,4.4102,4.3834,4.3157,4.2221,4.1533,4.1667,4.1055,4.0511,4.0664,4.0683,4.0903,4.1571,4.1705,4.1953,4.2698,4.2908,4.3233,4.3911,4.4121,4.4475,4.522,4.5182,4.5105,4.5105,4.4991,4.5039,4.5288,4.4609,4.4532,4.5269,4.5163,4.5029,4.4914,4.4914,4.4914,4.4914,4.4914,4.4532,4.3815,4.3795,4.3729,4.1246,4.3261,4.4895,4.3825,4.5851,4.778,4.65,4.5831,4.5468,0.0,0.0,0.0,0.0,0.0,0.0,0.0,0.0,0.0,0.0,0.0,0.0,0.0,0.0,0.0,0.0,0.0,0.0,0.0,0.0,0.0,0.0,0.0,0.0,0.0,5.0302,5.0302,5.0302,5.0302,5.0302,5.0302,5.0302,5.0302,5.0302,5.0302,5.0302,5.0302,0.0,5.0302,5.0302,5.0302,5.0302,5.0302,5.0302,5.0302,5.0264,4.9882,4.9748,4.9633,4.8793,4.8506,4.843,4.7941,4.7788,4.7788,4.7788,4.7521,4.7196,4.7196,4.6271,4.5201,4.4819,4.4704,4.4609,4.4246,4.3845,4.3549,4.3549,4.3252,4.287,4.2383,4.2306,4.2268,4.2202,4.2202,4.2335,4.2737,4.3176,4.3567,4.3949,4.4418,4.4857,4.5269,4.4876,4.4609,4.4609,4.4208,4.4341,4.525,4.4914,4.4666,4.4609,4.4609,4.4399,4.3959,4.394,4.394,4.394,4.394,4.3978,4.4006,4.4006,4.4255,4.0778,4.2555,4.4513,4.5373,4.8009,5.0225,4.9538,4.8563,4.7712,0.0,0.0,0.0,0.0,0.0,0.0,0.0,0.0,0.0,0.0,0.0,0.0,0.0,0.0,0.0,0.0,0.0,0.0,0.0,0.0,0.0,0.0,0.0,0.0,0.0,5.0302,5.0302,5.0302,5.0302,5.0302,5.0302,5.0302,5.0302,5.0302,5.0302,5.0302,5.0302,5.0302,5.0302,5.0302,5.0302,5.0302,5.0302,5.0302,5.0302,5.0302,5.0302,5.0302,5.0206,4.9595,4.9366,4.927,4.8602,4.838,4.838,4.838,4.8258,4.8105,4.8105,4.7035,4.5889,4.5889,4.5889,4.5889,4.5889,4.5736,4.5583,4.5583,4.543,4.5105,4.4437,4.4293,4.4122,4.3541,4.3426,4.3369,4.3197,4.3695,4.4087,4.4087,4.4681,4.517,4.538,4.4796,4.4394,4.4394,4.402,4.4308,4.5591,4.5253,4.4781,4.4312,4.4293,4.4112,4.3673,4.3713,4.3828,4.4029,4.4049,4.4384,4.4978,4.4978,4.5457,4.2202,4.3883,4.5392,4.6214,4.6634,4.7455,4.971,4.8965,0.0,4.9729,0.0,0.0,0.0,0.0,0.0,0.0,0.0,0.0,0.0,0.0,0.0,0.0,0.0,0.0,0.0,0.0,0.0,0.0,0.0,0.0,0.0,0.0,0.0,0.0,0.0,5.0302,5.0302,5.0302,5.0302,5.0302,5.0302,5.0302,5.0302,5.0302,5.0302,5.0302,5.0302,5.0302,5.0302,5.0302,5.0302,5.0302,5.0302,5.0302,5.0302,5.0302,5.0302,5.0283,5.0225,5.0206,5.0206,5.0149,5.013,5.013,5.013,4.9595,4.9003,4.9003,4.8334,4.7616,4.7616,4.7616,4.7616,4.7616,4.6997,4.6405,4.6405,4.5831,4.5288,4.522,4.5201,4.5225,4.5284,4.5312,4.5068,4.4392,4.4338,4.4369,4.4365,4.4423,4.477,4.5579,4.5618,4.5579,4.5579,4.6216,4.6659,4.6775,4.5084,4.4437,4.5182,4.5201,4.5526,4.6214,4.6416,4.6877,4.7626,4.7754,4.7833,4.7891,4.7891,4.8364,4.1065,4.3233,4.5373,4.5679,4.694,0.0,0.0,5.0615,5.0646,5.2327,5.1983,0.0,0.0,0.0,0.0,0.0,0.0,0.0,0.0,0.0,0.0,0.0,0.0,0.0,0.0,0.0,0.0,0.0,0.0,0.0,0.0,0.0,0.0,0.0,0.0,5.0302,5.0302,5.0302,5.0302,5.0302,5.0302,5.0302,5.0302,5.0302,5.0302,5.0302,5.0302,5.0302,5.0302,5.0302,5.0302,5.0302,5.0302,5.0302,5.0302,5.0302,5.0302,5.0302,5.0302,5.0302,5.0302,5.0302,5.0302,5.0302,5.0302,5.0152,4.9972,4.9972,4.9795,4.9336,4.822,4.8323,4.8757,4.8837,4.9,4.9115,4.9115,4.8865,4.8509,4.8,4.7904,4.7758,4.7262,4.7174,4.7075,4.6815,4.6765,4.6765,4.6758,4.6758,4.6893,4.7221,4.7259,4.7259,4.7259,4.7529,4.7703,4.7703,4.7013,4.6759,4.7086,4.7105,4.7259,4.7548,4.764,4.782,4.8109,4.818,4.8475,4.9007,4.9007,4.9451,4.0692,4.2737,4.501,4.5545,0.0,0.0,5.1486,5.1792,5.2155,5.4104,5.3588,0.0,0.0,0.0,0.0,0.0,0.0,0.0,0.0,0.0,0.0,0.0,0.0,0.0,0.0,0.0,0.0,0.0,0.0,0.0,0.0,0.0,0.0,0.0,0.0,5.0302,5.0302,5.0302,5.0302,5.0302,5.0302,5.0302,5.0302,5.0302,5.0302,5.0302,5.0302,5.0302,5.0302,5.0302,5.0302,5.0302,5.0302,5.0302,5.0302,5.0302,5.0302,5.0302,5.0302,5.0302,5.0314,5.0377,5.038,5.0402,5.0477,5.0558,5.0633,5.0633,5.0694,5.0491,4.9291,4.9371,4.9769,4.9869,5.03,5.0705,5.0705,5.0705,5.055,4.9991,4.9875,4.9718,4.9188,4.908,4.8991,4.8766,4.8728,4.8631,4.836,4.8322,4.8322,4.8322,4.8322,4.8322,4.8322,4.8573,4.8728,4.8728,4.8979,4.8852,4.8232,4.8205,4.8321,4.861,4.8651,4.881,4.908,4.9138,4.9443,5.0035,5.0035,5.0326,4.1495,4.2717,4.4407,4.608,0.0,0.0,5.204,5.2174,5.2327,5.4868,0.0,5.2556,0.0,0.0,0.0,0.0,0.0,0.0,0.0,0.0,0.0,0.0,0.0,0.0,0.0,0.0,0.0,0.0,0.0,0.0,0.0,0.0,0.0,0.0,0.0,0.0,5.0302,5.0302,5.0302,5.0302,5.0302,5.0302,5.0302,5.0302,5.0302,5.0302,5.0302,5.0302,5.0302,5.0302,5.0302,5.0302,5.0302,5.0302,5.0302,5.0302,5.0302,5.0302,5.0302,5.0302,5.034,5.0538,5.0605,5.0631,5.0838,5.0894,5.0894,5.0894,5.0894,5.094,5.1075,5.0905,5.0705,5.0705,5.0705,5.0705,5.0705,5.0705,5.0705,5.0705,5.0705,5.0767,5.0971,5.0993,5.0757,5.0031,4.9906,4.9596,4.8735,4.8619,4.8619,4.8619,4.8619,4.8619,4.8619,4.9421,4.9906,4.9906,5.0717,5.0306,4.8298,4.8232,4.8629,4.9489,4.9644,5.0148,5.1005,5.1134,5.1202,5.1202,5.1202,5.1202,4.0816,4.2737,0.0,4.5526,0.0,0.0,0.0,5.2614,0.0,0.0,0.0,0.0,0.0,0.0,0.0,0.0,0.0,0.0,0.0,0.0,0.0,0.0,0.0,0.0,0.0,0.0,0.0,0.0,0.0,0.0,0.0,0.0,0.0,0.0,0.0,0.0,5.0302,5.0302,5.0302,5.0302,5.0302,5.0302,5.0302,5.0302,5.0302,5.0302,5.0302,5.0302,5.0302,5.0302,5.0325,5.0379,5.0379,5.0412,5.0427,5.0427,5.0427,5.0459,5.0557,5.0587,5.0605,5.0766,5.0809,5.0816,5.0874,5.0966,5.1033,5.1033,5.1116,5.1186,5.1228,5.1176,5.1111,5.1111,5.1111,5.1111,5.1111,5.1111,5.1111,5.1111,5.1111,5.1141,5.1201,5.1206,5.1138,5.0927,5.0841,5.0728,5.047,5.0425,5.0425,5.0425,5.0425,5.0425,5.0425,5.0678,5.0814,5.0814,5.1066,5.0926,5.0326,5.0306,5.0442,5.0687,5.0739,5.0888,5.114,5.1184,5.1202,5.1202,5.1202,5.1202,4.2317,4.4068,0.0,4.7499,4.9763,5.1942,5.3065,0.0,0.0,0.0,0.0,0.0,0.0,0.0,0.0,0.0,0.0,0.0,0.0,0.0,0.0,0.0,0.0,0.0,0.0,0.0,0.0,0.0,0.0,0.0,0.0,0.0,0.0,0.0,0.0,0.0,5.0302,5.0302,5.0314,5.0337,5.0337,5.0348,5.0371,5.0325,5.0314,5.0337,5.0359,5.0371,5.0371,5.0371,5.0393,5.0446,5.0446,5.0502,5.0576,5.0576,5.0606,5.068,5.0753,5.0786,5.0798,5.0946,5.0975,5.0986,5.1079,5.1165,5.1215,5.1215,5.128,5.1346,5.1346,5.1346,5.1336,5.1308,5.13,5.13,5.13,5.13,5.13,5.13,5.13,5.13,5.13,5.13,5.13,5.13,5.1276,5.1249,5.1234,5.1229,5.1229,5.1229,5.1229,5.1229,5.1229,5.1229,5.1224,5.1197,5.1197,5.1206,5.1202,5.1202,5.1202,5.1202,5.1202,5.1202,5.1202,5.1202,5.1202,5.1202,5.1202,5.1202,4.4871,4.5994,4.7501,5.0711,5.1678,0.0,5.3604,0.0,0.0,0.0,0.0,0.0,0.0,0.0,0.0,0.0,0.0,0.0,0.0,0.0,0.0,0.0,0.0,0.0,0.0,0.0,0.0,0.0,0.0,0.0,0.0,0.0,0.0,0.0,0.0,0.0,5.0314,5.0314,5.0348,0.0,5.0412,5.0446,5.05,5.0371,5.0348,5.0412,5.0478,5.05,5.05,5.05,5.0511,5.0511,5.0513,5.0606,5.0713,5.0731,5.0798,5.0901,5.0914,5.0921,5.0946,5.1074,5.1128,5.1168,5.134,5.1394,5.1394,5.1394,5.1394,5.1394,5.1394,5.1394,5.1384,5.1326,5.1312,5.1312,5.1312,5.1312,5.1312,5.1312,5.1312,5.1312,5.1312,5.1312,5.1308,5.1304,5.1304,5.1304,5.13,5.13,5.13,5.13,5.13,5.13,5.13,5.13,5.1265,5.122,5.1215,5.1215,5.122,5.1208,5.1202,5.1202,5.1202,5.1202,5.1202,5.1202,5.1202,5.1202,5.1202,5.1202,4.3673,4.5364,0.0,0.0,5.1556,5.2917,5.2473,5.2377,0.0,0.0,0.0,0.0,0.0,0.0,0.0,0.0,0.0,0.0,0.0,0.0,0.0,0.0,0.0,0.0,0.0,0.0,0.0,0.0,0.0,0.0,0.0,0.0,0.0,0.0,0.0,5.039,5.039,5.0435,5.0448,0.0,5.0478,5.0489,5.05,5.0478,5.0448,5.0478,5.05,5.05,5.05,5.05,5.0532,5.0584,5.0691,5.0797,5.0859,5.0919,5.094,5.0983,5.1094,5.1141,5.1155,5.1297,5.1335,5.1338,5.139,5.1394,5.1394,5.1394,5.1394,5.1394,5.1394,5.1394,5.1392,5.1381,5.1379,5.1379,5.1379,5.1379,5.1379,5.1379,5.1379,5.1379,5.1379,5.1379,5.1372,5.1388,5.1382,5.1353,5.1304,5.13,5.13,5.13,5.13,5.13,5.13,5.13,5.1296,5.1284,5.1284,5.128,5.1272,5.1233,5.1202,5.1202,5.1202,5.1202,5.1202,5.1202,5.1202,5.1202,5.1202,5.1202,4.4212,0.0,0.0,5.0242,0.0,5.3192,5.2229,0.0,0.0,0.0,0.0,0.0,0.0,0.0,0.0,0.0,0.0,0.0,0.0,0.0,0.0,0.0,0.0,0.0,0.0,0.0,0.0,0.0,0.0,0.0,0.0,0.0,0.0,0.0,5.0435,5.0457,5.0457,5.0489,5.0511,5.0542,5.0542,5.0595,5.0692,5.0585,5.0542,5.0542,5.0573,5.0625,5.0701,5.0701,5.0726,5.0808,5.0874,5.0966,5.1047,5.1088,5.1137,5.1203,5.1262,5.1294,5.1319,5.1386,5.1394,5.1394,5.1394,5.1394,5.1394,5.1394,5.1394,5.1394,5.1394,5.1394,5.1394,5.1394,5.1394,5.1394,5.1394,5.1394,5.1394,5.1394,5.1394,5.1394,5.1394,5.1394,5.139,5.1396,5.1396,5.1391,5.1355,5.1352,5.1352,5.1352,5.1352,5.1352,5.1352,5.1352,5.1346,5.1349,5.1346,5.1339,5.13,5.1273,5.1245,5.1245,5.1245,5.1245,5.1245,5.1245,5.1245,5.1245,5.1245,5.1245,4.4909,0.0,4.8214,5.1297,5.2593,0.0,5.2124,0.0,0.0,0.0,0.0,0.0,0.0,0.0,0.0,0.0,0.0,0.0,0.0,0.0,0.0,0.0,0.0,0.0,0.0,0.0,0.0,0.0,0.0,0.0,0.0,0.0,5.05,5.05,5.0511,5.0532,5.0554,5.0565,5.0605,5.0664,5.0664,5.0754,5.0905,5.0736,5.0664,5.0664,5.073,5.0805,5.0913,5.0913,5.0945,5.1008,5.1025,5.1094,5.1203,5.1238,5.13,5.1394,5.1394,5.1394,5.1394,5.1394,5.1394,5.1394,5.1394,5.1394,5.1394,5.1394,5.1394,5.1394,5.1394,5.1394,5.1394,5.1394,5.1394,5.1394,5.1394,5.1394,5.1394,5.1394,5.1394,5.1394,5.1394,5.1394,5.1394,5.1394,5.1394,5.1394,5.1394,5.1394,5.1394,5.1394,5.1394,5.1394,5.1394,5.1394,5.1406,5.1403,5.1403,5.1372,5.1323,5.1319,5.1319,5.1319,5.1308,5.13,5.13,5.13,5.13,5.13,5.13,5.13,4.3706,0.0,4.9052,0.0,5.1586,5.1628,0.0,0.0,0.0,0.0,0.0,0.0,0.0,0.0,0.0,0.0,0.0,0.0,0.0,0.0,0.0,0.0,0.0,0.0,0.0,0.0,0.0,0.0,0.0,0.0,0.0,5.05,5.05,5.05,5.0562,5.0644,5.0752,5.0822,5.0879,5.0946,5.0946,5.0959,5.0997,5.0953,5.0946,5.0946,5.0972,5.0966,5.0997,5.0997,5.099,5.1014,5.1132,5.1172,5.1211,5.133,5.1388,5.1394,5.1394,5.1394,5.1394,5.1394,5.1394,5.1394,5.1394,5.1394,5.1394,5.1394,5.1394,5.1394,5.1394,5.1394,5.1394,5.1394,5.1394,5.1394,5.1394,5.1394,5.1394,5.1394,5.1394,5.1394,5.1394,5.1394,5.1394,5.1394,5.1394,5.1394,5.1394,5.1394,5.1394,5.1394,5.1394,5.1394,5.1394,5.1394,5.1392,5.141,5.141,5.1408,5.1386,5.1386,5.1386,5.1386,5.1333,5.13,5.13,5.13,5.13,5.13,5.13,5.13,4.3782,4.587,4.7939,0.0,5.067,5.0783,0.0,0.0,0.0,0.0,0.0,0.0,0.0,0.0,0.0,0.0,0.0,0.0,0.0,0.0,0.0,0.0,0.0,0.0,0.0,0.0,0.0,0.0,0.0,0.0,5.0778,5.0778,5.0778,5.0778,5.0821,5.0646,5.0246,5.0267,5.0306,5.0322,5.0322,5.0595,5.1099,5.1099,5.1069,5.1002,5.1002,5.1042,5.1099,5.1099,5.1155,5.1238,5.1291,5.1302,5.1325,5.1386,5.1394,5.1394,5.1394,5.1394,5.1394,5.1394,5.1394,5.1394,5.1394,5.1394,5.1394,5.1394,5.1394,5.1394,5.1394,5.1394,5.1394,5.1394,5.1394,5.1394,5.1394,5.1394,5.1394,5.1394,5.1394,5.1394,5.1394,5.1394,5.1394,5.1394,5.1394,5.1394,5.1394,5.1394,5.1394,5.1394,5.1394,5.1394,5.1394,5.1394,5.1394,5.1394,5.1394,5.1394,5.1394,5.1394,5.1394,5.1394,5.1374,5.1361,5.1361,5.1361,5.1361,5.1361,5.1361,5.1361,0.0,0.0,4.6202,4.8545,4.944,5.0007,0.0,0.0,0.0,0.0,0.0,0.0,0.0,0.0,0.0,0.0,0.0,0.0,0.0,0.0,0.0,0.0,0.0,0.0,0.0,0.0,0.0,0.0,0.0,0.0,5.1002,5.1002,5.1002,5.1002,5.0808,5.0417,4.9823,4.9635,4.9552,4.9552,4.9552,4.9904,5.0608,5.0823,5.0868,5.0778,5.1016,5.1155,5.1252,5.1252,5.13,5.1394,5.1394,5.1394,5.1394,5.1394,5.1394,5.1394,5.1394,5.1394,5.1394,5.1394,5.1394,5.1394,5.1394,5.1394,5.1394,5.1394,5.1394,5.1394,5.1394,5.1394,5.1394,5.1394,5.1394,5.1394,5.1394,5.1394,5.1394,5.1394,5.1394,5.1394,5.1394,5.1394,5.1394,5.1394,5.1394,5.1394,5.1394,5.1394,5.1394,5.1394,5.1394,5.1394,5.1394,5.1394,5.1394,5.1394,5.1394,5.1394,5.1394,5.1394,5.1394,5.1394,5.1394,5.1394,5.1394,5.1394,5.1394,5.1394,5.1394,5.1394,0.0,4.3177,0.0,4.6046,4.7686,0.0,0.0,0.0,0.0,0.0,0.0,0.0,0.0,0.0,0.0,0.0,0.0,0.0,0.0,0.0,0.0,0.0,0.0,0.0,0.0,0.0,0.0,0.0,0.0,0.0,5.1002,5.1002,5.1002,5.1002,5.0264,4.9872,4.989,4.9196,4.8851,4.8851,4.8851,4.887,4.8951,4.979,5.0159,5.0196,5.1015,5.1388,5.139,5.139,5.1392,5.1394,5.1394,5.1394,5.1394,5.1394,5.1394,5.1394,5.1394,5.1394,5.1394,5.1394,5.1394,5.1394,5.1394,5.1394,5.1394,5.1394,5.1394,5.1394,5.1394,5.1394,5.1394,5.1394,5.1394,5.1394,5.1394,5.1394,5.1394,5.1394,5.1394,5.1394,5.1394,5.1394,5.1394,5.1394,5.1394,5.1394,5.1394,5.1394,5.1394,5.1394,5.1394,5.1394,5.1394,5.1394,5.1394,5.1394,5.1394,5.1394,5.1394,5.1394,5.1394,5.1394,5.1394,5.1394,5.1394,5.1394,5.1394,5.1394,5.1394,5.1394,0.0,0.0,0.0,4.5031,4.6339,0.0,0.0,0.0,0.0,0.0,0.0,0.0,0.0,0.0,0.0,0.0,0.0,0.0,0.0,0.0,0.0,0.0,0.0,0.0,0.0,0.0,0.0,0.0,0.0,0.0,5.1255,5.1255,5.1255,5.1255,5.0982,5.0293,4.9201,4.7854,4.7471,4.8037,4.8037,4.8291,4.8837,4.9694,5.0104,5.0143,5.1023,5.1394,5.1394,5.1394,5.1394,5.1394,5.1394,5.1394,5.1394,5.1394,5.1394,5.1394,5.1394,5.1394,5.1394,5.1394,5.1394,5.1394,5.1394,5.1394,5.1394,5.1394,5.1394,5.1394,5.1394,5.1394,5.1394,5.1394,5.1394,5.1394,5.1394,5.1394,5.1394,5.1394,5.1394,5.1394,5.1394,5.1394,5.1394,5.1394,5.1394,5.1394,5.1394,5.1394,5.1394,5.1394,5.1394,5.1394,5.1394,5.1394,5.1394,5.1394,5.1394,5.1394,5.1394,5.1394,5.1394,5.1394,5.1394,5.1394,5.1394,5.1394,5.1394,5.1394,5.1394,5.1394,4.0289,0.0,0.0,0.0,0.0,0.0,0.0,0.0,0.0,0.0,0.0,0.0,0.0,0.0,0.0,0.0,0.0,0.0,0.0,0.0,0.0,0.0,0.0,0.0,0.0,0.0,0.0,0.0,0.0,0.0,5.1394,5.1394,5.1277,5.0965,5.0672,4.9833,4.8408,4.7002,4.6593,4.7159,4.7159,4.7608,4.8427,4.9286,4.9811,5.0143,5.1023,5.1394,5.1394,5.1394,5.1394,5.1394,5.1394,5.1394,5.1394,5.1394,5.1394,5.1394,5.1394,5.1394,5.1394,5.1394,5.1394,5.1394,5.1394,5.1394,5.1394,5.1394,5.1394,5.1394,5.1394,5.1394,5.1394,5.1394,5.1394,5.1394,5.1394,5.1394,5.1394,5.1394,5.1394,5.1394,5.1394,5.1394,5.1394,5.1394,5.1394,5.1394,5.1394,5.1394,5.1394,5.1394,5.1394,5.1394,5.1394,5.1394,5.1394,5.1394,5.1394,5.1394,5.1394,5.1394,5.1394,5.1394,5.1394,5.14,5.1408,5.14,5.1394,5.1394,5.1394,5.1405,0.0,0.0,0.0,0.0,0.0,0.0,0.0,0.0,0.0,0.0,0.0,0.0,0.0,0.0,0.0,0.0,0.0,0.0,0.0,0.0,0.0,0.0,0.0,0.0,0.0,0.0,0.0,0.0,0.0,5.1394,5.1394,5.1394,5.1004,5.0163,4.9286,4.8447,4.7645,4.6768,4.6339,4.63,4.63,4.6768,4.7625,4.8427,4.9286,5.0143,5.1023,5.1394,5.1394,5.1394,5.1394,5.1394,5.1394,5.1394,5.1394,5.1394,5.1394,5.1394,5.1394,5.1394,5.1394,5.1394,5.1394,5.1394,5.1394,5.1394,5.1394,5.1394,5.1394,5.1394,5.1394,5.1394,5.1394,5.1394,5.1394,5.1394,5.1394,5.1394,5.1394,5.1394,5.1394,5.1394,5.1394,5.1394,5.1394,5.1394,5.1394,5.1394,5.1394,5.1394,5.1394,5.1394,5.1394,5.1394,5.1394,5.1394,5.1394,5.1396,5.1396,5.1396,5.1396,5.1396,5.1396,5.1396,5.1396,5.139,5.1405,5.1409,5.1396,5.1396,5.1396,5.14,3.904,0.0,0.0,0.0,0.0,0.0,0.0,0.0,0.0,0.0,0.0,0.0,0.0,0.0,0.0,0.0,0.0,0.0,0.0,0.0,0.0,0.0,0.0,0.0,0.0,0.0,0.0,0.0,5.1394,5.1394,5.1394,5.1394,5.1297,5.1043,5.0182,4.9325,4.8486,4.7647,4.6924,4.63,4.63,4.6768,4.7625,4.8427,4.9286,5.0143,5.1023,5.1394,5.1394,5.1394,5.1394,5.1394,5.1394,5.1394,5.1394,5.1394,5.1394,5.1394,5.1394,5.1394,5.1394,5.1394,5.1394,5.1394,5.1394,5.1394,5.1394,5.1394,5.1394,5.1394,5.1394,5.1394,5.1394,5.1394,5.1394,5.1394,5.1394,5.1394,5.1394,5.1394,5.1394,5.1394,5.1394,5.1394,5.1394,5.1394,5.1394,5.1394,5.1394,5.1394,5.1394,5.1394,5.1394,5.1394,5.1394,5.1394,5.1403,5.1399,5.14,5.1404,5.1406,5.1406,5.1406,5.1406,5.1406,5.1405,5.1403,5.1405,5.1404,5.1406,5.1406,5.1361,0.0,0.0,0.0,0.0,0.0,0.0,0.0,0.0,0.0,0.0,0.0,0.0,0.0,0.0,0.0,0.0,0.0,0.0,0.0,0.0,0.0,0.0,0.0,0.0,0.0,0.0,0.0,0.0,5.1394,5.1394,5.1394,5.1394,5.1394,5.1394,5.0553,4.9675,4.8818,4.7998,4.7159,4.63,4.6671,4.7276,4.8135,4.8954,4.9813,5.067,5.118,5.1394,5.1394,5.1394,5.1394,5.1394,5.1394,5.1394,5.1394,5.1394,5.1394,5.1394,5.1394,5.1394,5.1394,5.1394,5.1394,5.1394,5.1394,5.1394,5.1394,5.1394,5.1403,5.1391,5.1391,5.1391,5.1391,5.1391,5.1391,5.1394,5.1401,5.1402,5.1398,5.14,5.1405,5.1391,5.1391,5.1391,5.1395,5.1401,5.1396,5.1395,5.1401,5.1402,5.1402,5.1402,5.1402,5.1402,5.1402,5.1402,5.1404,5.1406,5.1406,5.1405,5.1398,5.1398,5.1398,5.1398,5.1398,5.1395,5.1366,5.1384,5.1405,5.1398,5.1398,5.1369,0.0,4.0507,0.0,0.0,0.0,0.0,4.3092,4.2891,0.0,0.0,0.0,0.0,0.0,0.0,0.0,0.0,0.0,0.0,0.0,0.0,0.0,0.0,0.0,0.0,0.0,0.0,5.1394,5.1394,5.1394,5.1394,5.1394,5.1394,5.1394,5.1394,5.0651,4.9772,4.8818,4.8096,4.7256,4.63,4.7178,4.8017,4.8837,4.9694,5.0573,5.1394,5.1394,5.1394,5.1394,5.1394,5.1394,5.1394,5.1394,5.1394,5.1394,5.1394,5.1394,5.1394,5.1394,5.1394,5.1394,5.1394,5.1394,5.1394,5.1398,5.14,5.14,5.1403,5.1398,5.1405,5.1405,5.1405,5.1405,5.1405,5.1405,5.1406,5.1401,5.1398,5.1404,5.1393,5.1399,5.1405,5.1405,5.1405,5.1406,5.14,5.1406,5.1406,5.14,5.1398,5.1398,5.1398,5.1398,5.1398,5.1398,5.1398,5.1397,5.1395,5.1395,5.1395,5.1393,5.1393,5.1393,5.1393,5.1393,5.1363,5.1294,5.1363,5.1393,5.1393,5.1393,5.1361,4.0174,4.0953,4.2028,0.0,0.0,0.0,0.0,4.201,0.0,0.0,0.0,0.0,0.0,0.0,0.0,0.0,0.0,0.0,0.0,0.0,0.0,0.0,0.0,0.0,0.0,0.0,5.1394,5.1394,5.1394,5.1394,5.1394,5.1394,5.1394,5.1394,5.1238,5.0399,4.8818,4.8642,4.7803,4.63,4.7178,4.8017,4.8837,4.9694,5.0573,5.1394,5.1394,5.1394,5.1394,5.1394,5.1394,5.1394,5.1394,5.1394,5.1394,5.1394,5.1394,5.1394,5.1394,5.1394,5.1394,5.1394,5.1394,5.1398,5.1398,5.1402,5.1404,5.1406,5.1404,5.1402,5.1402,5.1402,5.1402,5.1402,5.1402,5.1402,5.1399,5.1398,5.14,5.1404,5.1404,5.1402,5.1402,5.1402,5.1401,5.1398,5.1401,5.1401,5.1398,5.1398,5.1398,5.1398,5.1398,5.1398,5.1398,5.1398,5.1373,5.1312,5.131,5.1316,5.1317,5.1314,5.1314,5.1314,5.1314,5.131,5.13,5.131,5.1314,5.1314,5.1314,5.131,0.0,0.0,4.1756,4.1756,0.0,0.0,0.0,0.0,0.0,0.0,0.0,0.0,0.0,0.0,0.0,0.0,0.0,0.0,0.0,0.0,0.0,0.0,0.0,0.0,0.0,0.0,5.1394,5.1394,5.1394,5.1394,5.1394,5.1394,5.1394,5.1394,5.1394,5.077,4.9462,4.9442,4.8818,4.7569,4.8426,4.905,4.9481,5.036,5.0984,5.1394,5.1394,5.1394,5.1394,5.1394,5.1394,5.1394,5.1394,5.1394,5.1394,5.1394,5.1394,5.1394,5.1394,5.1394,5.1394,5.1394,5.1405,5.1396,5.1403,5.1406,5.1385,5.1351,5.1343,5.1341,5.1312,5.1308,5.1306,5.1294,5.1308,5.1283,5.1258,5.1252,5.1252,5.1252,5.1252,5.1271,5.1338,5.1343,5.1359,5.134,5.1353,5.1357,5.136,5.1357,5.1357,5.1357,5.1357,5.1357,5.1357,5.1357,5.135,5.1307,5.1304,5.1294,5.13,5.13,5.13,5.13,5.13,5.13,5.13,5.13,5.13,5.13,5.13,5.13,0.0,0.0,0.0,0.0,0.0,4.1889,0.0,0.0,0.0,4.2034,0.0,0.0,0.0,0.0,0.0,0.0,0.0,0.0,0.0,0.0,0.0,0.0,0.0,0.0,0.0,0.0,5.0867,5.1355,5.1082,5.1043,5.1375,5.1394,5.1394,5.1394,5.1394,5.0984,5.0104,5.0104,4.9655,4.8818,4.9675,5.0104,5.0124,5.1004,5.1394,5.1394,5.1394,5.1394,5.1394,5.1394,5.1394,5.1394,5.1394,5.1394,5.1394,5.1394,5.1394,5.1394,5.1394,5.1398,5.1403,5.1403,5.1381,5.1366,5.1366,5.1358,5.1332,5.128,5.1252,5.1245,5.1195,5.1187,5.1176,5.118,5.1191,5.1172,5.1117,5.1099,5.1099,5.1099,5.1099,5.1136,5.1232,5.1252,5.1255,5.1265,5.1261,5.1255,5.1261,5.1256,5.1256,5.1256,5.1261,5.1288,5.1288,5.1296,5.13,5.13,5.13,5.13,5.13,5.13,5.13,5.13,5.13,5.13,5.13,5.13,5.13,5.13,5.13,5.13,0.0,0.0,0.0,0.0,4.34,0.0,0.0,0.0,4.1983,4.1379,0.0,0.0,0.0,0.0,0.0,0.0,0.0,0.0,0.0,0.0,0.0,0.0,0.0,0.0,0.0,0.0,0.0,5.1238,4.9969,4.9774,5.1316,5.1394,5.1394,5.1394,5.1394,5.0984,5.0104,5.0104,4.9655,4.8818,4.9675,5.0104,5.0124,5.1004,5.1394,5.1394,5.1394,5.1394,5.1394,5.1394,5.1394,5.1394,5.1394,5.1394,5.1394,5.1394,5.1394,5.1394,5.1394,5.1391,5.1403,5.1403,5.132,5.1219,5.1219,5.1172,5.1131,5.112,5.112,5.112,5.1109,5.1109,5.1109,5.1103,5.1117,5.1117,5.1105,5.1099,5.1099,5.1099,5.1099,5.1092,5.1114,5.112,5.1114,5.1122,5.1114,5.1114,5.1122,5.1122,5.1122,5.1122,5.119,5.1215,5.1215,5.1276,5.13,5.13,5.13,5.13,5.13,5.13,5.13,5.13,5.13,5.13,5.13,5.13,5.13,5.13,5.13,5.13,0.0,0.0,0.0,0.0,0.0,0.0,0.0,0.0,4.1633,0.0,0.0,0.0,0.0,0.0,0.0,0.0,0.0,0.0,0.0,0.0,0.0,0.0,0.0,0.0,0.0,0.0,0.0,0.0,0.0,4.9345,5.0573,5.1121,5.1394,5.1394,5.1394,5.1219,5.0867,5.0848,5.0672,5.0301,5.0672,5.0848,5.0867,5.1238,5.1394,5.1394,5.1394,5.1394,5.1394,5.1394,5.1394,5.1394,5.1402,5.14,5.1394,5.1394,5.1398,5.1387,5.1362,5.1347,5.1344,5.1299,5.1252,5.1191,5.1152,5.1116,5.1099,5.1099,5.1099,5.1093,5.1056,5.1043,5.1037,5.099,5.0983,5.0983,5.0983,5.0983,5.0983,5.0983,5.0983,5.0983,5.0983,5.105,5.1099,5.1099,5.1099,5.1099,5.1099,5.1099,5.1099,5.1099,5.1128,5.1139,5.1139,5.1161,5.1176,5.1176,5.1176,5.1176,5.1176,5.1176,5.1176,5.1176,5.1176,5.1176,5.1176,5.1176,5.1176,5.1196,5.1256,5.13,4.4481,0.0,0.0,0.0,0.0,0.0,0.0,0.0,0.0,0.0,0.0,0.0,0.0,0.0,0.0,0.0,0.0,0.0,0.0,0.0,0.0,0.0,0.0,0.0,0.0,0.0,0.0,0.0,0.0,0.0,5.0026,5.069,5.116,5.1394,5.1394,5.1394,5.1394,5.1394,5.1394,5.1394,5.1394,5.1394,5.1394,5.1394,5.1394,5.1394,5.1394,5.1396,5.1398,5.1398,5.14,5.1403,5.1409,5.1394,5.1376,5.1376,5.1379,5.1365,5.1305,5.1271,5.1269,5.1187,5.1152,5.1146,5.1099,5.1063,5.105,5.105,5.105,5.1037,5.0983,5.0969,5.0954,5.0914,5.0898,5.0898,5.0898,5.0898,5.0898,5.0898,5.0898,5.0898,5.0898,5.0976,5.105,5.105,5.105,5.105,5.105,5.105,5.105,5.105,5.1063,5.1075,5.1075,5.1093,5.1099,5.1099,5.1099,5.1099,5.1099,5.1099,5.1099,5.1099,5.1099,5.1099,5.1099,5.1099,5.1099,5.1105,5.1211,5.1243,0.0,0.0,0.0,0.0,0.0,0.0,0.0,0.0,4.2042,0.0,0.0,0.0,0.0,0.0,0.0,0.0,0.0,0.0,0.0,0.0,0.0,0.0,0.0,0.0,0.0,0.0,0.0,0.0,0.0,0.0,4.9928,5.0124,5.0534,5.1375,5.1394,5.1394,5.1394,5.1394,5.1394,5.1394,5.1394,5.1394,5.1394,5.1394,5.1394,5.1394,5.1394,5.14,5.1409,5.1409,5.1393,5.1397,5.1398,5.1367,5.1302,5.1302,5.1302,5.1299,5.1223,5.1209,5.1185,5.1139,5.1063,5.101,5.1004,5.0954,5.0906,5.0906,5.0906,5.0906,5.0906,5.0906,5.0906,5.0898,5.0898,5.0898,5.0898,5.0898,5.0898,5.0898,5.0898,5.0898,5.0898,5.0906,5.0906,5.0906,5.0906,5.0906,5.0906,5.0906,5.0906,5.0906,5.0961,5.1004,5.1004,5.1063,5.1099,5.1099,5.1099,5.1099,5.1099,5.1099,5.1099,5.1099,5.1099,5.1099,5.1099,5.1099,5.1099,5.1105,5.1105,5.1111,0.0,0.0,4.5854,4.4747,0.0,0.0,0.0,0.0,0.0,0.0,0.0,0.0,0.0,0.0,0.0,0.0,0.0,0.0,0.0,0.0,0.0,0.0,0.0,0.0,0.0,0.0,0.0,0.0,0.0,0.0,0.0,5.0321,5.1102,5.1394,5.1394,5.1394,5.1394,5.1394,5.1394,5.1394,5.1394,5.1394,5.1394,5.1394,5.1398,5.1405,5.1405,5.1409,5.1397,5.1347,5.1328,5.1327,5.1271,5.1249,5.124,5.1273,5.1267,5.1224,5.1155,5.1084,5.0998,5.0976,5.0947,5.0925,5.0925,5.0921,5.0898,5.0898,5.0898,5.0898,5.0898,5.0898,5.0898,5.0898,5.0898,5.0898,5.0898,5.0898,5.0898,5.0898,5.0898,5.0898,5.0898,5.0898,5.0898,5.0898,5.0898,5.0898,5.0898,5.0898,5.0898,5.0898,5.0921,5.0925,5.0925,5.0947,5.0961,5.0961,5.0961,5.0961,5.0961,5.0961,5.0961,5.0961,5.0961,5.0961,5.0961,5.0961,5.0961,5.0961,5.0961,5.1017,4.6199,4.6181,0.0,0.0,4.4402,0.0,0.0,0.0,0.0,0.0,0.0,0.0,0.0,0.0,0.0,0.0,0.0,0.0,0.0,0.0,0.0,0.0,0.0,0.0,0.0,0.0,4.2788,4.4855,0.0,0.0,0.0,0.0,5.077,5.1375,5.1394,5.1394,5.1394,5.1394,5.1396,5.14,5.14,5.1402,5.1405,5.1405,5.1408,5.1393,5.1393,5.1396,5.1383,5.1325,5.1296,5.1291,5.1235,5.1187,5.1167,5.121,5.1179,5.1093,5.103,5.0969,5.0898,5.0898,5.0898,5.0898,5.0898,5.0898,5.0898,5.0898,5.0898,5.0898,5.0898,5.0898,5.0898,5.0898,5.0898,5.0898,5.0898,5.0898,5.0898,5.0898,5.0898,5.0898,5.0898,5.0898,5.0898,5.0898,5.0898,5.0898,5.0898,5.0898,5.0898,5.0898,5.0898,5.0898,5.0898,5.0898,5.0898,5.0898,5.0898,5.0898,5.0898,5.0898,5.0898,5.0898,5.0898,5.0898,5.0898,5.0898,5.0898,5.0898,5.0898,5.0959]}]]